[[{"header":{"parameterUnit":"m.s-1","parameterCategory":1,"la1":30.6,"la2":29.2853,"lo1":-89.7004,"lo2":-87.6739,"dy":0.0162,"dx":0.0183,"nx":112,"ny":82,"refTime":"2023-05-24T12:00:00:Z","depth":0,"parameterNumber":2,"parameterNumberName":"U-component_of_WINDS"},"data":[0.0,0.0,0.0,0.0,0.0,0.0,0.0,0.0,0.0,0.0,0.0,0.0,0.0,0.0,0.0,0.0,0.0,0.0,0.0,0.0,0.0,0.0,0.0,0.0,0.0,0.0,0.0,0.0,0.0,0.0,0.0,0.0,0.0,0.0,0.0,0.0,0.0,0.0,0.0,0.0,0.0,0.0,0.0,0.0,0.0,0.0,0.0,0.0,0.0,0.0,0.0,0.0,0.0,0.0,0.0,0.0,0.0,0.0,0.0,0.0,0.0,0.0,0.0,0.0,0.0,0.0,0.0,0.0,0.0,0.0,0.0,0.0,0.0,0.0,0.0,0.0,0.0,0.0,0.0,0.0,0.0,0.0,0.0,0.0,0.0,0.0,0.0,0.0,0.0,0.0,3.6698,4.0252,4.4285,4.6166,4.476,4.4217,4.1322,3.5178,0.0,0.0,0.0,0.0,0.0,0.0,0.0,0.0,0.0,0.0,0.0,0.0,0.0,0.0,0.0,0.0,0.0,0.0,0.0,0.0,0.0,0.0,0.0,0.0,0.0,0.0,0.0,0.0,0.0,0.0,0.0,0.0,0.0,0.0,0.0,0.0,0.0,0.0,0.0,0.0,0.0,0.0,0.0,0.0,0.0,0.0,0.0,0.0,0.0,0.0,0.0,0.0,0.0,0.0,0.0,0.0,0.0,0.0,0.0,0.0,0.0,0.0,0.0,0.0,0.0,0.0,0.0,0.0,0.0,0.0,0.0,0.0,0.0,0.0,0.0,0.0,0.0,0.0,0.0,0.0,0.0,0.0,0.0,0.0,0.0,0.0,0.0,0.0,0.0,0.0,0.0,0.0,0.0,0.0,0.0,0.0,0.0,0.0,0.0,0.0,0.0,0.0,0.0,0.0,3.665,4.1939,4.5475,4.6595,4.4527,4.3181,4.0626,3.6389,0.0,0.0,0.0,0.0,0.0,0.0,0.0,0.0,0.0,0.0,0.0,0.0,0.0,0.0,0.0,0.0,0.0,0.0,0.0,0.0,0.0,0.0,0.0,0.0,0.0,0.0,0.0,0.0,0.0,0.0,0.0,0.0,0.0,0.0,0.0,0.0,0.0,0.0,0.0,0.0,0.0,0.0,0.0,0.0,0.0,0.0,0.0,0.0,0.0,0.0,0.0,0.0,0.0,0.0,0.0,0.0,0.0,0.0,0.0,0.0,0.0,0.0,0.0,0.0,0.0,0.0,0.0,0.0,0.0,0.0,0.0,0.0,0.0,0.0,0.0,0.0,0.0,0.0,0.0,0.0,0.0,0.0,0.0,0.0,0.0,0.0,0.0,0.0,0.0,0.0,0.0,0.0,0.0,0.0,0.0,0.0,0.0,0.0,0.0,0.0,0.0,0.0,0.0,3.6149,3.8517,4.2814,4.481,4.5397,4.4377,4.2693,4.0203,3.6636,3.5112,0.0,0.0,0.0,0.0,0.0,0.0,0.0,0.0,0.0,0.0,0.0,0.0,0.0,0.0,0.0,0.0,0.0,0.0,0.0,0.0,0.0,0.0,0.0,0.0,0.0,0.0,0.0,0.0,0.0,0.0,0.0,0.0,0.0,0.0,0.0,0.0,0.0,0.0,0.0,0.0,0.0,0.0,0.0,0.0,0.0,0.0,0.0,0.0,0.0,0.0,0.0,0.0,0.0,0.0,0.0,0.0,0.0,0.0,0.0,0.0,0.0,0.0,0.0,0.0,0.0,0.0,0.0,0.0,0.0,0.0,0.0,0.0,0.0,0.0,0.0,0.0,0.0,0.0,0.0,0.0,0.0,0.0,0.0,0.0,0.0,0.0,0.0,0.0,0.0,0.0,0.0,0.0,0.0,0.0,0.0,0.0,0.0,0.0,0.0,0.0,0.0,0.0,3.8831,4.0646,4.3344,4.4158,4.4337,4.3898,4.1998,3.9461,3.6161,3.3928,0.0,0.0,0.0,0.0,0.0,0.0,0.0,0.0,0.0,0.0,0.0,0.0,0.0,0.0,0.0,0.0,0.0,0.0,0.0,0.0,0.0,0.0,0.0,0.0,0.0,0.0,0.0,0.0,0.0,0.0,0.0,0.0,0.0,0.0,0.0,0.0,0.0,0.0,0.0,0.0,0.0,0.0,0.0,0.0,0.0,0.0,0.0,0.0,0.0,0.0,0.0,0.0,0.0,0.0,0.0,0.0,0.0,0.0,0.0,0.0,0.0,0.0,0.0,0.0,0.0,0.0,0.0,0.0,0.0,0.0,0.0,0.0,0.0,0.0,0.0,0.0,0.0,0.0,0.0,0.0,0.0,0.0,0.0,0.0,0.0,0.0,0.0,0.0,0.0,0.0,0.0,0.0,0.0,0.0,0.0,0.0,0.0,0.0,0.0,0.0,0.0,0.0,3.9469,4.2208,4.3554,4.4598,4.4506,4.268,4.0508,3.7945,3.4816,3.2065,0.0,0.0,0.0,0.0,0.0,0.0,0.0,0.0,0.0,0.0,0.0,0.0,0.0,0.0,0.0,0.0,0.0,0.0,0.0,0.0,0.0,0.0,0.0,0.0,0.0,0.0,0.0,0.0,0.0,0.0,0.0,0.0,0.0,0.0,0.0,0.0,0.0,0.0,0.0,0.0,0.0,0.0,0.0,0.0,0.0,0.0,0.0,0.0,0.0,0.0,0.0,0.0,0.0,0.0,0.0,0.0,0.0,0.0,0.0,0.0,0.0,0.0,0.0,0.0,0.0,0.0,0.0,0.0,0.0,0.0,0.0,0.0,0.0,0.0,0.0,0.0,0.0,0.0,0.0,0.0,0.0,0.0,0.0,0.0,0.0,0.0,0.0,0.0,0.0,0.0,0.0,0.0,0.0,0.0,0.0,0.0,0.0,0.0,0.0,0.0,0.0,0.0,3.862,4.1236,4.3238,4.3479,4.3209,4.247,4.0494,3.8089,3.5296,0.0,0.0,0.0,0.0,0.0,0.0,0.0,0.0,0.0,0.0,0.0,0.0,0.0,0.0,0.0,0.0,0.0,0.0,0.0,0.0,0.0,0.0,0.0,0.0,0.0,0.0,0.0,0.0,0.0,0.0,0.0,0.0,0.0,0.0,0.0,0.0,0.0,0.0,0.0,0.0,0.0,0.0,0.0,0.0,0.0,0.0,0.0,0.0,0.0,0.0,0.0,0.0,0.0,0.0,0.0,0.0,0.0,0.0,0.0,0.0,0.0,0.0,0.0,0.0,0.0,0.0,0.0,0.0,0.0,0.0,0.0,0.0,0.0,0.0,0.0,0.0,0.0,0.0,0.0,0.0,0.0,0.0,0.0,0.0,0.0,0.0,0.0,0.0,0.0,0.0,0.0,0.0,0.0,0.0,0.0,0.0,0.0,0.0,0.0,0.0,0.0,0.0,3.5995,3.8577,4.1043,4.307,4.2771,4.2231,4.1802,3.9565,3.7225,3.5014,0.0,0.0,0.0,0.0,0.0,0.0,0.0,0.0,0.0,0.0,0.0,0.0,0.0,0.0,0.0,0.0,0.0,0.0,0.0,0.0,0.0,0.0,0.0,0.0,0.0,0.0,0.0,0.0,0.0,0.0,0.0,0.0,0.0,0.0,0.0,0.0,0.0,0.0,0.0,0.0,0.0,0.0,0.0,0.0,0.0,0.0,0.0,0.0,0.0,0.0,0.0,0.0,0.0,0.0,0.0,0.0,0.0,0.0,0.0,0.0,0.0,0.0,0.0,0.0,0.0,0.0,0.0,0.0,0.0,0.0,0.0,0.0,0.0,0.0,0.0,0.0,0.0,0.0,0.0,0.0,0.0,0.0,0.0,0.0,0.0,0.0,0.0,0.0,0.0,0.0,0.0,0.0,0.0,0.0,0.0,0.0,0.0,0.0,0.0,0.0,0.0,0.0,3.666,3.972,4.2103,4.317,4.2741,4.1862,4.0487,3.739,3.4922,0.0,0.0,0.0,0.0,0.0,0.0,0.0,0.0,0.0,0.0,0.0,0.0,0.0,0.0,0.0,0.0,0.0,0.0,0.0,0.0,0.0,0.0,0.0,0.0,0.0,0.0,0.0,0.0,0.0,0.0,0.0,0.0,0.0,0.0,0.0,0.0,0.0,0.0,0.0,0.0,0.0,0.0,0.0,0.0,0.0,0.0,0.0,0.0,0.0,0.0,0.0,0.0,0.0,0.0,0.0,0.0,0.0,0.0,0.0,0.0,0.0,0.0,0.0,0.0,0.0,0.0,0.0,0.0,0.0,0.0,0.0,0.0,0.0,0.0,0.0,0.0,0.0,0.0,0.0,0.0,0.0,0.0,0.0,0.0,0.0,0.0,0.0,0.0,0.0,0.0,0.0,0.0,0.0,0.0,0.0,0.0,0.0,0.0,0.0,0.0,0.0,0.0,0.0,3.6539,3.9529,4.179,4.2571,4.2092,4.1164,3.9819,3.7116,3.4743,3.2914,0.0,0.0,0.0,0.0,0.0,0.0,0.0,0.0,0.0,0.0,0.0,0.0,0.0,0.0,0.0,0.0,0.0,0.0,0.0,0.0,0.0,0.0,0.0,0.0,0.0,0.0,0.0,0.0,0.0,0.0,0.0,0.0,0.0,0.0,0.0,0.0,0.0,0.0,0.0,0.0,0.0,0.0,0.0,0.0,0.0,0.0,0.0,0.0,0.0,0.0,0.0,0.0,0.0,0.0,0.0,0.0,0.0,0.0,0.0,0.0,0.0,0.0,0.0,0.0,0.0,0.0,0.0,0.0,0.0,0.0,0.0,0.0,0.0,0.0,0.0,0.0,0.0,0.0,0.0,0.0,0.0,0.0,0.0,0.0,0.0,0.0,0.0,0.0,0.0,0.0,0.0,0.0,0.0,0.0,0.0,0.0,0.0,0.0,0.0,0.0,0.0,0.0,3.716,3.9538,4.1373,4.2291,4.1553,4.0466,3.911,3.6851,3.4652,3.2634,0.0,0.0,0.0,0.0,0.0,0.0,0.0,0.0,0.0,0.0,0.0,0.0,0.0,0.0,0.0,0.0,0.0,0.0,0.0,0.0,0.0,0.0,0.0,0.0,0.0,0.0,0.0,0.0,0.0,0.0,0.0,0.0,0.0,0.0,0.0,0.0,0.0,0.0,0.0,0.0,0.0,0.0,0.0,0.0,0.0,0.0,0.0,0.0,0.0,0.0,0.0,0.0,0.0,0.0,0.0,0.0,0.0,0.0,0.0,0.0,0.0,0.0,0.0,0.0,0.0,0.0,0.0,0.0,0.0,0.0,0.0,0.0,0.0,0.0,0.0,0.0,0.0,0.0,0.0,0.0,0.0,0.0,0.0,0.0,0.0,0.0,0.0,0.0,0.0,0.0,0.0,0.0,0.0,0.0,0.0,0.0,0.0,0.0,0.0,0.0,0.0,0.0,3.8196,3.9661,4.0885,4.2161,4.1154,3.9828,3.8431,3.6516,3.4566,3.2613,0.0,0.0,0.0,0.0,0.0,0.0,0.0,0.0,0.0,0.0,0.0,0.0,0.0,0.0,0.0,0.0,0.0,0.0,0.0,0.0,0.0,0.0,0.0,0.0,0.0,0.0,0.0,0.0,0.0,0.0,0.0,0.0,0.0,0.0,0.0,0.0,0.0,0.0,0.0,0.0,0.0,0.0,0.0,0.0,0.0,0.0,0.0,0.0,0.0,0.0,0.0,0.0,0.0,0.0,0.0,0.0,0.0,0.0,0.0,0.0,2.8961,2.8608,0.0,0.0,0.0,0.0,0.0,0.0,0.0,0.0,0.0,0.0,0.0,0.0,0.0,0.0,0.0,0.0,0.0,0.0,0.0,0.0,0.0,0.0,0.0,0.0,0.0,0.0,0.0,0.0,0.0,0.0,0.0,0.0,0.0,0.0,0.0,0.0,0.0,0.0,0.0,0.0,3.8096,3.9577,4.0705,4.1523,4.0885,3.9649,3.7764,3.5735,3.3965,3.2522,3.0154,0.0,0.0,0.0,0.0,0.0,0.0,0.0,0.0,0.0,0.0,0.0,0.0,0.0,0.0,0.0,0.0,0.0,0.0,0.0,0.0,0.0,0.0,0.0,0.0,0.0,0.0,0.0,0.0,0.0,0.0,0.0,0.0,0.0,0.0,0.0,0.0,0.0,0.0,0.0,0.0,0.0,0.0,0.0,0.0,0.0,0.0,0.0,0.0,0.0,0.0,0.0,0.0,0.0,0.0,0.0,0.0,0.0,0.0,0.0,3.0527,2.974,0.0,0.0,0.0,0.0,0.0,0.0,0.0,0.0,0.0,0.0,0.0,0.0,0.0,0.0,0.0,0.0,0.0,0.0,0.0,0.0,0.0,0.0,0.0,0.0,0.0,0.0,0.0,0.0,0.0,0.0,0.0,0.0,0.0,0.0,0.0,0.0,0.0,0.0,0.0,0.0,3.8086,3.929,4.0151,4.0703,3.9926,3.8777,3.7364,3.5672,3.4033,3.2492,3.0993,0.0,0.0,0.0,0.0,0.0,0.0,0.0,0.0,0.0,0.0,0.0,0.0,0.0,0.0,0.0,0.0,0.0,0.0,0.0,0.0,0.0,0.0,0.0,0.0,0.0,0.0,0.0,0.0,0.0,0.0,0.0,0.0,0.0,0.0,0.0,0.0,0.0,0.0,0.0,0.0,0.0,0.0,0.0,0.0,0.0,0.0,0.0,0.0,0.0,0.0,0.0,0.0,0.0,3.392,3.419,3.4521,3.4578,3.4642,3.4602,3.315,3.1911,3.0853,3.0627,0.0,0.0,0.0,0.0,0.0,0.0,0.0,0.0,0.0,0.0,0.0,0.0,0.0,0.0,0.0,0.0,0.0,0.0,0.0,0.0,0.0,0.0,3.1884,3.1775,3.2101,3.2028,3.0538,0.0,0.0,0.0,0.0,0.0,0.0,0.0,0.0,0.0,0.0,0.0,3.8248,3.9014,3.959,4.0226,3.9071,3.7919,3.6986,3.5773,3.4283,3.2455,3.198,3.1296,0.0,0.0,0.0,0.0,0.0,0.0,0.0,0.0,0.0,0.0,0.0,0.0,0.0,0.0,0.0,0.0,0.0,0.0,0.0,0.0,0.0,0.0,0.0,0.0,0.0,0.0,0.0,0.0,0.0,0.0,0.0,0.0,2.9957,2.9431,0.0,0.0,0.0,0.0,0.0,0.0,0.0,0.0,0.0,0.0,0.0,0.0,0.0,3.3719,3.4107,3.5906,3.6595,3.6144,3.7202,3.7452,3.7035,3.7035,3.7306,3.7805,3.7561,0.0,3.2644,3.1594,0.0,0.0,0.0,0.0,0.0,0.0,0.0,0.0,0.0,0.0,0.0,0.0,0.0,0.0,0.0,0.0,0.0,0.0,0.0,0.0,0.0,0.0,3.4215,3.3691,3.3466,3.3342,3.31,3.1658,3.0201,2.9512,2.9078,2.8904,0.0,0.0,0.0,0.0,0.0,0.0,3.9014,3.9196,3.9622,4.0852,3.9618,3.8009,3.6282,3.5399,3.414,3.2263,3.101,3.0516,3.0878,3.038,0.0,0.0,0.0,0.0,0.0,0.0,0.0,0.0,0.0,0.0,0.0,0.0,0.0,0.0,0.0,0.0,0.0,0.0,0.0,0.0,0.0,0.0,0.0,0.0,0.0,0.0,0.0,0.0,0.0,3.0156,3.0563,2.9602,3.0318,3.031,0.0,0.0,0.0,0.0,0.0,0.0,0.0,0.0,0.0,3.4136,3.5683,3.6595,3.6829,3.8277,3.9063,3.9145,3.9163,3.9231,3.9301,3.9154,3.9221,3.9462,3.9462,3.8213,3.608,3.4426,3.3196,3.2237,0.0,0.0,0.0,0.0,3.1929,3.201,3.2652,3.2264,3.1621,3.2128,0.0,0.0,0.0,0.0,0.0,0.0,0.0,3.2634,3.2288,3.3896,3.5538,3.5127,3.5223,3.5322,3.4964,3.3901,3.2432,3.0485,3.0581,3.067,2.9709,3.0152,0.0,0.0,0.0,3.6865,3.8325,3.9195,3.9787,4.0153,3.8524,3.6959,3.5923,3.4405,3.3092,3.2155,3.1156,3.0712,3.0983,3.0738,3.0598,0.0,0.0,0.0,0.0,0.0,0.0,0.0,0.0,0.0,0.0,0.0,0.0,0.0,0.0,0.0,0.0,0.0,0.0,0.0,0.0,0.0,0.0,0.0,0.0,0.0,0.0,0.0,0.0,3.1018,3.1369,3.0025,3.1306,3.1451,0.0,0.0,0.0,0.0,0.0,0.0,3.4748,3.5679,3.6499,3.7157,3.8655,3.9568,3.9786,4.0673,4.1278,4.1575,4.0928,4.0753,4.106,4.0858,4.0763,4.0763,4.0763,4.0177,3.9104,3.7042,3.5248,3.3765,3.3218,3.3102,3.3301,3.3734,3.3896,3.4005,3.4637,3.4126,3.3256,3.3401,3.2769,3.1857,3.126,0.0,0.0,0.0,0.0,3.3742,3.4007,3.5234,3.6411,3.6364,3.6662,3.6842,3.6369,3.5801,3.458,3.1831,3.2053,3.2208,3.0654,3.0928,0.0,3.2716,3.4945,3.689,3.8026,3.8938,3.945,3.9431,3.759,3.6075,3.5368,3.3672,3.2468,3.2059,3.1372,3.0992,3.0992,3.0992,3.0992,3.0992,0.0,0.0,0.0,0.0,0.0,0.0,0.0,0.0,0.0,0.0,0.0,0.0,0.0,0.0,0.0,0.0,0.0,0.0,0.0,0.0,0.0,0.0,0.0,0.0,0.0,0.0,0.0,0.0,0.0,3.103,3.3355,0.0,0.0,0.0,0.0,3.3708,3.5869,3.7225,3.7296,3.8993,4.0332,4.1188,4.1908,4.2698,4.3532,4.3585,4.3371,4.2902,4.2863,4.2543,4.2022,4.201,4.201,4.201,4.201,4.1651,4.0881,3.8477,3.6801,3.5725,3.5323,3.5523,3.6101,3.607,3.608,3.6016,3.526,3.436,3.3663,3.4246,3.4131,3.3673,3.3123,3.3322,0.0,0.0,3.4118,3.5298,3.5305,3.6052,3.6924,3.7477,3.7482,3.7364,3.7338,3.6863,3.578,3.3595,3.2763,3.2334,3.2021,0.0,3.3965,3.4163,3.5936,3.7721,3.9046,3.834,3.81,3.9106,3.7571,3.5903,3.4396,3.366,3.2841,3.1884,3.1306,3.0992,3.0992,3.0992,3.0992,3.0992,3.0992,0.0,0.0,0.0,0.0,0.0,0.0,0.0,0.0,0.0,0.0,0.0,0.0,0.0,0.0,0.0,0.0,0.0,0.0,0.0,0.0,0.0,0.0,0.0,0.0,0.0,0.0,0.0,0.0,3.4922,3.6838,0.0,3.5172,3.5744,3.6557,3.7317,3.8675,4.0003,4.116,4.2387,4.3348,4.4049,4.4661,4.5169,4.5462,4.5116,4.4876,4.4649,4.3711,4.3144,4.2932,4.2754,4.248,4.2163,4.2163,4.1597,4.0639,4.0168,3.9254,3.8093,3.7585,3.7298,3.7197,3.7175,3.7186,3.7106,3.6407,3.5922,3.5599,3.5217,3.4996,3.484,3.4644,3.4715,3.4854,3.4902,3.5871,3.6935,3.7167,3.7986,3.8825,3.89,3.8859,3.8813,3.8813,3.8341,3.7603,3.6477,3.5279,3.4254,3.3693,3.3869,3.4215,3.4622,3.598,3.7232,3.7918,3.816,3.8177,3.8062,3.6621,3.5198,3.4032,3.3026,3.222,3.1646,3.1237,3.0992,3.0992,3.0992,3.0992,3.0992,3.0992,3.0992,0.0,0.0,0.0,0.0,0.0,0.0,0.0,0.0,0.0,0.0,0.0,0.0,0.0,0.0,0.0,0.0,0.0,0.0,0.0,0.0,0.0,0.0,0.0,0.0,0.0,3.5761,3.7532,3.7729,3.9687,4.0326,3.8596,3.9157,3.996,4.0753,4.1906,4.3081,4.427,4.5102,4.5754,4.6256,4.6469,4.6613,4.6715,4.6174,4.5711,4.5274,4.4322,4.3651,4.3244,4.3088,4.2801,4.2461,4.2264,4.1741,4.101,4.1207,4.0921,4.0276,3.9564,3.9069,3.8762,3.8762,3.8629,3.8349,3.7553,3.7033,3.6651,3.6288,3.6041,3.5853,3.5853,3.6158,3.6528,3.6748,3.7597,3.8489,3.8711,3.9292,3.9764,3.9623,3.9587,3.9587,3.9587,3.9273,3.8907,3.8542,3.7176,3.586,3.5242,3.52,3.5384,3.5711,3.6512,3.7224,3.7686,3.7797,3.7707,3.7294,3.5911,3.4667,3.3757,3.2751,3.1938,3.1422,3.1257,3.1078,3.0905,3.0971,3.0992,3.0992,3.0992,3.0992,3.0992,0.0,0.0,0.0,0.0,0.0,0.0,0.0,0.0,0.0,0.0,0.0,0.0,0.0,0.0,0.0,0.0,0.0,0.0,0.0,0.0,0.0,0.0,0.0,3.5263,3.7979,3.9833,3.9283,4.1794,4.2738,4.0646,4.2578,4.3972,4.3972,4.5528,4.6512,4.6512,4.7058,4.7517,4.7831,4.7289,4.7122,4.7359,4.6813,4.5964,4.4799,4.4773,4.4172,4.3101,4.3101,4.3075,4.3023,4.2526,4.2277,4.2172,4.1585,4.1664,4.2133,4.1192,4.083,4.0803,4.0803,4.0458,3.9835,3.865,3.7516,3.6726,3.7506,3.7359,3.6891,3.6891,3.7701,3.8644,3.8633,3.9235,3.9919,3.9919,3.9793,3.9639,3.9639,3.9639,3.9639,3.9639,3.9639,3.9613,3.9613,3.8254,3.6988,3.6743,3.7149,3.754,3.7531,3.7573,0.0,3.8484,3.73,3.6566,3.691,3.563,3.4377,3.348,3.2851,3.2133,3.1271,3.138,3.1238,3.0733,3.0905,3.0992,3.0992,3.0992,3.0992,3.0992,0.0,0.0,0.0,0.0,0.0,0.0,0.0,0.0,0.0,0.0,0.0,0.0,0.0,0.0,0.0,0.0,0.0,0.0,0.0,0.0,0.0,3.7427,3.9515,3.8861,4.1232,4.3282,4.4006,4.5917,4.6845,4.6086,4.6938,4.7564,4.7564,4.8242,4.8657,4.8657,4.8995,4.9058,4.8749,4.8958,4.8914,4.8616,4.803,4.7559,4.7231,4.6395,4.5834,4.5546,4.5546,4.5062,4.4225,4.4134,4.3585,4.2735,4.2173,4.2278,4.2657,4.1596,4.115,4.1097,4.0678,4.0166,3.9654,3.9328,3.9013,3.8824,3.9178,3.918,3.9048,3.9048,3.9286,3.9515,3.9377,3.9769,4.0259,4.0259,4.055,4.0841,4.0841,4.0841,4.0841,4.0841,4.0501,4.0188,4.0188,3.9313,3.8572,3.8489,3.8296,3.8136,3.8155,3.8009,3.7821,3.7597,3.7228,3.6702,3.5987,3.553,3.4876,3.3859,3.2994,3.23,3.1805,3.1235,3.091,3.0924,3.0981,3.0992,3.0992,3.0992,3.0992,0.0,0.0,0.0,0.0,0.0,0.0,0.0,0.0,0.0,0.0,0.0,0.0,0.0,0.0,0.0,0.0,0.0,0.0,0.0,0.0,0.0,0.0,4.1046,4.3542,4.37,4.4967,4.6224,4.7197,4.8393,4.9071,4.8916,4.9194,4.9379,4.9379,4.9559,4.9654,4.9654,4.982,4.9755,4.9442,4.9755,4.9755,4.9442,4.9102,4.8683,4.8187,4.7533,4.6958,4.6501,4.6501,4.6121,4.5454,4.5218,4.4578,4.3689,4.3141,4.3088,4.3232,0.0,0.0,0.0,0.0,4.0214,3.9927,3.9927,3.9796,3.9663,3.9991,3.996,3.9776,3.9776,3.9934,4.0081,3.9975,4.0345,4.0789,4.0789,4.105,4.1311,4.1311,4.1311,4.1311,4.1311,4.1024,4.0726,4.0627,4.0132,0.0,3.9604,3.9102,3.8778,3.8931,3.8617,3.8253,3.7952,3.7701,3.7186,3.6309,3.6019,3.5342,3.4022,3.319,0.0,0.0,0.0,3.0797,3.0868,3.0971,0.0,0.0,0.0,3.0992,3.0992,3.1235,0.0,0.0,3.1113,3.1113,0.0,0.0,0.0,0.0,0.0,0.0,0.0,0.0,0.0,0.0,0.0,0.0,0.0,0.0,0.0,0.0,4.4878,4.76,4.877,4.8842,4.8919,4.9259,4.9886,5.0278,5.02,5.0237,5.0289,5.0289,5.0289,5.0289,5.0289,5.0289,0.0,0.0,0.0,5.0174,5.0095,5.0028,4.9479,4.85,4.8422,4.7847,4.6879,4.6827,4.6749,4.6644,4.6041,4.5452,4.4865,4.4239,4.3912,4.3637,4.2108,4.1768,4.2055,4.0932,4.0501,4.0501,4.0501,0.0,0.0,4.0345,4.0188,3.9796,3.9796,4.0136,4.0501,4.0501,4.0893,4.1311,4.1311,4.1311,4.1311,4.1311,4.1311,4.1311,4.1311,4.1286,4.1173,4.0959,4.0656,4.0377,4.0147,3.9639,3.9361,3.966,3.9283,3.8969,3.8894,3.8429,3.7889,3.7349,3.6808,0.0,3.4223,3.3531,3.2512,3.0919,3.0877,3.0867,3.0705,3.0877,3.099,3.0992,3.1061,3.1087,3.1087,3.1634,3.1902,3.1876,3.1418,3.1444,0.0,0.0,0.0,0.0,0.0,0.0,0.0,0.0,0.0,0.0,0.0,0.0,0.0,0.0,0.0,4.3925,4.7288,4.9962,5.0893,5.181,5.1925,5.0618,5.1805,5.2537,5.204,5.2433,5.272,5.272,5.272,5.272,5.272,5.272,5.2485,5.2014,5.1988,5.1753,5.1282,5.0838,5.0514,5.0304,4.9808,0.0,4.9232,4.8788,4.8317,4.7847,4.7243,4.6668,4.6069,4.5063,4.4056,4.3141,4.2801,4.2474,4.2107,4.1402,4.1129,4.1129,4.1129,4.105,4.0998,4.1102,4.105,4.0972,4.0972,4.105,0.0,4.1129,4.1207,4.1311,4.1311,4.1311,4.1311,4.1311,4.1311,4.1311,4.1311,4.1122,4.0972,4.0921,4.0516,4.0173,4.0121,3.9828,3.9636,3.9685,3.9609,3.9383,3.8944,3.8793,3.8504,3.7914,3.7374,3.6533,3.5294,3.4288,3.3284,3.2186,3.1517,3.1006,3.0714,3.0736,3.084,3.0992,3.1425,3.165,3.165,3.2244,3.2542,3.2515,3.2421,3.2421,0.0,0.0,0.0,0.0,0.0,0.0,0.0,0.0,0.0,0.0,0.0,3.8189,4.0431,0.0,4.5381,4.7736,5.0221,5.1999,5.2448,5.3504,5.3713,5.2276,5.2877,5.3269,5.2981,5.3217,5.34,5.34,5.34,5.34,5.34,5.34,5.3269,5.2955,5.2642,5.2354,5.204,5.1779,5.1361,5.0801,5.0775,5.0446,4.9886,4.9625,4.9337,4.9023,4.8747,4.812,4.7245,4.5794,4.4839,4.4225,4.3676,4.3101,4.2539,4.1951,4.1755,4.1729,4.139,4.1311,4.1311,4.1311,4.1311,4.1311,4.1311,4.1311,4.1311,4.1311,4.1533,4.1664,4.139,4.1533,4.1755,4.1755,4.1533,4.143,4.1864,4.1594,4.1298,4.1299,4.0886,4.0552,4.0673,4.014,3.9697,3.9697,3.9697,3.9609,3.9333,3.9283,3.9082,3.8504,3.8203,3.7475,3.6081,3.4449,3.3072,3.2023,3.163,3.1442,3.1386,3.1503,3.1659,3.1846,3.2114,3.2235,3.2235,3.2855,3.3284,3.3571,3.3859,3.3702,0.0,0.0,0.0,0.0,0.0,0.0,0.0,3.5046,3.6315,3.8439,4.0307,4.2383,4.505,4.7082,4.9048,5.1112,5.2644,5.3556,5.3556,5.4445,5.4759,5.3844,5.3739,5.3739,5.3739,5.3739,5.3739,5.3739,5.3739,5.3739,5.3739,5.3739,5.3739,5.3739,5.3138,5.2825,5.2825,5.272,5.2276,5.1481,5.1884,5.157,5.0592,5.0461,5.0263,5.0069,4.9949,4.9259,4.8082,4.6668,4.5975,4.5675,4.4617,4.3938,4.3428,4.2644,4.2369,4.2278,4.169,4.1468,4.1468,4.1468,4.1468,4.1494,4.1599,4.1625,4.1625,4.1625,4.1977,4.2238,4.1638,4.1912,4.2317,4.2212,4.1861,4.1734,4.2449,4.2125,4.1697,4.1709,4.1311,4.1053,4.1254,4.0588,4.0023,4.0023,3.9823,3.9747,3.9848,3.9747,3.9534,3.9095,3.8969,3.8215,3.6544,3.4648,3.3054,3.1798,3.1882,3.1996,3.2085,3.2266,3.2502,3.2855,3.297,3.3101,3.3205,3.3806,3.4303,3.4737,3.518,3.493,3.1167,3.1782,3.3059,3.4782,3.5184,3.6355,0.0,4.1173,4.1288,4.4585,4.5873,4.6906,4.8543,4.9923,5.115,5.2187,5.3337,5.4105,5.4105,5.468,5.5046,5.4916,5.4916,5.4916,5.4916,5.4916,5.4916,5.4916,5.4916,5.4916,5.4916,5.4916,5.4916,5.4916,5.4314,5.4001,5.4001,5.353,5.3478,5.3818,5.387,5.3583,5.2981,5.2459,5.1648,5.067,5.0132,4.9259,4.8187,4.7977,4.7324,4.633,4.5675,4.5374,4.5113,4.3506,4.2905,4.2827,4.2278,4.2107,4.2107,4.2107,4.2107,4.2186,4.267,4.2814,4.2814,4.2814,4.2879,4.2775,4.2238,4.25,4.2775,4.2317,4.2333,4.2488,4.2591,4.2131,4.1696,4.1705,4.1466,4.1254,4.1289,4.1188,4.1113,4.1113,4.0312,3.9873,4.0337,3.9998,3.9685,3.9635,3.9183,3.8215,3.6544,3.5668,3.4577,3.3014,3.2935,3.2697,3.2137,3.2115,3.2559,3.3483,3.3963,3.4476,3.4999,3.5547,3.5861,3.5913,3.5788,3.5784,3.3564,3.4266,3.5256,3.6676,3.8372,4.0289,4.2502,4.3736,4.5022,4.7189,4.8764,5.0262,5.1899,5.2607,5.3267,5.4305,5.4628,5.4733,5.4733,5.4942,5.4968,5.4628,5.4889,5.5099,5.5099,5.5099,5.5099,5.5099,5.5099,5.5099,5.5099,5.5099,5.5099,5.5099,5.4524,5.421,5.421,5.3975,5.3818,5.3739,5.4419,5.4262,5.34,5.3452,5.2877,5.1727,5.0812,4.9949,4.9154,4.8474,4.7702,4.6903,4.6342,4.591,4.5426,4.4042,4.3533,4.3454,4.2866,4.2657,4.2605,4.2291,4.2199,4.2238,4.2461,4.2539,4.2605,4.2905,4.2997,4.2958,4.2709,4.2827,4.2984,4.2918,4.2761,4.2692,4.2989,4.2617,4.2273,4.2413,4.2114,4.1907,4.2233,4.1729,4.1528,4.2183,4.1341,4.07,4.0951,4.0512,4.0049,3.9722,3.922,3.8467,3.7424,3.681,3.5919,3.4577,3.4502,3.4336,3.4027,3.4012,3.4349,3.504,3.5286,3.5521,3.5757,3.5992,3.6279,3.6608,3.6389,3.6515,3.4983,3.5939,3.705,3.8494,4.1189,4.3711,4.4441,4.6432,4.8498,4.9853,5.1302,5.2746,5.4184,5.4445,5.4759,5.5752,5.5569,5.5334,5.5334,5.5203,5.4811,5.4079,5.421,5.4445,5.4602,5.4916,5.5099,5.5099,5.5099,5.5099,5.5099,5.5099,5.5099,5.5099,5.468,5.4445,5.4445,5.4445,5.4341,5.4105,5.5099,5.4968,5.387,5.3766,5.3191,5.2197,5.1361,5.0697,5.0095,4.9259,4.8486,4.7739,4.7193,4.6604,4.5949,4.4971,4.4409,4.4056,4.3441,4.3245,4.3167,4.2787,4.267,4.2683,4.2827,4.2879,4.2984,4.3376,4.3598,4.3624,4.3323,4.3427,4.3569,4.3433,4.3105,4.2942,4.3325,4.3047,4.2771,4.2967,4.2688,4.2537,4.2925,4.2308,4.2044,4.2875,4.2308,4.1717,4.1567,4.0926,4.0287,3.976,3.9358,3.8881,3.8303,3.7902,3.7186,3.6058,3.5832,3.569,3.5542,3.5397,3.5605,3.6221,3.6248,3.637,3.6593,3.6515,3.6702,3.7133,3.679,3.6848,3.4663,3.598,3.7881,4.0392,4.3039,4.5758,4.855,5.0382,5.1952,5.3677,5.4079,5.4314,5.4968,5.5072,5.5255,5.583,5.5883,5.5883,5.5883,5.5438,5.468,5.3556,5.2929,5.2798,5.34,5.4445,5.5099,5.5099,5.5099,5.5099,5.5099,5.5099,5.5099,5.5099,5.5072,5.5072,5.5072,5.5072,5.5334,5.583,5.6458,5.6153,5.4994,5.3321,5.2197,5.1622,5.1596,5.1256,5.0775,5.0749,5.0069,4.8997,4.837,4.778,4.7176,4.6644,4.5689,4.4604,4.4056,4.386,4.386,4.386,4.3834,4.3938,4.4473,4.4616,4.4616,4.4643,4.506,4.5283,4.416,4.4493,4.4846,4.3678,4.3373,4.3383,4.3395,4.3198,4.2989,4.2989,4.2989,4.2975,4.3014,4.2975,4.295,4.2989,4.2975,4.2763,4.2249,4.1178,4.0287,3.976,3.9685,3.9459,3.8919,3.8843,3.8366,3.7223,3.6658,3.6235,3.59,3.539,3.5564,3.6562,3.6588,3.7009,3.7836,3.7569,3.7465,3.7468,3.6943,3.6721,3.6553,3.876,4.1249,4.4151,4.6596,4.8839,5.0961,5.2418,5.3504,5.4079,5.3269,5.2772,5.3792,5.3321,5.3086,5.4079,5.4889,5.536,5.536,5.5229,5.468,5.353,5.3896,5.4001,5.3452,5.3501,5.4015,5.503,5.4663,5.457,5.5065,5.4647,5.4469,5.4679,5.4486,5.4486,5.4695,5.4486,5.4564,5.4981,5.5189,5.5293,5.5241,5.4147,5.3321,5.2772,5.238,5.1675,5.0775,5.0383,4.9782,4.9049,4.8448,4.7832,4.7281,4.7112,4.6552,4.5872,4.569,4.5474,4.5242,4.4825,4.4584,4.4444,4.465,4.4702,4.4779,4.514,4.5114,4.4908,4.4535,4.4646,4.4715,4.4135,4.4271,4.4466,4.4252,4.3836,4.3528,4.3528,4.3226,4.3014,4.3014,4.3014,4.3014,4.3014,4.3014,4.2813,4.2274,4.1858,4.1267,4.0337,4.0236,4.0023,3.9484,3.9434,3.912,3.8366,3.8165,3.7924,3.7561,3.7382,3.7537,3.8049,3.8049,3.8188,3.8489,3.8008,3.7972,3.8357,3.7625,3.7495,3.8962,4.1645,4.4423,4.7207,4.9374,5.1246,5.2746,5.3844,5.4419,5.4001,5.2668,5.1701,5.2067,5.1021,5.0524,5.191,5.2589,5.3321,5.4341,5.4314,5.3975,5.3452,5.3844,5.3975,5.3452,5.304,5.3376,5.4777,5.4335,5.4216,5.4671,5.425,5.414,5.4494,5.4157,5.4157,5.4511,5.4157,5.426,5.4821,5.4588,5.4656,5.4946,5.4242,5.3609,5.3034,5.2433,5.1899,5.1361,5.0637,4.9887,4.9173,4.8778,4.808,4.729,4.7522,4.7342,4.6894,4.6616,4.629,4.5929,4.5553,4.5213,4.4999,4.4999,4.4999,4.5076,4.5409,4.5409,4.5255,4.505,4.5067,4.5041,4.4656,4.4755,4.485,4.4647,4.4328,4.4027,4.384,4.3528,4.3226,4.3025,4.3014,4.3014,4.3014,4.3014,4.2813,4.2274,4.2199,4.1758,4.0613,4.0512,4.0287,3.9747,3.9697,3.9559,3.922,3.8994,3.8806,3.859,3.8362,3.8372,3.8654,3.8654,3.8703,3.8789,3.8308,3.8285,3.8654,3.8029,3.7933,4.182,4.4566,4.7298,4.952,5.1335,5.2877,5.3949,5.4602,5.4628,5.3452,5.2171,5.0917,4.9808,4.8314,4.7818,4.9531,4.9572,5.0315,5.3122,5.3018,5.2845,5.342,0.0,0.0,0.0,5.3147,5.3374,5.4409,5.4192,5.4005,5.4014,5.3988,5.4141,5.4443,5.4106,5.4089,5.446,5.4123,5.4406,5.5271,5.4702,5.436,5.417,5.3681,5.3122,5.2511,5.192,5.1972,5.2391,5.1438,5.0406,4.9453,4.9407,4.8513,4.7331,4.7961,4.7979,4.7577,4.6801,4.6325,4.607,4.6056,4.5802,4.5545,4.5545,4.5545,4.5545,4.5545,4.5954,4.6276,4.5647,4.5712,4.5798,4.5255,4.4897,4.4704,4.4704,4.4665,4.4503,4.3991,4.384,4.3639,4.3126,4.3014,4.3014,4.3014,4.3014,4.2813,4.2299,4.2249,4.1808,4.0713,4.0563,4.0312,3.9798,3.9735,3.9697,3.9697,3.922,3.8944,3.8944,3.8391,3.8201,3.8461,3.8473,3.8596,3.8854,3.8558,3.8448,3.8461,3.8176,3.8065,4.5388,4.8094,5.067,5.2135,5.3138,5.3844,5.4131,5.3661,5.272,5.1126,4.8527,4.6318,4.556,4.6121,4.7141,4.8422,5.1021,5.3371,5.4695,5.4749,5.4723,5.4879,0.0,5.4991,5.4282,5.467,5.4808,5.438,5.4276,5.4167,5.4022,5.3867,5.3755,5.3768,5.3367,5.335,5.3742,5.3682,5.3605,5.3544,5.3682,5.3852,5.4052,5.4165,5.3833,5.3148,5.2708,5.2246,5.1732,5.0607,5.01,5.0007,4.9317,4.8548,4.7902,4.8067,4.7784,4.7287,4.7078,4.6986,4.6869,4.6659,4.6364,4.6097,4.6097,4.6097,4.6097,4.6097,4.6198,4.6198,4.5632,4.5851,4.6054,4.5529,4.5632,4.5859,4.5859,4.5533,4.5221,4.5085,4.4367,4.3765,4.3614,4.3251,4.3014,4.3014,4.3014,4.2964,4.2813,4.2788,4.2537,4.1833,4.1366,4.0876,4.0337,3.9923,3.9697,3.9697,3.9584,3.9509,3.9509,3.9358,3.9308,3.9372,3.9372,3.9398,3.9461,3.9007,3.8982,3.9372,3.8894,3.8881,4.8262,5.076,5.2903,5.3583,5.4184,5.4262,5.2981,5.2197,5.0984,4.8239,4.5703,4.3755,4.2905,4.3768,4.5049,4.6447,4.9277,5.201,5.3967,5.4468,5.4882,0.0,5.6021,0.0,5.5322,5.5494,5.5368,5.4696,5.4513,5.4277,5.3885,5.3758,5.363,5.3503,5.3101,5.3015,5.3238,5.3238,5.3204,5.317,5.3392,5.3555,5.3612,5.3981,5.3699,5.2903,5.2602,5.211,5.1462,5.0367,4.9914,4.9805,4.9239,4.8625,4.8039,4.8355,4.7986,4.7406,4.7646,4.7585,4.7299,4.6916,4.6581,4.6336,4.6587,4.6662,4.6712,4.6938,4.6988,4.6913,4.6627,4.6587,4.6637,4.6577,4.6426,4.6361,4.6612,4.6225,4.5773,4.5562,4.4769,4.4077,4.384,4.3539,4.3277,4.3039,4.3014,4.3014,4.3014,4.3014,4.2788,4.2249,4.1656,4.1088,4.0563,4.0023,3.9697,3.9697,3.9697,3.9697,3.9697,3.9697,3.9697,3.9697,3.9697,3.9697,3.9697,3.9383,3.9409,3.9697,3.9383,3.9409,5.0906,5.2798,5.4341,5.4419,5.4654,5.4131,5.1324,5.0368,4.9008,4.5128,4.331,4.2121,4.105,4.1573,4.2749,4.4549,4.6584,4.913,5.2607,5.3509,5.4438,5.6183,5.6312,5.6278,5.6278,5.604,5.5671,5.5267,5.5041,5.4604,5.3858,5.3808,5.3688,5.3435,5.3084,5.2895,5.2895,5.2895,5.3084,5.341,5.341,5.3326,5.3162,5.3513,5.3204,5.2391,5.2171,5.1846,5.1418,5.0514,4.9853,4.9393,4.9289,4.8746,4.8096,4.867,4.836,4.7709,4.8175,4.8038,4.7557,4.7101,4.6753,4.6587,4.7089,4.7199,4.7299,4.7767,4.7908,4.7908,4.7908,4.7566,4.7324,4.7792,4.7189,4.6637,4.7114,4.6772,4.625,4.5698,4.5121,4.4579,4.4116,4.389,4.3639,4.3176,4.3065,4.3014,4.3014,4.3014,4.2813,4.235,4.1781,4.1227,4.0777,4.0224,3.9923,3.9923,3.9923,3.9873,3.9798,3.9873,3.9848,3.9697,3.9772,3.9772,3.9697,3.9697,3.9697,3.9697,3.9697,3.9697,5.387,5.4654,5.5046,5.5474,5.4654,5.306,5.0618,4.821,0.0,4.254,4.058,3.9247,3.8606,4.0342,4.2696,4.5296,4.7792,5.0649,5.4183,5.4784,5.5489,5.7168,5.6957,5.6695,5.6695,5.7037,5.6913,5.6077,5.6363,5.5968,5.4522,5.4429,5.3994,5.3023,5.2947,5.2895,5.2895,5.2895,5.2947,5.2998,5.2998,5.3154,5.3428,5.3496,5.3325,5.2931,5.2629,5.2075,5.1353,5.0644,5.021,4.9929,4.9632,4.9177,4.8667,4.8753,4.8416,4.786,4.796,4.7935,4.7835,4.7734,4.7678,4.7657,4.7716,4.7767,4.7767,4.7867,4.7908,4.7908,4.7908,4.7817,4.7767,4.7867,4.7757,4.7657,4.7741,4.734,4.6798,4.6261,4.5723,4.5296,4.5236,4.4418,4.3765,4.3678,4.3277,4.3014,4.3014,4.3014,4.295,4.2864,4.2361,4.2009,4.1909,4.1366,4.1026,4.1026,4.1026,4.0826,4.0387,4.0775,4.0613,3.9735,4.0149,4.0149,3.9697,3.9697,3.9697,3.9697,3.9697,3.9697,5.5229,5.5517,5.5595,5.5857,5.4419,5.2014,4.8486,0.0,0.0,3.977,3.8385,3.7836,3.79,3.9882,4.206,4.3724,4.5991,4.8871,5.2587,5.3538,5.4797,5.7316,5.762,5.7627,5.7627,5.7714,5.7434,5.6652,5.7154,5.6872,5.5509,5.4604,5.3884,5.3339,5.3063,5.2895,5.2895,5.2895,5.2895,5.2895,5.2895,5.2998,5.3187,5.3392,5.3156,5.259,5.2599,5.2117,5.1298,5.0675,5.035,5.0203,4.978,4.9455,4.9229,4.9229,4.8853,4.8426,4.8686,4.8586,4.841,4.8686,4.8385,4.7958,4.8275,4.8375,4.8426,4.8711,4.8786,4.8786,4.8786,4.856,4.8451,4.8711,4.8335,4.7817,4.7541,4.7064,4.6612,4.6336,4.61,4.5824,4.5562,4.506,4.4568,4.4252,4.3765,4.3427,4.3427,4.3176,4.3014,4.3014,4.2526,4.2199,4.2199,4.1656,4.1289,4.1289,4.1289,4.1188,4.0926,4.1163,4.1076,4.0538,4.0512,4.0512,4.0538,4.0236,4.0124,4.0111,4.0412,4.0387,5.5944,5.6013,5.5935,5.6049,5.4001,5.0864,4.672,4.4055,4.1442,3.7926,3.709,3.7194,3.7795,3.9408,4.0963,4.1914,4.3734,4.6444,5.0452,5.2022,5.3907,5.7086,5.7953,5.8358,5.844,5.8121,5.775,5.7387,5.77,5.7399,5.6251,5.4737,5.3833,5.3708,5.3188,5.2895,5.2895,5.2895,5.2895,5.2895,5.2895,5.2895,5.2912,5.3221,5.2977,5.2277,5.254,5.2144,5.1264,5.0904,5.0553,5.0201,4.9891,4.9766,4.9766,4.9766,4.9581,4.9396,4.9832,4.9606,4.9204,4.9615,4.9088,4.836,4.8827,4.8969,4.9053,4.948,4.959,4.959,4.959,4.928,4.9079,4.9506,4.8912,4.8043,4.7274,4.6772,4.6411,4.616,4.6125,4.6024,4.5723,4.5587,4.5321,4.4855,4.4328,4.3966,4.3966,4.3589,4.3352,4.3352,4.2763,4.2324,4.2199,4.1982,4.1729,4.1517,4.1704,4.1729,4.1503,4.1603,4.1553,4.1314,4.1014,4.1014,4.1289,4.0876,4.0675,4.0675,4.1088,4.1063,5.6562,5.6327,5.6023,5.6571,5.34,4.9494,4.6984,0.0,4.0109,3.8214,3.7377,3.7194,3.7795,3.8253,3.9255,4.1311,4.2755,4.5117,4.9492,5.1699,5.3919,5.6714,5.7587,5.8158,5.8642,5.8221,5.8077,5.851,5.8133,5.7399,5.6251,5.5132,5.4253,5.3708,5.3188,5.2895,5.2895,5.2895,5.2895,5.2895,5.2895,5.2895,5.2895,5.2947,5.2904,5.2837,5.2854,5.2268,5.1339,5.1774,5.1046,4.9715,5.0167,5.0327,5.0327,5.0327,5.0645,5.1063,5.1113,5.0745,5.0252,5.0302,4.9941,4.9439,4.9515,4.9531,4.9556,4.9606,4.959,4.959,4.959,4.9565,4.9556,4.959,4.9515,4.9012,4.7425,4.7074,4.6722,4.5748,4.5587,4.5698,4.615,4.5824,4.5487,4.5437,4.4905,4.4529,4.4529,4.4478,4.4439,4.4439,4.3553,4.2738,4.2249,4.3051,4.3137,4.2174,4.3025,4.3137,4.2174,4.2587,4.2359,4.1314,4.1795,4.1795,4.1289,4.1239,4.1214,4.1214,4.1264,4.1264,5.6379,5.6876,5.6945,5.6824,5.3086,4.8814,4.6499,0.0,3.8986,3.7639,3.7168,3.7194,3.7795,3.799,3.8385,3.9437,3.9889,4.147,4.5468,4.7424,5.0076,5.4494,5.61,5.7499,5.9031,5.8981,5.883,5.871,5.8183,5.7549,5.6728,5.5358,5.4496,5.4253,5.3364,5.2895,5.2895,5.2895,5.2895,5.2895,5.2895,5.2895,5.2895,5.2895,5.2895,5.2895,5.2895,5.2661,5.2234,5.2151,5.1724,5.1096,5.0971,5.0946,5.0946,5.0946,5.1071,5.1289,5.1289,5.0896,5.0402,5.0402,5.0042,4.9665,4.9992,5.0076,5.0076,5.0076,5.0076,5.0017,4.9665,4.959,4.959,4.959,4.9355,4.8928,4.8275,4.733,4.6486,4.606,4.5723,4.5562,4.5773,4.5899,4.5974,4.5974,4.5497,4.5006,4.4654,4.4589,4.4478,4.4152,4.4041,4.389,4.3664,4.4027,4.3966,4.3201,4.3865,4.379,4.2738,4.3201,4.3126,4.2333,4.2235,4.2235,4.2333,4.1982,4.1845,4.1845,4.2183,4.2158,5.5465,5.6606,5.7102,5.6876,5.2772,4.8303,4.6302,4.2278,3.8646,3.7496,3.7273,3.7403,3.7821,3.79,3.7961,3.8143,3.8301,3.9585,4.3007,4.4785,4.7531,5.2402,5.4185,5.5917,5.8303,5.9106,5.9207,5.8529,5.8127,5.765,5.7035,5.5616,5.4773,5.4622,5.3658,5.3063,5.2895,5.2895,5.2895,5.2895,5.2895,5.2895,5.2895,5.2895,5.2895,5.2895,5.2895,5.2795,5.2661,5.2435,5.2151,5.185,5.1615,5.154,5.154,5.154,5.1641,5.1774,5.1774,5.1398,5.0904,5.0904,5.0419,4.9967,5.0678,5.0653,5.0402,5.0402,5.0277,5.0076,4.969,4.959,4.959,4.959,4.9305,4.8928,4.8601,4.7481,4.6486,4.6336,4.5999,4.5773,4.5949,4.6426,4.6763,4.6763,4.6451,4.5999,4.5417,4.5342,4.5192,4.4805,4.498,4.4905,4.4403,4.4679,4.4554,4.384,4.4303,4.4252,4.3489,4.3528,4.3463,4.3226,4.2713,4.2612,4.3014,4.2612,4.245,4.245,4.2813,4.2788,5.3739,5.5046,5.6049,5.665,5.2459,4.7899,4.6749,4.2918,3.9273,3.8135,3.79,3.79,3.79,3.79,3.79,3.7888,3.8847,4.0555,4.33,4.5186,4.7556,5.0912,5.18,5.3231,5.5968,5.8202,5.9056,5.8001,5.7901,5.765,5.7035,5.5993,5.5157,5.4622,5.4027,5.3457,5.2895,5.2895,5.2895,5.2895,5.2895,5.2895,5.2895,5.2895,5.2895,5.2895,5.2895,5.2611,5.2151,5.2686,5.2277,5.1364,5.1875,5.2101,5.2101,5.2101,5.2435,5.287,5.287,5.2536,5.2076,5.2076,5.1306,5.0603,5.1749,5.1281,5.0402,5.0402,5.0017,4.9615,4.959,4.959,4.959,4.959,4.9606,4.9289,4.8143,4.749,4.6923,4.6411,4.6301,4.6461,4.6998,4.7541,4.7867,4.7867,4.7883,4.7666,4.7149,4.7074,4.7074,4.7074,4.6612,4.5623,4.394,4.4844,4.501,4.3865,4.4303,4.4589,4.4564,4.3578,4.3251,4.379,4.3251,4.2989,4.3014,4.2989,4.2989,4.2989,4.3014,4.3014,4.8915,5.0352,5.11,5.0483,4.7452,4.446,4.3729,4.0918,3.8344,3.7978,3.79,3.79,3.79,3.79,3.8364,3.9722,4.0063,4.0798,4.268,4.5189,4.7817,5.0377,5.4511,5.7499,5.8378,5.9081,5.9207,5.8485,5.8434,5.8183,5.7631,5.6903,5.6093,5.5182,5.421,5.3632,5.3439,5.3088,5.2895,5.2895,5.2895,5.2895,5.2895,5.2895,5.2895,5.2895,5.2895,5.2795,5.2661,5.2837,5.2711,5.241,5.2586,5.2661,5.2661,5.2661,5.2744,5.2895,5.2895,5.2561,5.2101,5.2101,5.1331,5.0528,5.1322,5.1314,5.1013,5.1013,5.0594,5.0051,4.969,4.959,4.959,4.959,4.959,4.949,4.9138,4.8335,4.7591,4.7431,4.7114,4.6898,4.7074,4.7541,4.7908,4.7908,4.7908,4.7716,4.7174,4.74,4.7516,4.7149,4.729,4.7014,4.6135,4.6035,4.5748,4.501,4.5472,4.5407,4.4614,4.4278,4.4016,4.379,4.3277,4.3014,4.3014,4.3377,4.3553,4.3553,4.3176,4.3201,4.5114,4.7048,4.8004,4.7452,4.5139,4.2853,4.2317,4.0134,3.8135,3.7941,3.79,3.79,3.79,3.79,3.8312,3.9564,3.9866,4.0632,4.2627,4.5074,4.7815,5.0971,5.5761,5.8744,5.8554,5.9307,5.9508,5.8761,5.871,5.8359,5.7581,5.7186,5.6602,5.5717,5.4612,5.3934,5.3708,5.3163,5.2895,5.2895,5.2895,5.2895,5.2895,5.2895,5.2895,5.2895,5.2895,5.2895,0.0,5.2895,5.2895,5.2895,5.2895,5.2895,5.2895,5.2895,5.2895,5.2895,5.2895,5.2686,5.241,5.241,5.1783,5.1055,5.1264,5.1138,5.0996,5.1239,5.072,5.0001,4.969,4.959,4.959,4.959,4.959,4.959,4.959,4.8887,4.8234,4.8234,4.7983,4.7741,4.7741,4.8184,4.8535,4.8535,4.8535,4.836,4.7817,4.8033,4.8109,4.7767,4.7842,4.7857,4.7741,4.7039,4.6361,4.5824,4.5924,4.5773,4.5257,4.483,4.4453,4.4102,4.3765,4.3489,4.3302,4.384,4.4102,4.4077,4.3765,4.379,0.0,4.4566,4.599,4.6445,4.4538,4.2461,4.2003,4.0186,0.0,3.7993,3.79,3.7926,3.7941,3.7926,3.7978,3.8161,3.8863,4.0366,4.3146,4.5181,4.8057,5.2595,5.5951,5.7668,5.7116,5.9037,5.9865,5.8836,5.8685,5.8208,5.7186,5.701,5.6728,5.62,5.5157,5.4328,5.3758,5.3188,5.2895,5.2895,5.2895,5.2895,5.2895,5.2895,5.2895,5.2895,5.2895,5.2895,5.2895,5.2895,5.2895,5.2895,5.2895,5.2895,5.2895,5.2895,5.2895,5.2895,5.2895,5.2895,5.2887,5.2795,5.246,5.195,5.1465,5.0921,5.0553,5.1071,5.0485,4.964,4.9615,4.959,4.959,4.959,4.959,4.959,4.959,4.9204,4.8868,4.8868,4.8868,4.8827,4.8818,4.9254,4.9606,4.954,4.9581,4.943,4.8919,4.8868,4.8868,4.8868,4.8375,4.8234,4.8768,4.7792,4.6923,4.6386,4.5899,4.5824,4.6286,4.5257,4.4665,4.4665,4.4629,4.4378,4.3915,4.4378,4.4629,4.4665,4.4629,4.4614,3.6996,0.0,3.9834,3.9508,3.8907,3.8501,0.0,0.0,0.0,0.0,0.0,3.8031,3.8449,3.8187,3.8632,4.0826,4.115,4.197,4.443,4.8375,5.2127,5.5056,5.7951,5.9152,5.7826,5.9263,6.0035,5.9357,5.8554,5.8133,5.8309,5.7079,5.6326,5.62,5.5157,5.4522,5.4378,5.3389,5.2895,5.2895,5.2895,5.2895,5.2895,5.2895,5.2895,5.2895,5.2895,5.2895,5.2895,5.2895,5.2895,5.2895,5.2895,5.2895,5.2895,5.2895,5.2895,5.2895,5.2895,5.2895,5.2744,5.195,5.159,5.1465,5.1339,5.1214,5.1021,5.0703,5.0402,5.0101,4.9715,4.959,4.959,4.959,4.959,4.959,4.959,4.949,4.9405,4.9405,4.9405,4.928,4.8868,4.9254,4.9464,4.9053,4.933,4.954,4.943,4.9405,4.9405,4.9405,4.9305,4.9088,4.8818,4.8134,4.749,4.6948,4.6798,4.6612,4.6311,4.5648,4.5271,4.5271,4.483,4.4754,4.511,4.4754,4.483,4.5271,4.483,4.4855,3.4816,3.6149,3.7403,3.709,3.7011,3.7168,3.7758,0.0,0.0,0.0,0.0,3.8004,3.828,3.8306,3.8789,4.0343,4.1342,4.3176,4.6761,5.019,5.3564,5.6945,5.8807,5.9746,5.9427,6.0186,6.0286,5.9207,5.883,5.8428,5.7957,5.7305,5.6728,5.62,5.5408,5.4705,5.4202,5.3314,5.2895,5.2895,5.3084,5.3084,5.2912,5.3084,5.3187,5.317,5.2981,5.2998,5.317,5.2981,5.2895,5.2895,5.2895,5.2895,5.2895,5.2895,5.2895,5.2895,5.2895,5.2895,5.2744,5.1925,5.1666,5.1615,5.1364,5.1113,5.087,5.082,5.0444,4.9967,4.9665,4.959,4.9665,4.9916,4.9967,4.9967,4.9967,4.9967,4.9967,4.9967,4.9766,4.9606,4.954,4.938,4.9129,4.8843,4.8827,4.8812,4.8812,4.9079,4.9229,4.9229,4.9229,4.9229,4.9179,4.8385,4.7666,4.7124,4.7099,4.6848,4.6311,4.6024,4.5874,4.5874,4.5296,4.5282,4.5874,4.5533,4.5533,4.5849,4.5533,4.5558,3.4382,3.5809,3.709,3.6907,3.6933,3.7168,3.7758,0.0,0.0,0.0,0.0,3.7941,3.8135,3.8606,3.9038,3.9299,4.1546,4.4907,4.9676,5.1788,5.4236,5.814,5.9186,5.9894,6.0727,6.0984,6.0412,5.8811,5.9056,5.8604,5.7085,5.7405,5.7173,5.61,5.5641,5.4888,5.3833,5.3289,5.3005,5.2998,5.3341,5.3358,5.3084,5.3427,5.358,5.3563,5.3221,5.3238,5.3478,5.3136,5.2964,5.2895,5.2895,5.2895,5.2895,5.2895,5.2895,5.2895,5.2895,5.2895,5.2795,5.226,5.2101,5.2026,5.1565,5.0996,5.067,5.1264,5.0594,4.9715,4.9715,4.9791,4.9967,5.0427,5.0528,5.0528,5.0528,5.0528,5.0528,5.0528,5.0167,4.9967,5.0327,4.964,4.9019,4.8928,4.8501,4.8159,4.8159,4.8601,4.8953,4.9044,4.8969,4.9129,4.9665,4.8686,4.7792,4.7249,4.7149,4.6848,4.6311,4.6286,4.6286,4.6286,4.5849,4.5849,4.6286,4.6286,4.6286,4.6286,4.6286,4.6286,3.4868,3.6436,3.7508,3.6477,3.6619,3.7168,3.7758,0.0,0.0,0.0,0.0,0.0,3.9169,3.977,4.0632,4.2109,4.5558,4.925,5.2766,5.5115,5.6887,5.7894,5.9717,6.044,5.9207,5.989,5.994,5.8786,5.8353,5.7826,5.7035,5.6652,5.6168,5.5541,5.5458,5.5107,5.4471,5.3858,5.3512,5.341,5.3478,5.3631,5.3827,5.3895,5.3929,5.3929,5.3861,5.3691,5.3495,5.3427,5.3204,5.2895,5.2895,5.2895,5.2895,5.2895,5.2895,5.2895,5.2895,5.2895,5.2795,5.226,5.2101,5.2076,5.2,5.1599,5.1289,5.1825,5.1172,5.0277,5.0277,5.067,5.1063,5.1138,5.1163,5.1163,5.1163,5.1163,5.1163,5.1163,5.1088,5.0896,5.0477,5.0252,5.0017,4.9556,4.9389,4.9339,4.9339,4.943,4.964,5.0117,4.9741,4.969,5.0226,4.9264,4.84,4.7817,4.735,4.6848,4.6311,4.6286,4.6286,4.6286,4.621,4.621,4.6286,4.6286,4.6286,4.6286,4.6286,4.6286,3.4136,3.5626,3.6869,3.6645,3.7273,3.7926,3.79,0.0,0.0,0.0,0.0,3.9169,4.0318,4.1481,4.3467,4.706,4.905,5.1234,5.4364,5.528,5.6283,5.8133,5.9232,5.9784,5.9589,6.0016,5.9865,5.8786,5.8459,5.7932,5.7035,5.6778,5.6376,5.5842,5.5842,5.5505,5.4888,5.4592,5.4276,5.3935,5.381,5.3844,5.4014,5.4014,5.4089,5.4241,5.3895,5.3742,5.3742,5.358,5.3256,5.2895,5.2895,5.2895,5.2895,5.2895,5.2895,5.2895,5.2895,5.2895,5.2795,5.226,5.2285,5.2485,5.2201,5.1925,5.1774,5.2026,5.1523,5.0896,5.0896,5.1071,5.1364,5.1649,5.1724,5.1724,5.1724,5.1724,5.1666,5.1364,5.1289,5.1113,5.0503,5.0151,4.9791,4.9254,4.8887,4.8686,4.8686,4.8978,4.9254,4.9515,4.9305,4.938,4.9916,4.8937,4.8184,4.7933,4.7415,4.7124,4.7164,4.7164,4.7164,4.7164,4.6888,4.6722,4.6722,4.6722,4.6722,4.6722,4.6722,4.6722,3.3754,3.5129,3.6384,3.6724,3.7549,0.0,0.0,0.0,0.0,0.0,0.0,4.088,4.1768,4.3663,4.6618,5.1256,5.2238,5.3382,5.6183,5.5997,5.6507,5.8975,5.9162,5.9388,6.0217,6.0191,5.9664,5.8585,5.851,5.8008,5.686,5.6809,5.6627,5.62,5.6292,5.5995,5.5294,5.5256,5.4937,5.4328,5.4202,5.4183,5.425,5.425,5.4402,5.4611,5.4081,5.3937,5.398,5.3708,5.3341,5.2895,5.2895,5.2895,5.2895,5.2895,5.2895,5.2895,5.2895,5.2895,5.282,5.241,5.2561,5.2837,5.241,5.2302,5.2302,5.2302,5.2,5.1666,5.1515,5.159,5.1749,5.2026,5.2101,5.2076,5.195,5.1925,5.1774,5.1389,5.1289,5.1163,5.0695,5.0167,4.964,4.9229,4.8661,4.8309,4.8309,4.8702,4.9044,4.9154,4.9053,4.9104,4.9405,4.8611,4.8109,4.8109,4.7591,4.745,4.7867,4.7908,4.7908,4.7908,4.7516,4.7274,4.7274,4.7274,4.7274,4.7274,4.7274,4.7274,3.4748,3.6044,3.6802,3.6294,3.6645,0.0,4.1166,4.101,0.0,4.3807,0.0,4.3624,4.3703,4.6461,4.9729,5.2788,5.5137,5.7231,5.9225,5.9616,6.0002,6.0898,6.0537,6.0217,6.0292,5.9859,5.9106,5.8052,5.7951,5.7474,5.6301,5.6251,5.6226,5.62,5.6565,5.6461,5.5845,5.5716,5.5271,5.4495,5.446,5.4671,5.5015,5.5015,5.5032,5.5049,5.4998,5.4604,5.4014,5.398,5.3538,5.2895,5.2895,5.2895,5.2895,5.2895,5.2895,5.2895,5.2895,5.2895,5.2895,5.2845,5.2887,5.2895,5.2845,5.2845,5.2845,5.2845,5.2795,5.2661,5.2176,5.241,5.2661,5.2209,5.2101,5.1975,5.1465,5.1364,5.1339,5.1314,5.1289,5.1289,5.1239,5.0745,5.0327,5.0277,4.98,4.9464,4.9464,4.9515,4.9741,5.0226,4.9841,4.9355,4.8894,4.8793,4.8743,4.8743,4.8159,4.7857,4.7908,4.7908,4.7908,4.7908,4.7867,4.7842,4.7842,4.7842,4.7842,4.7842,4.7842,4.7842,3.4058,3.56,3.6959,3.6724,3.7366,0.0,0.0,4.1585,4.254,4.4435,4.5467,0.0,4.6513,4.9703,5.2851,5.4654,5.7081,5.9259,6.0718,6.0829,6.0739,6.0658,6.0442,6.0166,5.9834,5.9332,5.8704,5.7951,5.7531,5.7004,5.6226,5.62,5.6328,5.6565,5.6356,5.6186,5.6083,5.5692,5.5305,5.4872,5.4611,5.4695,5.5082,5.4839,5.4855,5.5082,5.4839,5.4453,5.4014,5.4014,5.3555,5.2895,5.2895,5.2895,5.2895,5.2895,5.2895,5.2895,5.2895,5.2895,5.2895,5.2895,5.2895,5.2895,5.2895,5.2895,5.2895,5.2895,5.2661,5.2435,5.2561,5.2511,5.2335,5.2151,5.185,5.1565,5.1339,5.1289,5.1188,5.082,5.1038,5.1063,5.036,5.0343,5.0277,4.9967,4.9715,4.959,4.959,4.959,4.9665,4.9891,4.9715,4.9515,4.9305,4.9305,4.9305,4.9305,4.8777,4.8626,4.8937,4.8962,4.8962,4.8962,4.8626,4.8451,4.8451,4.8451,4.8451,4.8451,4.8451,4.8451,3.3597,3.4868,3.6216,3.641,0.0,0.0,4.1325,4.2984,4.4748,4.7036,4.7832,4.8367,4.9113,5.169,5.4158,5.5674,5.8112,6.0237,6.1435,6.1067,6.0563,6.0317,6.0141,5.9859,5.9307,5.8911,5.8384,5.7656,5.723,5.6702,5.5993,5.5942,5.603,5.6276,5.5995,5.5864,5.5952,5.5692,5.5394,5.5099,5.4822,5.4839,5.5082,5.4822,5.4839,5.5082,5.4822,5.441,5.4014,5.4014,5.3555,5.2895,5.2895,5.2895,5.2895,5.2895,5.2895,5.2895,5.2895,5.2895,5.2895,5.2895,5.2895,5.2895,5.2895,5.2895,5.2845,5.2711,5.2511,5.2385,5.2611,5.2377,5.2076,5.1875,5.1699,5.1515,5.1339,5.1163,5.0946,5.072,5.087,5.0837,5.0234,5.0444,5.0569,5.0193,4.9967,4.9866,4.9866,4.969,4.959,4.959,4.959,4.959,4.959,4.959,4.959,4.959,4.9254,4.9229,4.9565,4.959,4.959,4.959,4.9229,4.9053,4.9053,4.9053,4.9053,4.9053,4.9053,4.9129,3.3597,3.4016,3.4565,3.5182,0.0,0.0,4.3937,4.5663,4.7821,5.2433,5.1544,5.0289,5.1413,5.2135,5.3311,5.5543,5.8174,6.032,6.1435,6.0383,5.9709,6.0217,5.9834,5.9282,5.8761,5.8685,5.8234,5.7085,5.6985,5.6527,5.5458,5.5408,5.5318,5.5117,5.5504,5.5605,5.5408,5.5722,5.5621,5.5099,5.5099,5.5099,5.5099,5.5099,5.5099,5.5099,5.5099,5.4671,5.4014,5.3997,5.3555,5.2895,5.2895,5.2895,5.2895,5.2895,5.2895,5.2895,5.2895,5.2895,5.2895,5.2895,5.2895,5.2895,5.2895,5.2895,5.2787,5.2234,5.2485,5.2762,5.2209,5.2101,5.1975,5.144,5.1699,5.195,5.1414,5.082,5.0578,5.1188,5.082,5.0603,5.1214,5.1289,5.1289,5.1289,5.0795,5.0402,5.0402,4.9941,4.9615,4.9615,4.959,4.959,4.959,4.959,4.9615,4.9615,4.9615,4.9615,4.959,4.959,4.959,4.9615,4.959,4.959,4.9615,4.9615,4.9615,4.9615,4.9615,4.9891,3.3692,3.4303,3.5365,3.6776,0.0,0.0,0.0,4.6825,0.0,5.3008,5.3739,5.353,5.3452,5.6116,5.7865,5.6348,5.9475,6.1719,6.0693,6.0265,5.9985,5.9759,5.9263,5.8861,5.871,5.7964,5.7361,5.7035,5.6301,5.5825,5.5767,5.5388,5.5393,5.5863,5.5615,5.5589,5.5739,5.5492,5.5255,5.5099,5.5099,5.5099,5.5099,5.5099,5.5099,5.5099,5.5099,5.4671,5.3963,5.3435,5.3101,5.2895,5.2895,5.2895,5.2895,5.2895,5.2895,5.2895,5.2895,5.2895,5.2895,5.2895,5.2895,5.2895,5.2895,5.2895,5.2787,5.2234,5.2209,5.2126,5.1155,5.1498,5.2076,5.19,5.1699,5.149,5.1339,5.1163,5.1088,5.1264,5.1163,5.1071,5.1264,5.1289,5.1163,5.0745,5.087,5.1021,5.1021,5.0519,5.0151,5.0151,4.9816,4.959,4.959,4.9941,5.0151,5.0151,5.0569,5.0435,4.9615,4.959,4.9766,5.0167,4.9791,4.9791,5.0151,5.0151,5.0151,5.0151,5.0594,5.0887,3.3875,3.458,3.5887,3.828,4.1299,4.4669,4.8497,5.0248,5.2051,5.5543,5.5987,5.599,5.6681,5.8621,5.9907,5.9363,6.1484,6.2727,6.1459,6.0659,5.9947,5.9264,5.871,5.8284,5.8058,5.7387,5.6809,5.6401,5.5767,5.535,5.5269,5.4957,5.5009,5.5495,5.521,5.5215,5.5578,5.5255,5.5099,5.5099,5.5099,5.5099,5.5099,5.5099,5.5099,5.5082,5.4922,5.4537,5.3963,5.3392,5.305,5.2895,5.2895,5.2895,5.2895,5.2895,5.2895,5.2887,5.2661,5.2737,5.2845,5.2661,5.2737,5.2895,5.2895,5.2895,5.2787,5.2234,5.2234,5.2209,5.1306,5.1732,5.231,5.1875,5.185,5.1925,5.1925,5.1774,5.1674,5.19,5.1749,5.1691,5.19,5.1925,5.1825,5.1456,5.1523,5.154,5.1314,5.077,5.0477,5.0745,5.0268,4.9916,4.9916,5.0444,5.067,5.0427,5.0971,5.0987,5.0293,5.0284,5.0318,5.0402,5.0318,5.0419,5.077,5.077,5.077,5.077,5.1138,5.1414,3.4162,3.4946,3.6305,3.9822,4.3036,4.6642,5.1675,5.4889,5.7268,5.8924,5.807,5.7831,6.0448,6.0205,6.0539,6.3353,6.3674,6.3436,6.3041,6.1339,5.982,5.8934,5.8397,5.7787,5.7054,5.691,5.647,5.5519,5.5344,5.5044,5.4435,5.4351,5.4398,5.4544,5.4561,5.4738,5.5099,5.5099,5.5099,5.5099,5.5099,5.5099,5.5099,5.5099,5.5099,5.5082,5.4628,5.4275,5.398,5.3614,5.3221,5.2895,5.2895,5.2895,5.2895,5.2895,5.2895,5.2837,5.2335,5.246,5.2744,5.231,5.246,5.2837,5.2887,5.2887,5.2711,5.2176,5.241,5.2686,5.2084,5.241,5.2636,5.1615,5.2134,5.2895,5.2895,5.2511,5.231,5.2812,5.2511,5.2327,5.2812,5.2895,5.2895,5.2895,5.2435,5.195,5.1515,5.0921,5.0754,5.1314,5.0845,5.0477,5.0477,5.1021,5.1122,5.0578,5.1122,5.1414,5.1364,5.1314,5.1063,5.0553,5.1063,5.1314,5.1364,5.1364,5.1364,5.1364,5.1414,5.1699,3.4789,3.5861,3.7691,4.2069,4.6656,5.0995,5.4393,5.5996,5.7033,5.7904,5.848,5.9518,6.1642,6.3222,6.3973,6.3291,6.3757,6.3889,6.2968,6.1478,6.0333,5.9868,5.9513,5.8706,5.7158,5.6226,5.5768,5.5803,5.5011,5.4725,5.5143,5.4713,5.4606,5.4965,5.4982,5.5015,5.5099,5.5099,5.5099,5.5099,5.5099,5.5099,5.5099,5.5099,5.5099,5.5065,5.4402,5.4081,5.3946,5.3307,5.2981,5.2895,5.2895,5.2895,5.2895,5.2895,5.2895,5.287,5.2762,5.2536,5.231,5.2636,5.2511,5.2335,5.2787,5.2611,5.2159,5.1615,5.185,5.2034,5.103,5.1833,5.2737,5.2076,5.2435,5.2895,5.2895,5.2795,5.2744,5.2887,5.2812,5.2744,5.287,5.2895,5.2895,5.2895,5.2435,5.2209,5.2511,5.2076,5.1783,5.1925,5.1423,5.1113,5.1113,5.1599,5.1875,5.1732,5.226,5.236,5.195,5.1515,5.144,5.1724,5.1465,5.1515,5.1925,5.1925,5.1925,5.195,5.236,5.2611,3.5574,3.7351,4.0017,4.5755,4.9845,5.3008,5.5046,5.6196,5.6981,5.759,5.8802,6.0533,6.3005,6.4383,6.5177,6.5355,6.5401,6.4925,6.3611,6.1566,6.0043,5.9533,5.8534,5.7526,5.6565,5.597,5.5568,5.5389,5.4707,5.4499,5.4943,5.4514,5.4537,5.5082,5.5099,5.5099,5.5099,5.5099,5.5099,5.5099,5.5099,5.5099,5.5099,5.5099,5.5099,5.5065,5.4503,5.414,5.398,5.3589,5.3341,5.3187,5.3187,5.3187,5.3187,5.3187,5.3067,5.2854,5.2488,5.2236,5.2076,5.1783,5.1724,5.1774,5.2051,5.195,5.1699,5.1674,5.1699,5.1699,5.1607,5.1858,5.2184,5.2435,5.2711,5.2895,5.2895,5.2895,5.2895,5.2895,5.2895,5.2895,5.2895,5.2895,5.2895,5.2895,5.2661,5.2586,5.2845,5.2435,5.2201,5.246,5.2,5.1674,5.1674,5.2176,5.236,5.2126,5.2611,5.2787,5.2485,5.2209,5.2076,5.2101,5.2076,5.2184,5.2485,5.2485,5.2485,5.2485,5.2787,5.2895,3.6123,3.9012,4.2827,4.9191,5.2093,5.3687,5.4837,5.5909,5.684,5.7571,5.9096,6.1078,6.3764,6.4578,6.5399,6.7179,6.6715,6.5643,6.4357,6.1896,6.0001,5.9389,5.7956,5.6788,5.6232,5.6103,5.5703,5.4859,5.4473,5.4312,5.4503,5.4241,5.4402,5.5082,5.4994,5.4994,5.5099,5.4994,5.4942,5.4942,5.4863,5.4811,5.4811,5.4811,5.4863,5.4925,5.4532,5.418,5.3843,5.3945,5.3793,5.3495,5.3495,5.3495,5.3495,5.3495,5.3256,5.2813,5.2169,5.1967,5.18,5.0854,5.082,5.1163,5.1264,5.1239,5.1239,5.1674,5.1498,5.1373,5.236,5.2026,5.1691,5.2661,5.2895,5.2895,5.2895,5.2895,5.2895,5.2895,5.2895,5.2895,5.2895,5.2895,5.2895,5.2895,5.2895,5.2895,5.2895,5.2511,5.241,5.2845,5.2511,5.2251,5.2251,5.2636,5.2711,5.2277,5.2661,5.2895,5.2895,5.2895,5.2686,5.2251,5.2686,5.2895,5.2895,5.2895,5.2895,5.2895,5.2895,5.2895,3.573,4.0475,4.5844,4.9819,5.2093,5.3687,5.4837,5.5595,5.6378,5.761,5.9305,6.1036,6.2571,6.4442,6.5659,6.5426,6.4948,6.4555,6.4477,6.302,6.1839,6.144,6.1432,6.0366,5.765,5.6946,5.6157,5.4885,5.433,5.4175,5.4477,5.4477,5.4628,5.5082,5.4602,5.4576,5.5099,5.4576,5.4314,5.4314,5.3844,5.3635,5.3635,5.3635,5.387,5.4298,5.3961,5.3596,5.3254,5.3792,5.3793,5.3495,5.3495,5.3495,5.3495,5.3495,5.3256,5.2863,5.2582,5.2018,5.1389,5.1239,5.087,5.0619,5.1138,5.0921,5.0528,5.0603,5.0578,5.0653,5.1322,5.1749,5.2151,5.2762,5.2895,5.2895,5.2895,5.2895,5.2895,5.2895,5.2895,5.2895,5.2895,5.2895,5.2895,5.2895,5.2895,5.2895,5.2895,5.2837,5.2837,5.2895,5.2837,5.2795,5.2795,5.2845,5.2887,5.2812,5.2845,5.2895,5.2895,5.2895,5.2887,5.2795,5.2845,5.2895,5.2895,5.2895,5.2895,5.2895,5.2895,5.2895,3.9776,4.324,4.6747,5.0348,5.1831,5.2901,5.4778,5.5627,5.6385,5.7739,5.9795,6.1606,6.2583,6.3884,6.471,6.4472,6.4262,6.4035,6.3757,6.2508,6.1609,6.1526,6.0976,5.9786,5.7684,5.727,5.6438,5.4763,5.4244,5.414,5.4494,5.3983,5.3978,5.4585,5.4053,5.387,5.4131,5.387,5.3739,5.3739,5.3504,5.34,5.34,5.3034,5.3217,5.3723,5.3364,5.3299,5.346,5.3717,5.3933,5.4064,5.4064,5.4064,5.4064,5.4064,5.3708,5.3163,5.2622,5.1931,5.1239,5.0896,5.055,5.0294,5.0669,5.0533,5.0269,5.0376,5.0402,5.0603,5.1523,5.1699,5.185,5.2711,5.2661,5.2536,5.2837,5.2895,5.2895,5.2895,5.2895,5.2895,5.2895,5.2895,5.2895,5.2895,5.2895,5.2895,5.2895,5.2895,5.2895,5.2895,5.2895,5.2895,5.2895,5.2895,5.2895,5.2895,5.2895,5.2895,5.2895,5.2895,5.2895,5.2895,5.2895,5.2895,5.2895,5.2895,5.2895,5.2895,5.2895,5.2895,4.2195,4.4128,4.594,4.9872,5.1257,5.2293,5.4704,5.594,5.6973,5.8321,6.0352,6.2124,6.2808,6.3615,6.407,6.383,6.3767,6.3602,6.3153,6.2086,6.1451,6.1748,6.0569,5.9237,5.7944,5.7841,5.6867,5.4553,5.4406,5.4345,5.417,5.3428,5.3327,5.3984,5.3452,5.3243,5.34,5.3243,5.3164,5.3164,5.3008,5.2929,5.2929,5.2485,5.2511,5.2939,5.2786,5.2919,5.3294,5.3678,5.3921,5.4071,5.4226,5.4304,5.4304,5.4304,5.402,5.3513,5.2777,5.213,5.1531,5.0853,5.048,5.0312,5.0375,5.0354,5.0312,5.0375,5.0503,5.087,5.1833,5.18,5.1783,5.2823,5.274,5.2529,5.2829,5.2895,5.2895,5.2895,5.2895,5.2895,5.2895,5.2895,5.2895,5.2895,5.2895,5.2895,5.2895,5.2895,5.2895,5.2895,5.2895,5.2895,5.2895,5.2895,5.2895,5.2895,5.2895,5.2895,5.2895,5.2895,5.2895,5.2895,5.2895,5.2895,5.2895,5.2895,5.2895,5.2895,5.2895,5.2895,4.0005,4.1299,4.3035,4.7702,5.0324,5.238,5.4669,5.6598,5.829,5.972,6.1016,6.2135,6.2939,6.4113,6.4531,6.3348,6.3168,6.3138,6.3108,6.2497,6.2291,6.2948,6.1821,6.0472,5.9152,5.9012,5.7626,5.4275,5.4997,5.4918,5.3269,5.2935,5.301,5.3436,5.2851,5.2825,5.34,5.2825,5.2537,5.2537,5.1962,5.1675,5.1675,5.1648,5.1648,5.1727,5.2286,5.2356,5.2197,5.3603,5.3667,5.2958,5.3527,5.3734,5.3734,5.3734,5.3837,5.392,5.3338,5.2883,5.2405,5.1515,5.106,5.0802,5.05,5.0606,5.0802,5.05,5.082,5.1389,5.195,5.2076,5.2286,5.3223,5.3435,5.3333,5.2981,5.2895,5.2895,5.2895,5.2895,5.2895,5.2895,5.2895,5.2895,5.2895,5.2895,5.2895,5.2895,5.2895,5.2895,5.2895,5.2895,5.2895,5.2895,5.2895,5.2895,5.2895,5.2895,5.2895,5.2895,5.2895,5.2895,5.2895,5.2895,5.2895,5.2895,5.2895,5.2895,5.2895,5.2895,5.2895,4.0751,4.2042,4.362,4.6599,4.8892,5.1113,5.3994,5.5794,5.7398,5.9124,6.0132,6.0822,6.1124,6.2614,6.3617,6.3153,6.2734,6.2614,6.3048,6.2884,6.2824,6.3063,6.1924,6.0912,6.0414,5.9235,5.7827,5.6361,5.5311,5.457,5.4148,5.2705,5.2162,5.2809,5.2223,5.2014,5.2223,5.1309,5.1037,5.1387,5.0801,5.0707,5.1089,5.1089,5.1256,5.1596,5.1831,5.2082,5.2362,5.2881,5.3152,5.3231,5.3804,5.3821,5.3544,5.3882,5.3694,5.3148,5.2614,5.242,5.2323,5.1788,5.1611,5.1636,5.1787,5.1713,5.1569,5.1356,5.188,5.2445,5.2169,5.2708,5.3385,5.3725,5.3665,5.3461,5.3324,5.329,5.3204,5.2947,5.2895,5.2895,5.2895,5.2895,5.2895,5.2895,5.2895,5.2895,5.2895,5.2895,5.2895,5.2895,5.2895,5.2895,5.2895,5.2895,5.2895,5.2895,5.2895,5.2895,5.2895,5.2895,5.2895,5.2895,5.2895,5.2895,5.2895,5.2895,5.2895,5.2895,5.2895,5.2895,4.0607,4.1771,4.3365,4.6175,4.7781,4.9639,5.3426,5.4961,5.6185,5.834,5.9308,5.9907,6.0356,6.1178,6.1986,6.2644,6.2181,6.1912,6.2375,6.2435,6.2345,6.212,6.1116,6.0424,6.0424,5.9111,5.7935,5.7095,5.5512,5.4512,5.43,5.2379,5.149,5.192,5.1335,5.1021,5.1021,5.0278,5.0095,5.0472,5.0095,5.0226,5.0801,5.0801,5.1073,5.1596,5.1596,5.1831,5.2197,5.2406,5.2616,5.2877,5.3635,5.3583,5.3164,5.3739,5.3645,5.3156,5.2489,5.2604,5.2934,5.2203,5.2098,5.2265,5.2227,5.2226,5.224,5.2022,5.2694,5.3349,5.2844,5.3445,5.4157,5.4157,5.4098,5.3971,5.3734,5.3478,5.3221,5.2947,5.2895,5.2895,5.2895,5.2895,5.2895,5.2895,5.2895,5.2895,5.2895,5.2895,5.2895,5.2895,5.2895,5.2895,5.2895,5.2895,5.2895,5.2895,5.2895,5.2964,5.3101,5.3101,5.3153,5.3273,5.317,5.3101,5.3101,5.2964,5.2895,5.2895,5.2895,5.2895,0.0,0.0,0.0,4.6189,4.701,4.8049,5.2939,5.4084,5.4837,5.744,5.8487,5.9368,6.0731,5.9923,5.9697,6.1672,6.1419,6.103,6.103,6.103,6.0805,6.016,5.9485,5.9074,5.9103,5.8797,5.7929,5.6304,5.5705,5.4828,5.3528,5.1962,5.0992,5.0786,5.02,4.9886,4.9912,4.986,4.986,4.9886,4.986,5.0174,5.0775,5.0775,5.1063,5.157,5.157,5.157,5.1622,5.2239,5.2119,5.1727,5.2903,5.3008,5.2563,5.3164,5.3739,5.4056,5.314,5.357,5.4253,5.2805,5.2577,5.266,5.1762,5.2139,5.2789,5.2455,5.3168,5.403,5.403,5.4258,5.4511,5.4528,5.4805,5.4881,5.4166,5.3418,5.2912,5.2895,5.2895,5.2895,5.2895,5.2895,5.2895,5.2895,5.2895,5.2895,5.2895,5.2895,5.2895,5.2895,5.2895,5.2895,5.2895,5.2895,5.2912,5.2912,5.2912,5.3101,5.3495,5.3512,5.3682,5.3997,5.3682,5.3495,5.3495,5.3101,5.2895,5.2895,5.2895,5.2895,3.872,0.0,0.0,0.0,0.0,0.0,4.8192,4.9958,5.1923,5.4102,5.5089,5.6094,5.7872,5.7902,5.7992,5.9056,5.9056,5.9115,5.9594,5.9654,5.9564,5.9398,5.8767,5.8576,5.9033,5.8587,5.8247,5.8278,5.6247,5.4975,5.4839,5.2345,5.0667,5.0159,4.9599,4.952,4.9912,4.9076,4.8893,4.9311,4.8893,4.9206,5.0148,4.9755,5.0095,5.1021,5.1021,5.1021,5.1047,5.1622,5.1753,5.1675,5.2433,5.2642,5.2563,5.3164,5.3504,5.3592,5.3312,5.3697,5.4195,5.352,5.3548,5.3788,5.3685,5.373,5.3823,5.3891,5.4337,5.4798,5.4798,5.4654,5.4578,5.4855,5.4805,5.4528,5.4115,5.364,5.3256,5.2964,5.2895,5.2895,5.2895,5.2895,5.2895,5.2895,5.2895,5.2895,5.2895,5.2895,5.2895,5.2895,5.2895,5.2895,5.2895,5.2895,5.3015,5.3324,5.3324,5.3495,5.3844,5.3861,5.3912,5.4014,5.3682,5.3495,5.3495,5.3101,5.2895,5.2895,5.2895,5.2895,0.0,0.0,0.0,4.2471,0.0,0.0,4.639,4.7467,4.8873,5.1427,5.2474,5.3461,5.5162,5.5461,5.5688,5.6363,5.6483,5.6902,5.8112,5.8517,5.8501,5.7945,5.7778,5.7851,5.8224,5.7819,5.7673,5.8067,5.5958,5.4554,5.438,5.209,5.0637,5.028,4.9264,4.8866,4.918,4.8527,4.8633,4.9418,4.9073,4.9626,5.0976,5.0667,5.1017,5.1877,5.1877,5.1877,5.1901,5.1949,5.1826,5.1711,5.2837,5.2976,5.2706,5.436,5.4798,5.4602,5.4923,5.557,5.602,5.4819,5.469,5.4918,5.4249,5.4124,5.4213,5.4353,5.4723,5.5099,5.5099,5.4948,5.4822,5.5049,5.4905,5.4654,5.4275,5.3946,5.3563,5.3015,5.2895,5.2895,5.2895,5.2895,5.2895,5.2895,5.2895,5.2895,5.2895,5.2895,5.2895,5.2895,5.2895,5.2895,5.2895,5.2895,5.3067,5.3478,5.3495,5.3691,5.4191,5.4208,5.4301,5.4453,5.4098,5.3776,5.3495,5.3101,5.2895,5.2895,5.2895,5.2895,0.0,0.0,0.0,0.0,4.3339,0.0,4.6052,4.5873,4.6052,4.9041,5.0189,5.1098,5.251,5.2827,5.3037,5.3563,5.388,5.473,5.6615,5.738,5.735,5.6222,5.6628,5.6987,5.6898,5.6799,5.6717,5.6657,5.5273,5.3963,5.2922,5.1655,5.094,5.09,4.9266,4.8449,4.8594,4.8463,4.8959,5.0084,5.0084,5.0945,5.2505,5.2434,5.2729,5.3304,5.3304,5.3304,5.3275,5.2778,5.2319,5.2072,5.3651,5.3784,5.336,5.6178,5.691,5.6628,5.7256,5.8214,5.874,5.6534,5.6033,5.5995,5.4318,5.4053,5.4314,5.4314,5.468,5.5099,5.5099,5.5099,5.5099,5.5099,5.5099,5.4998,5.4595,5.4275,5.3861,5.317,5.2964,5.2912,5.2964,5.2929,5.2895,5.2895,5.2895,5.2895,5.2895,5.2895,5.2895,5.2895,5.2895,5.2895,5.2895,5.2947,5.3136,5.3529,5.3597,5.3895,5.4544,5.4578,5.4712,5.5099,5.4688,5.4089,5.3427,5.3067,5.2895,5.2895,5.2895,5.2895,0.0,0.0,0.0,0.0,4.3369,0.0,4.289,4.3569,4.4815,4.6012,4.679,4.7837,4.9726,5.0451,5.0679,5.0324,5.2031,5.3905,5.5371,5.5688,5.5658,5.5431,5.5983,5.6149,5.5611,5.6444,5.6836,5.6341,5.5552,5.4374,5.2659,5.231,5.1975,5.1556,5.025,5.0041,5.1017,5.0055,5.0182,5.1347,5.1347,5.1764,5.2476,5.2055,5.2167,5.2673,5.2673,5.2673,5.2701,5.3063,5.3476,5.3839,5.3715,5.4731,5.6358,5.6971,5.7772,5.8557,5.8709,5.8914,5.9036,5.8535,5.7732,5.6843,5.6504,5.5691,5.4916,5.4916,5.502,5.5099,5.5099,5.5099,5.5099,5.5099,5.5099,5.4998,5.4595,5.446,5.4275,5.3878,5.3299,5.2998,5.3324,5.3118,5.2895,5.2895,5.2895,5.2895,5.2895,5.2895,5.2895,5.2895,5.2895,5.2895,5.2895,5.3204,5.3546,5.3878,5.4157,5.4494,5.4956,5.4982,5.5032,5.5099,5.4436,5.3742,5.3015,5.2947,5.2895,5.2895,5.2895,5.2895,0.0,0.0,0.0,4.291,4.3339,0.0,0.0,4.2851,4.3329,4.4945,4.4806,4.4955,4.6942,4.7549,4.7986,4.8678,5.0421,5.2175,5.3503,5.4563,5.5192,5.5192,5.5491,5.5581,5.5222,5.579,5.603,5.573,5.5429,5.4841,5.3909,5.3279,5.284,5.2566,5.1415,5.1086,5.1674,5.1099,5.1388,5.2537,5.2537,5.2989,5.3854,5.3574,5.3603,5.3841,5.3841,5.3841,5.3859,5.4216,5.4914,5.5701,5.514,5.5635,5.6865,5.8175,5.8853,5.9212,5.9882,6.009,5.9986,5.9317,5.8214,5.7075,5.6709,5.5898,5.5099,5.5099,5.5099,5.5099,5.5099,5.5099,5.5099,5.5099,5.5099,5.5049,5.4839,5.4628,5.4511,5.4537,5.3836,5.3256,5.3461,5.317,5.2895,5.2895,5.3067,5.3136,5.2929,5.3084,5.3118,5.2929,5.3084,5.3204,5.3204,5.3546,5.3895,5.4224,5.441,5.4679,5.5082,5.5099,5.5015,5.4805,5.4284,5.3742,5.3204,5.2998,5.2895,5.2895,5.2895,5.3038,4.3177,4.3509,4.4077,4.4087,4.3728,4.3409,0.0,0.0,0.0,4.4357,4.3589,4.305,4.4616,4.4915,4.5394,4.6901,4.8465,4.983,5.093,5.2797,5.4204,5.4593,5.4585,5.4633,5.479,5.4713,5.4718,5.4907,5.4867,5.4862,5.4999,5.4072,5.348,5.3377,5.2375,5.1938,5.2166,5.2065,5.2619,5.3769,5.3769,5.4265,5.5192,5.5192,5.5192,5.5192,5.5192,5.5192,5.5205,5.5269,5.6013,5.7049,5.6624,5.6679,5.7208,5.932,5.9848,5.9624,6.0709,6.109,6.0922,5.984,5.8708,5.7536,5.6428,5.582,5.5422,5.5182,5.5099,5.5099,5.5099,5.5099,5.5099,5.5099,5.5099,5.5099,5.5099,5.4839,5.4695,5.5049,5.4344,5.3682,5.3614,5.3273,5.2981,5.2912,5.3307,5.3461,5.3067,5.3358,5.3478,5.3153,5.341,5.3597,5.3597,5.3895,5.4174,5.4393,5.4544,5.4738,5.4956,5.5065,5.4905,5.4528,5.4157,5.3844,5.3495,5.317,5.2981,5.2895,5.2895,5.3138,4.4959,4.5873,4.6281,4.3987,4.5074,4.5873,4.2511,0.0,4.3718,4.291,0.0,4.327,4.3479,0.0,0.0,4.3119,4.5125,4.6809,4.6958,4.8697,5.0624,5.2336,5.2377,5.2579,5.3354,5.2887,5.2939,5.388,5.3632,5.3695,5.4269,5.4187,5.3826,5.3242,5.2626,5.2845,5.3894,5.3438,5.3808,5.5002,5.5002,5.5065,5.5192,5.5192,5.5192,5.5192,5.5192,5.5192,5.5209,5.5219,5.5961,5.7109,5.7092,5.814,5.9698,6.0004,6.0422,6.0894,6.1048,6.109,6.1062,6.0922,6.0351,5.9307,5.6836,5.6471,5.6633,5.5422,5.5099,5.5099,5.5099,5.5099,5.5099,5.5099,5.5099,5.5099,5.5099,5.5065,5.5049,5.5082,5.4721,5.4292,5.3997,5.3657,5.3307,5.2947,5.3487,5.381,5.3478,5.3725,5.3929,5.3878,5.3929,5.3946,5.3946,5.4241,5.4326,5.4081,5.4654,5.4889,5.4578,5.4905,5.4905,5.4528,5.4157,5.3844,5.3495,5.3444,5.3256,5.2895,5.2895,5.292,4.5543,4.6117,4.6371,4.4845,4.5304,4.5514,4.305,4.2851,4.316,4.297,0.0,0.0,0.0,0.0,0.0,0.0,4.4736,4.5862,4.6241,4.7369,4.9026,5.1337,5.089,5.0641,5.125,5.1387,5.1619,5.2077,5.2334,5.2784,5.3593,5.3982,5.4251,5.4354,5.4141,5.4264,5.479,5.4544,5.4705,5.5192,5.5192,5.5192,5.5192,5.5192,5.5192,5.5192,5.5192,5.5192,5.5251,5.6,5.6628,5.7175,5.7991,5.8783,5.9518,5.9518,5.9697,5.9923,5.9923,5.9923,5.9873,5.9518,5.9727,5.975,5.7876,5.7224,5.6979,5.6422,5.5703,5.5099,5.5099,5.5099,5.5099,5.5099,5.5099,5.5099,5.5099,5.5099,5.5099,5.5099,5.4788,5.4393,5.4064,5.3708,5.3512,5.3521,5.381,5.3946,5.381,5.4098,5.4208,5.403,5.4157,5.4292,5.4292,5.4637,5.4705,5.4309,5.4578,5.4679,5.4511,5.4662,5.4662,5.4511,5.4157,5.3844,5.3495,5.3717,5.347,5.2912,5.3136,5.3488,4.6028,4.6401,4.652,4.5084,4.5035,4.4796,4.2921,4.2731,4.296,4.302,4.288,0.0,0.0,0.0,4.316,4.3918,0.0,4.4945,4.5403,4.5882,4.7119,4.9561,4.9385,4.9093,4.9238,4.9817,5.0292,5.059,5.081,5.1434,5.2606,5.3102,5.3581,5.4072,5.464,5.4832,5.4653,5.5012,5.5192,5.5192,5.5192,5.5192,5.5192,5.5192,5.5192,5.5192,5.5192,5.5192,5.5281,5.6389,5.6958,5.7214,5.8381,5.8949,5.9099,5.9099,5.9099,5.9129,5.9308,5.9488,5.9577,5.913,5.9725,6.0413,5.9122,5.8479,5.804,5.7317,5.6405,5.5571,5.5199,5.5099,5.5099,5.5099,5.5099,5.5099,5.5099,5.5099,5.5099,5.5099,5.4855,5.4604,5.4335,5.3997,5.3776,5.3844,5.4115,5.4267,5.414,5.4443,5.4561,5.4335,5.4537,5.4662,5.4662,5.4839,5.4772,5.4393,5.446,5.4511,5.4511,5.4611,5.4662,5.4662,5.4309,5.403,5.3759,5.403,5.3827,5.3221,5.3562,5.3947,4.6748,4.7381,4.7459,4.4177,4.4337,4.4477,4.1235,4.2432,4.3888,4.267,4.4417,4.5762,4.4516,4.4247,4.4027,0.0,0.0,0.0,0.0,4.3419,4.4167,4.6211,4.7578,4.8138,4.7623,4.8068,4.8824,4.9836,4.8999,4.9254,5.1158,5.1265,5.1295,5.1325,5.3222,5.3922,5.3288,5.4563,5.5192,5.5192,5.5192,5.5192,5.5192,5.5192,5.5192,5.5192,5.5192,5.5192,5.5251,5.5953,5.6568,5.7154,5.7859,5.8517,5.9099,5.9099,5.9099,5.9189,5.9831,6.0505,6.1016,6.1018,6.1452,6.1791,6.0457,6.048,6.0443,5.7834,5.7076,5.6736,5.5438,5.5099,5.5099,5.5099,5.5099,5.5099,5.5099,5.5099,5.5099,5.5099,5.5082,5.5082,5.5065,5.4738,5.4241,5.3614,5.4394,5.4905,5.4544,5.4839,5.5082,5.5065,5.5065,5.5082,5.5082,5.4755,5.4376,5.4047,5.4326,5.4511,5.4511,5.4872,5.5082,5.5082,5.4679,5.4494,5.4477,5.4494,5.4309,5.3963,5.4191,5.4081,4.858,4.9393,4.9542,4.667,4.6281,4.5753,4.2481,4.307,4.3958,4.267,4.4477,4.5882,4.4546,4.4666,0.0,0.0,0.0,0.0,0.0,4.2681,4.3279,4.4815,4.6561,4.716,4.5973,4.6418,4.6929,4.7288,4.6978,4.7694,4.9834,5.0739,5.1606,5.2498,5.3611,5.4311,5.4533,5.4982,5.5192,5.5192,5.5192,5.5192,5.5192,5.5192,5.5192,5.5192,5.5192,5.5192,5.5281,5.6359,5.6928,5.7214,5.8338,5.8906,5.9099,5.9099,5.9099,5.9189,5.9861,6.0535,6.118,6.1613,6.1912,6.211,6.2095,6.1615,6.0912,5.9988,5.8467,5.6995,5.6552,5.5759,5.5099,5.5099,5.5099,5.5099,5.5099,5.5099,5.5099,5.5099,5.5099,5.5015,5.4755,5.4822,5.4805,5.4596,5.4637,5.4755,5.4872,5.5015,5.5099,5.5099,5.5099,5.4998,5.4738,5.4359,5.4106,5.4014,5.4309,5.4511,5.4511,5.4628,5.4839,5.5099,5.5111,5.5097,5.5097,5.5724,5.5701,5.5133,5.5828,5.5765,4.9142,4.9873,5.0002,4.7848,4.7489,4.6781,4.3459,4.4077,4.4945,4.3399,4.4796,4.6181,4.5802,4.5484,0.0,0.0,0.0,0.0,0.0,4.2711,4.31,4.4187,4.5443,4.5929,4.5177,4.5513,4.5741,4.5741,4.5741,4.6471,4.8147,4.9673,5.102,5.2097,5.3461,5.4418,5.485,5.5072,5.5192,5.5192,5.497,5.497,5.5192,5.494,5.497,5.5192,5.5192,5.5192,5.5311,5.6555,5.7094,5.7227,5.8321,5.8756,5.8756,5.8996,5.9385,5.9907,6.0565,6.1268,6.1882,6.2315,6.2465,6.2555,6.2974,6.2512,6.1761,6.1503,6.0021,5.8364,5.7643,5.6648,5.5703,5.5215,5.5099,5.5099,5.5099,5.5099,5.5099,5.5099,5.5099,5.5032,5.4772,5.4922,5.5049,5.4905,5.4788,5.4805,5.5065,5.5099,5.5099,5.5099,5.5099,5.4948,5.4544,5.4292,5.4123,5.4014,5.4453,5.4749,5.4838,5.4914,5.5411,5.6284,5.6053,5.6115,5.6505,5.6703,5.6556,5.6106,5.6779,5.6857]},{"header":{"parameterUnit":"m.s-1","parameterCategory":1,"la1":30.6,"la2":29.2853,"lo1":-89.7004,"lo2":-87.6739,"dy":0.0162,"dx":0.0183,"nx":112,"ny":82,"refTime":"2023-05-24T12:00:00:Z","depth":0,"parameterNumber":3,"parameterNumberName":"V-component_of_WINDS"},"data":[0.0,0.0,0.0,0.0,0.0,0.0,0.0,0.0,0.0,0.0,0.0,0.0,0.0,0.0,0.0,0.0,0.0,0.0,0.0,0.0,0.0,0.0,0.0,0.0,0.0,0.0,0.0,0.0,0.0,0.0,0.0,0.0,0.0,0.0,0.0,0.0,0.0,0.0,0.0,0.0,0.0,0.0,0.0,0.0,0.0,0.0,0.0,0.0,0.0,0.0,0.0,0.0,0.0,0.0,0.0,0.0,0.0,0.0,0.0,0.0,0.0,0.0,0.0,0.0,0.0,0.0,0.0,0.0,0.0,0.0,0.0,0.0,0.0,0.0,0.0,0.0,0.0,0.0,0.0,0.0,0.0,0.0,0.0,0.0,0.0,0.0,0.0,0.0,0.0,0.0,2.8849,3.2162,3.6122,3.8078,3.6959,3.7123,3.5941,3.284,0.0,0.0,0.0,0.0,0.0,0.0,0.0,0.0,0.0,0.0,0.0,0.0,0.0,0.0,0.0,0.0,0.0,0.0,0.0,0.0,0.0,0.0,0.0,0.0,0.0,0.0,0.0,0.0,0.0,0.0,0.0,0.0,0.0,0.0,0.0,0.0,0.0,0.0,0.0,0.0,0.0,0.0,0.0,0.0,0.0,0.0,0.0,0.0,0.0,0.0,0.0,0.0,0.0,0.0,0.0,0.0,0.0,0.0,0.0,0.0,0.0,0.0,0.0,0.0,0.0,0.0,0.0,0.0,0.0,0.0,0.0,0.0,0.0,0.0,0.0,0.0,0.0,0.0,0.0,0.0,0.0,0.0,0.0,0.0,0.0,0.0,0.0,0.0,0.0,0.0,0.0,0.0,0.0,0.0,0.0,0.0,0.0,0.0,0.0,0.0,0.0,0.0,0.0,0.0,2.8909,3.3867,3.7258,3.8602,3.7239,3.7434,3.6141,3.2675,0.0,0.0,0.0,0.0,0.0,0.0,0.0,0.0,0.0,0.0,0.0,0.0,0.0,0.0,0.0,0.0,0.0,0.0,0.0,0.0,0.0,0.0,0.0,0.0,0.0,0.0,0.0,0.0,0.0,0.0,0.0,0.0,0.0,0.0,0.0,0.0,0.0,0.0,0.0,0.0,0.0,0.0,0.0,0.0,0.0,0.0,0.0,0.0,0.0,0.0,0.0,0.0,0.0,0.0,0.0,0.0,0.0,0.0,0.0,0.0,0.0,0.0,0.0,0.0,0.0,0.0,0.0,0.0,0.0,0.0,0.0,0.0,0.0,0.0,0.0,0.0,0.0,0.0,0.0,0.0,0.0,0.0,0.0,0.0,0.0,0.0,0.0,0.0,0.0,0.0,0.0,0.0,0.0,0.0,0.0,0.0,0.0,0.0,0.0,0.0,0.0,0.0,0.0,2.8787,3.1017,3.502,3.7082,3.7903,3.7236,3.6504,3.5025,3.2574,3.251,0.0,0.0,0.0,0.0,0.0,0.0,0.0,0.0,0.0,0.0,0.0,0.0,0.0,0.0,0.0,0.0,0.0,0.0,0.0,0.0,0.0,0.0,0.0,0.0,0.0,0.0,0.0,0.0,0.0,0.0,0.0,0.0,0.0,0.0,0.0,0.0,0.0,0.0,0.0,0.0,0.0,0.0,0.0,0.0,0.0,0.0,0.0,0.0,0.0,0.0,0.0,0.0,0.0,0.0,0.0,0.0,0.0,0.0,0.0,0.0,0.0,0.0,0.0,0.0,0.0,0.0,0.0,0.0,0.0,0.0,0.0,0.0,0.0,0.0,0.0,0.0,0.0,0.0,0.0,0.0,0.0,0.0,0.0,0.0,0.0,0.0,0.0,0.0,0.0,0.0,0.0,0.0,0.0,0.0,0.0,0.0,0.0,0.0,0.0,0.0,0.0,0.0,3.1374,3.3228,3.573,3.6828,3.7223,3.6835,3.5573,3.4152,3.2578,3.2004,0.0,0.0,0.0,0.0,0.0,0.0,0.0,0.0,0.0,0.0,0.0,0.0,0.0,0.0,0.0,0.0,0.0,0.0,0.0,0.0,0.0,0.0,0.0,0.0,0.0,0.0,0.0,0.0,0.0,0.0,0.0,0.0,0.0,0.0,0.0,0.0,0.0,0.0,0.0,0.0,0.0,0.0,0.0,0.0,0.0,0.0,0.0,0.0,0.0,0.0,0.0,0.0,0.0,0.0,0.0,0.0,0.0,0.0,0.0,0.0,0.0,0.0,0.0,0.0,0.0,0.0,0.0,0.0,0.0,0.0,0.0,0.0,0.0,0.0,0.0,0.0,0.0,0.0,0.0,0.0,0.0,0.0,0.0,0.0,0.0,0.0,0.0,0.0,0.0,0.0,0.0,0.0,0.0,0.0,0.0,0.0,0.0,0.0,0.0,0.0,0.0,0.0,3.189,3.4466,3.5843,3.7154,3.7325,3.5734,3.5329,3.4448,3.277,3.1961,0.0,0.0,0.0,0.0,0.0,0.0,0.0,0.0,0.0,0.0,0.0,0.0,0.0,0.0,0.0,0.0,0.0,0.0,0.0,0.0,0.0,0.0,0.0,0.0,0.0,0.0,0.0,0.0,0.0,0.0,0.0,0.0,0.0,0.0,0.0,0.0,0.0,0.0,0.0,0.0,0.0,0.0,0.0,0.0,0.0,0.0,0.0,0.0,0.0,0.0,0.0,0.0,0.0,0.0,0.0,0.0,0.0,0.0,0.0,0.0,0.0,0.0,0.0,0.0,0.0,0.0,0.0,0.0,0.0,0.0,0.0,0.0,0.0,0.0,0.0,0.0,0.0,0.0,0.0,0.0,0.0,0.0,0.0,0.0,0.0,0.0,0.0,0.0,0.0,0.0,0.0,0.0,0.0,0.0,0.0,0.0,0.0,0.0,0.0,0.0,0.0,0.0,3.1572,3.4049,3.6041,3.6362,3.6197,3.5558,3.4508,3.3348,3.2078,0.0,0.0,0.0,0.0,0.0,0.0,0.0,0.0,0.0,0.0,0.0,0.0,0.0,0.0,0.0,0.0,0.0,0.0,0.0,0.0,0.0,0.0,0.0,0.0,0.0,0.0,0.0,0.0,0.0,0.0,0.0,0.0,0.0,0.0,0.0,0.0,0.0,0.0,0.0,0.0,0.0,0.0,0.0,0.0,0.0,0.0,0.0,0.0,0.0,0.0,0.0,0.0,0.0,0.0,0.0,0.0,0.0,0.0,0.0,0.0,0.0,0.0,0.0,0.0,0.0,0.0,0.0,0.0,0.0,0.0,0.0,0.0,0.0,0.0,0.0,0.0,0.0,0.0,0.0,0.0,0.0,0.0,0.0,0.0,0.0,0.0,0.0,0.0,0.0,0.0,0.0,0.0,0.0,0.0,0.0,0.0,0.0,0.0,0.0,0.0,0.0,0.0,2.9475,3.1747,3.4098,3.618,3.5869,3.5357,3.5018,3.355,3.2199,3.1165,0.0,0.0,0.0,0.0,0.0,0.0,0.0,0.0,0.0,0.0,0.0,0.0,0.0,0.0,0.0,0.0,0.0,0.0,0.0,0.0,0.0,0.0,0.0,0.0,0.0,0.0,0.0,0.0,0.0,0.0,0.0,0.0,0.0,0.0,0.0,0.0,0.0,0.0,0.0,0.0,0.0,0.0,0.0,0.0,0.0,0.0,0.0,0.0,0.0,0.0,0.0,0.0,0.0,0.0,0.0,0.0,0.0,0.0,0.0,0.0,0.0,0.0,0.0,0.0,0.0,0.0,0.0,0.0,0.0,0.0,0.0,0.0,0.0,0.0,0.0,0.0,0.0,0.0,0.0,0.0,0.0,0.0,0.0,0.0,0.0,0.0,0.0,0.0,0.0,0.0,0.0,0.0,0.0,0.0,0.0,0.0,0.0,0.0,0.0,0.0,0.0,0.0,3.0019,3.2633,3.49,3.6244,3.5844,3.5068,3.3972,3.2485,3.1152,0.0,0.0,0.0,0.0,0.0,0.0,0.0,0.0,0.0,0.0,0.0,0.0,0.0,0.0,0.0,0.0,0.0,0.0,0.0,0.0,0.0,0.0,0.0,0.0,0.0,0.0,0.0,0.0,0.0,0.0,0.0,0.0,0.0,0.0,0.0,0.0,0.0,0.0,0.0,0.0,0.0,0.0,0.0,0.0,0.0,0.0,0.0,0.0,0.0,0.0,0.0,0.0,0.0,0.0,0.0,0.0,0.0,0.0,0.0,0.0,0.0,0.0,0.0,0.0,0.0,0.0,0.0,0.0,0.0,0.0,0.0,0.0,0.0,0.0,0.0,0.0,0.0,0.0,0.0,0.0,0.0,0.0,0.0,0.0,0.0,0.0,0.0,0.0,0.0,0.0,0.0,0.0,0.0,0.0,0.0,0.0,0.0,0.0,0.0,0.0,0.0,0.0,0.0,3.0289,3.2803,3.4911,3.5682,3.528,3.4502,3.3431,3.2265,3.1351,3.0743,0.0,0.0,0.0,0.0,0.0,0.0,0.0,0.0,0.0,0.0,0.0,0.0,0.0,0.0,0.0,0.0,0.0,0.0,0.0,0.0,0.0,0.0,0.0,0.0,0.0,0.0,0.0,0.0,0.0,0.0,0.0,0.0,0.0,0.0,0.0,0.0,0.0,0.0,0.0,0.0,0.0,0.0,0.0,0.0,0.0,0.0,0.0,0.0,0.0,0.0,0.0,0.0,0.0,0.0,0.0,0.0,0.0,0.0,0.0,0.0,0.0,0.0,0.0,0.0,0.0,0.0,0.0,0.0,0.0,0.0,0.0,0.0,0.0,0.0,0.0,0.0,0.0,0.0,0.0,0.0,0.0,0.0,0.0,0.0,0.0,0.0,0.0,0.0,0.0,0.0,0.0,0.0,0.0,0.0,0.0,0.0,0.0,0.0,0.0,0.0,0.0,0.0,3.1009,3.2975,3.4678,3.5408,3.4828,3.3936,3.2817,3.2034,3.1218,3.0299,0.0,0.0,0.0,0.0,0.0,0.0,0.0,0.0,0.0,0.0,0.0,0.0,0.0,0.0,0.0,0.0,0.0,0.0,0.0,0.0,0.0,0.0,0.0,0.0,0.0,0.0,0.0,0.0,0.0,0.0,0.0,0.0,0.0,0.0,0.0,0.0,0.0,0.0,0.0,0.0,0.0,0.0,0.0,0.0,0.0,0.0,0.0,0.0,0.0,0.0,0.0,0.0,0.0,0.0,0.0,0.0,0.0,0.0,0.0,0.0,0.0,0.0,0.0,0.0,0.0,0.0,0.0,0.0,0.0,0.0,0.0,0.0,0.0,0.0,0.0,0.0,0.0,0.0,0.0,0.0,0.0,0.0,0.0,0.0,0.0,0.0,0.0,0.0,0.0,0.0,0.0,0.0,0.0,0.0,0.0,0.0,0.0,0.0,0.0,0.0,0.0,0.0,3.1962,3.3133,3.4288,3.5319,3.4513,3.342,3.2229,3.1883,3.1021,2.9397,0.0,0.0,0.0,0.0,0.0,0.0,0.0,0.0,0.0,0.0,0.0,0.0,0.0,0.0,0.0,0.0,0.0,0.0,0.0,0.0,0.0,0.0,0.0,0.0,0.0,0.0,0.0,0.0,0.0,0.0,0.0,0.0,0.0,0.0,0.0,0.0,0.0,0.0,0.0,0.0,0.0,0.0,0.0,0.0,0.0,0.0,0.0,0.0,0.0,0.0,0.0,0.0,0.0,0.0,0.0,0.0,0.0,0.0,0.0,0.0,2.9974,2.9609,0.0,0.0,0.0,0.0,0.0,0.0,0.0,0.0,0.0,0.0,0.0,0.0,0.0,0.0,0.0,0.0,0.0,0.0,0.0,0.0,0.0,0.0,0.0,0.0,0.0,0.0,0.0,0.0,0.0,0.0,0.0,0.0,0.0,0.0,0.0,0.0,0.0,0.0,0.0,0.0,3.202,3.3172,3.4137,3.4803,3.4288,3.3269,3.1687,3.2176,3.2021,3.0761,3.1157,0.0,0.0,0.0,0.0,0.0,0.0,0.0,0.0,0.0,0.0,0.0,0.0,0.0,0.0,0.0,0.0,0.0,0.0,0.0,0.0,0.0,0.0,0.0,0.0,0.0,0.0,0.0,0.0,0.0,0.0,0.0,0.0,0.0,0.0,0.0,0.0,0.0,0.0,0.0,0.0,0.0,0.0,0.0,0.0,0.0,0.0,0.0,0.0,0.0,0.0,0.0,0.0,0.0,0.0,0.0,0.0,0.0,0.0,0.0,3.1612,3.0797,0.0,0.0,0.0,0.0,0.0,0.0,0.0,0.0,0.0,0.0,0.0,0.0,0.0,0.0,0.0,0.0,0.0,0.0,0.0,0.0,0.0,0.0,0.0,0.0,0.0,0.0,0.0,0.0,0.0,0.0,0.0,0.0,0.0,0.0,0.0,0.0,0.0,0.0,0.0,0.0,3.2153,3.2968,3.3765,3.4382,3.427,3.345,3.1736,3.2652,3.2686,3.1189,3.1867,0.0,0.0,0.0,0.0,0.0,0.0,0.0,0.0,0.0,0.0,0.0,0.0,0.0,0.0,0.0,0.0,0.0,0.0,0.0,0.0,0.0,0.0,0.0,0.0,0.0,0.0,0.0,0.0,0.0,0.0,0.0,0.0,0.0,0.0,0.0,0.0,0.0,0.0,0.0,0.0,0.0,0.0,0.0,0.0,0.0,0.0,0.0,0.0,0.0,0.0,0.0,0.0,0.0,3.5068,3.5405,3.5845,3.5845,3.5892,3.593,3.4346,3.3045,3.1949,3.1732,0.0,0.0,0.0,0.0,0.0,0.0,0.0,0.0,0.0,0.0,0.0,0.0,0.0,0.0,0.0,0.0,0.0,0.0,0.0,0.0,0.0,0.0,3.3016,3.2904,3.3296,3.3257,3.1709,0.0,0.0,0.0,0.0,0.0,0.0,0.0,0.0,0.0,0.0,0.0,3.2325,3.281,3.346,3.428,3.4302,3.3659,3.2116,3.3177,3.3215,3.1565,3.2596,3.336,0.0,0.0,0.0,0.0,0.0,0.0,0.0,0.0,0.0,0.0,0.0,0.0,0.0,0.0,0.0,0.0,0.0,0.0,0.0,0.0,0.0,0.0,0.0,0.0,0.0,0.0,0.0,0.0,0.0,0.0,0.0,0.0,3.1021,3.0443,0.0,0.0,0.0,0.0,0.0,0.0,0.0,0.0,0.0,0.0,0.0,0.0,0.0,3.4936,3.5377,3.7223,3.7916,3.7428,3.8524,3.8825,3.8414,3.8414,3.8695,3.9191,3.8938,0.0,3.3748,3.2699,0.0,0.0,0.0,0.0,0.0,0.0,0.0,0.0,0.0,0.0,0.0,0.0,0.0,0.0,0.0,0.0,0.0,0.0,0.0,0.0,0.0,0.0,3.5489,3.4964,3.5017,3.5135,3.488,3.3071,3.1274,3.0528,3.0078,3.0029,0.0,0.0,0.0,0.0,0.0,0.0,3.281,3.32,3.3784,3.4871,3.4269,3.3498,3.2794,3.3574,3.3752,3.2975,3.3254,3.3707,3.4275,3.3777,0.0,0.0,0.0,0.0,0.0,0.0,0.0,0.0,0.0,0.0,0.0,0.0,0.0,0.0,0.0,0.0,0.0,0.0,0.0,0.0,0.0,0.0,0.0,0.0,0.0,0.0,0.0,0.0,0.0,3.121,3.1631,3.0604,3.1378,3.1387,0.0,0.0,0.0,0.0,0.0,0.0,0.0,0.0,0.0,3.5349,3.695,3.7916,3.8179,3.9658,4.0473,4.0558,4.0865,4.1071,4.1166,4.1305,4.1511,4.1767,4.1767,4.0422,3.8083,3.5883,3.4356,3.3327,0.0,0.0,0.0,0.0,3.3027,3.3111,3.3849,3.341,3.2673,3.3215,0.0,0.0,0.0,0.0,0.0,0.0,0.0,3.3812,3.3765,3.5525,3.7306,3.7157,3.7443,3.7671,3.731,3.6058,3.4383,3.23,3.2155,3.2178,3.1582,3.1377,0.0,0.0,0.0,3.3139,3.3907,3.3922,3.4132,3.4904,3.5089,3.4597,3.3244,3.4593,3.4834,3.3297,3.3704,3.4109,3.4391,3.4138,3.4001,0.0,0.0,0.0,0.0,0.0,0.0,0.0,0.0,0.0,0.0,0.0,0.0,0.0,0.0,0.0,0.0,0.0,0.0,0.0,0.0,0.0,0.0,0.0,0.0,0.0,0.0,0.0,0.0,3.2278,3.2644,3.1228,3.2596,3.2728,0.0,0.0,0.0,0.0,0.0,0.0,3.6061,3.7008,3.7899,3.873,4.027,4.1289,4.1675,4.2557,4.3167,4.3477,4.3176,4.318,4.3482,4.3671,4.3761,4.3761,4.3761,4.3132,4.1889,3.9056,3.6881,3.5272,3.4606,3.4447,3.4635,3.5085,3.5254,3.5367,3.6222,3.5629,3.4569,3.4701,3.4008,3.2988,3.237,0.0,0.0,0.0,0.0,3.5132,3.5797,3.7271,3.8685,3.8996,3.9466,3.9725,3.9258,3.8666,3.7348,3.4303,3.4204,3.4219,3.2998,3.3276,0.0,3.3842,3.466,3.5238,3.5228,3.5272,3.5346,3.5426,3.6201,3.6016,3.4285,3.5522,3.5628,3.3876,3.4143,3.4382,3.4382,3.4382,3.4382,3.4382,0.0,0.0,0.0,0.0,0.0,0.0,0.0,0.0,0.0,0.0,0.0,0.0,0.0,0.0,0.0,0.0,0.0,0.0,0.0,0.0,0.0,0.0,0.0,0.0,0.0,0.0,0.0,0.0,0.0,3.2806,3.5284,0.0,0.0,0.0,0.0,3.5001,3.7205,3.8611,3.8705,4.0378,4.2017,4.3522,4.4185,4.5266,4.6733,4.679,4.6509,4.5932,4.5915,4.5572,4.4989,4.5001,4.5001,4.5001,4.5001,4.4641,4.3864,4.1352,3.955,3.831,3.7509,3.7536,3.8064,3.8093,3.8083,3.8036,3.7729,3.6645,3.5531,3.6108,3.5732,3.4927,3.4263,3.4506,0.0,0.0,3.5582,3.7156,3.7204,3.8325,3.9596,4.0255,4.057,4.0731,4.0703,4.0184,3.8898,3.6184,3.525,3.4902,3.4925,0.0,3.5134,3.6079,3.6649,3.6907,3.6711,3.7615,3.7914,3.6989,3.7448,3.7443,3.6504,3.6017,3.5605,3.5314,3.4731,3.4382,3.4382,3.4382,3.4382,3.4382,3.4382,0.0,0.0,0.0,0.0,0.0,0.0,0.0,0.0,0.0,0.0,0.0,0.0,0.0,0.0,0.0,0.0,0.0,0.0,0.0,0.0,0.0,0.0,0.0,0.0,0.0,0.0,0.0,0.0,3.6921,3.8926,0.0,3.6521,3.7054,3.7898,3.8685,4.0467,4.2062,4.3279,4.4862,4.6156,4.7159,4.7763,4.8358,4.8885,4.846,4.815,4.7881,4.726,4.6826,4.6596,4.676,4.6587,4.6189,4.6189,4.5595,4.4618,4.4149,4.2815,4.0962,4.0261,3.9888,3.9715,3.9735,3.9725,3.9639,3.9063,3.85,3.7947,3.7233,3.6797,3.6514,3.6269,3.6363,3.6608,3.694,3.8174,3.9478,4.001,4.1115,4.2254,4.2662,4.2804,4.2847,4.2847,4.2326,4.1466,4.0114,3.8563,3.7382,3.7154,3.7205,3.7524,3.8262,3.85,3.8766,3.9244,3.9173,3.8828,3.8228,3.8486,3.816,3.6897,3.6599,3.6219,3.5632,3.4845,3.4382,3.4382,3.4382,3.4382,3.4382,3.4382,3.4382,0.0,0.0,0.0,0.0,0.0,0.0,0.0,0.0,0.0,0.0,0.0,0.0,0.0,0.0,0.0,0.0,0.0,0.0,0.0,0.0,0.0,0.0,0.0,0.0,0.0,3.8223,4.0204,4.0393,4.2467,4.2939,4.065,4.1195,4.1994,4.2804,4.4402,4.5871,4.7112,4.8313,4.9307,5.0067,5.0242,5.0481,5.0813,5.0143,4.9613,4.9166,4.8502,4.7951,4.7529,4.7723,4.7561,4.7132,4.6888,4.6308,4.5547,4.579,4.51,4.3785,4.2847,4.2241,4.1887,4.1887,4.1743,4.1418,4.0558,3.9974,3.9476,3.8639,3.8229,3.803,3.803,3.8332,3.8789,3.9386,4.0517,4.166,4.2199,4.3044,4.3777,4.3957,4.399,4.399,4.399,4.3641,4.3235,4.2828,4.1062,3.9566,3.9334,3.9633,4.0148,4.09,4.0976,4.1071,4.1443,4.1023,4.0414,3.9623,3.973,3.927,3.778,3.7469,3.6883,3.583,3.5194,3.4725,3.4513,3.4454,3.4382,3.4382,3.4382,3.4382,3.4382,0.0,0.0,0.0,0.0,0.0,0.0,0.0,0.0,0.0,0.0,0.0,0.0,0.0,0.0,0.0,0.0,0.0,0.0,0.0,0.0,0.0,0.0,0.0,3.7939,4.1334,4.3661,4.3105,4.5785,4.6615,4.3922,4.586,4.7284,4.7284,4.8984,5.0042,5.0042,5.0602,5.1348,5.2227,5.1664,5.1764,5.2655,5.1991,5.102,4.9809,4.978,4.9112,4.7921,4.7921,4.7892,4.7834,4.7178,4.6876,4.676,4.6185,4.6272,4.6691,4.5224,4.4656,4.4627,4.4627,4.4201,4.3448,4.2202,4.0964,3.9992,4.0441,4.0151,3.9626,3.9626,4.0473,4.1463,4.1474,4.2514,4.3636,4.3636,4.3856,4.4048,4.4048,4.4048,4.4048,4.4048,4.4048,4.4019,4.4019,4.2509,4.1283,4.1554,4.2081,4.283,4.3871,4.4041,0.0,4.3142,4.3194,4.2743,4.1196,4.1282,4.081,3.9265,3.857,3.754,3.6013,3.5762,3.5367,3.4719,3.4513,3.4382,3.4382,3.4382,3.4382,3.4382,0.0,0.0,0.0,0.0,0.0,0.0,0.0,0.0,0.0,0.0,0.0,0.0,0.0,0.0,0.0,0.0,0.0,0.0,0.0,0.0,0.0,3.9874,4.2467,4.1902,4.4923,4.7441,4.8156,5.0219,5.1011,4.9638,5.05,5.1145,5.1145,5.2274,5.2954,5.2954,5.3704,5.4068,5.3875,5.4106,5.4146,5.3994,5.3313,5.2791,5.2455,5.1527,5.0875,5.0556,5.0556,5.0046,4.917,4.8989,4.838,4.7462,4.6812,4.6928,4.7375,4.607,4.5526,4.5468,4.5005,4.4414,4.3824,4.3487,4.3139,4.2836,4.2778,4.2617,4.2474,4.2474,4.2732,4.3052,4.3232,4.3878,4.4541,4.4541,4.4962,4.5384,4.5384,4.5384,4.5384,4.5384,4.5006,4.4658,4.4658,4.3973,4.343,4.3504,4.3933,4.4381,4.4674,4.4849,4.4701,4.402,4.3975,4.3499,4.2159,4.2086,4.1564,4.0173,3.891,3.7756,3.6688,3.5578,3.4823,3.4496,3.4445,3.4382,3.4382,3.4382,3.4382,0.0,0.0,0.0,0.0,0.0,0.0,0.0,0.0,0.0,0.0,0.0,0.0,0.0,0.0,0.0,0.0,0.0,0.0,0.0,0.0,0.0,0.0,4.4137,4.731,4.7482,4.9288,5.0944,5.196,5.3248,5.3846,5.3353,5.3627,5.3829,5.3829,5.4352,5.4635,5.4635,5.5118,5.5229,5.488,5.5229,5.5229,5.488,5.4503,5.4039,5.3487,5.2762,5.2123,5.1588,5.1588,5.1195,5.0481,5.022,4.9536,4.8548,4.7886,4.7828,4.8014,0.0,0.0,0.0,0.0,4.4687,4.4367,4.4367,4.4222,4.4026,4.4099,4.3968,4.3766,4.3766,4.3939,4.4175,4.4324,4.4832,4.5325,4.5325,4.5616,4.5906,4.5906,4.5906,4.5906,4.5906,4.5587,4.533,4.5418,4.5336,0.0,4.5384,4.5405,4.5529,4.5911,4.5819,4.5563,4.5204,4.4905,4.4317,4.3319,4.295,4.2142,4.0546,3.9358,0.0,0.0,0.0,3.5079,3.4547,3.4454,0.0,0.0,0.0,3.4382,3.4382,3.469,0.0,0.0,3.4536,3.4536,0.0,0.0,0.0,0.0,0.0,0.0,0.0,0.0,0.0,0.0,0.0,0.0,0.0,0.0,0.0,0.0,4.8575,5.2174,5.3486,5.3948,5.43,5.4677,5.5374,5.5809,5.5722,5.5794,5.5852,5.5852,5.5852,5.5852,5.5852,5.5852,0.0,0.0,0.0,5.5693,5.5606,5.5562,5.4952,5.3836,5.3749,5.311,5.2036,5.1978,5.1891,5.1775,5.1162,5.0535,4.9855,4.9105,4.8716,4.8438,4.6766,4.6388,4.6656,4.5459,4.5006,4.5006,4.5006,0.0,0.0,4.4832,4.4658,4.4222,4.4222,4.46,4.5006,4.5006,4.5442,4.5906,4.5906,4.5906,4.5906,4.5906,4.5906,4.5906,4.5906,4.5929,4.5978,4.6169,4.6436,4.6679,4.6876,4.6488,4.6418,4.7187,4.679,4.639,4.63,4.5773,4.5155,4.4486,4.3818,0.0,4.0786,3.9939,3.8703,3.6827,3.6352,3.5743,3.4744,3.4538,3.4437,3.4382,3.4478,3.4507,3.4507,3.5171,3.5508,3.5479,3.4893,3.4922,0.0,0.0,0.0,0.0,0.0,0.0,0.0,0.0,0.0,0.0,0.0,0.0,0.0,0.0,0.0,4.7753,5.1719,5.4883,5.6306,5.7478,5.7637,5.6186,5.7536,5.8348,5.7797,5.8232,5.8552,5.8552,5.8552,5.8552,5.8552,5.8552,5.829,5.7768,5.7739,5.7477,5.6955,5.6461,5.607,5.5838,5.5287,0.0,5.4648,5.4155,5.3632,5.311,5.2497,5.1859,5.1137,4.9992,4.8902,4.7939,4.7561,4.7172,4.6714,4.5982,4.5703,4.5703,4.5703,4.5616,4.5558,4.5674,4.5616,4.5529,4.5529,4.5616,0.0,4.5703,4.579,4.5906,4.5906,4.5906,4.5906,4.5906,4.5906,4.5906,4.5906,4.6023,4.6158,4.6202,4.6558,4.6855,4.6898,4.6994,4.7106,4.7268,4.7179,4.6909,4.636,4.6181,4.5862,4.5185,4.4516,4.3539,4.2131,4.0885,3.9534,3.7956,3.6678,3.5571,3.4735,3.4664,3.4572,3.4382,3.4939,3.5209,3.5209,3.5831,3.6141,3.6112,3.5987,3.5987,0.0,0.0,0.0,0.0,0.0,0.0,0.0,0.0,0.0,0.0,0.0,4.0552,4.3215,0.0,4.912,5.2209,5.5229,5.7466,5.8218,5.9422,5.9655,5.8058,5.8726,5.9161,5.8842,5.9103,5.9306,5.9306,5.9306,5.9306,5.9306,5.9306,5.9161,5.8813,5.8464,5.8145,5.7797,5.7507,5.7042,5.639,5.6361,5.6026,5.5374,5.5084,5.4764,5.4416,5.4139,5.3442,5.2443,5.0859,4.9826,4.917,4.8508,4.7869,4.7219,4.6592,4.6348,4.6319,4.5993,4.5906,4.5906,4.5906,4.5906,4.5906,4.5906,4.5906,4.5906,4.5906,4.6127,4.6272,4.5993,4.6127,4.6348,4.6348,4.6127,4.6114,4.6879,4.6859,4.6859,4.743,4.7477,4.7558,4.8019,4.7652,4.7309,4.7309,4.7309,4.7179,4.685,4.679,4.655,4.5862,4.5503,4.4636,4.3,4.1055,3.9304,3.789,3.6993,3.633,3.5809,3.5706,3.5568,3.5349,3.5685,3.5839,3.5839,3.6489,3.6945,3.7264,3.7583,3.7409,0.0,0.0,0.0,0.0,0.0,0.0,0.0,3.6911,3.8667,4.0906,4.3224,4.5774,4.8735,5.1324,5.3761,5.6055,5.8147,5.948,5.948,6.0467,6.0816,5.98,5.9684,5.9684,5.9684,5.9684,5.9684,5.9684,5.9684,5.9684,5.9684,5.9684,5.9684,5.9684,5.9016,5.8668,5.8668,5.8552,5.8058,5.7144,5.7623,5.7274,5.6157,5.6012,5.5823,5.5577,5.5474,5.4677,5.3371,5.1859,5.1116,5.0755,4.9553,4.8798,4.8258,4.7335,4.7004,4.6928,4.6301,4.608,4.608,4.608,4.608,4.6109,4.6226,4.6255,4.6255,4.6255,4.6621,4.6859,4.6243,4.6522,4.6946,4.683,4.6568,4.6682,4.7927,4.7849,4.7809,4.8727,4.8502,4.8414,4.9164,4.8397,4.7698,4.7698,4.7459,4.7369,4.7489,4.7369,4.7089,4.654,4.639,4.5493,4.3479,4.1246,3.937,3.7875,3.7702,3.74,3.691,3.6752,3.6596,3.6489,3.6597,3.6742,3.6858,3.7525,3.8077,3.858,3.9179,3.8879,3.4013,3.4082,3.4704,3.6136,3.6834,3.8415,0.0,4.3912,4.4446,4.8047,4.9463,5.0743,5.3005,5.4601,5.6127,5.777,5.9205,6.009,6.009,6.0729,6.1135,6.099,6.099,6.099,6.099,6.099,6.099,6.099,6.099,6.099,6.099,6.099,6.099,6.099,6.0322,5.9974,5.9974,5.9451,5.9393,5.9771,5.9829,5.951,5.8842,5.8261,5.7361,5.6244,5.5678,5.4677,5.3487,5.3255,5.253,5.1427,5.0755,5.0448,5.0158,4.8345,4.7677,4.759,4.6928,4.6714,4.6714,4.6714,4.6714,4.6801,4.7416,4.7602,4.7602,4.7602,4.7648,4.7532,4.6859,4.7201,4.7532,4.6946,4.7404,4.7998,4.8167,4.8466,4.8739,4.8885,4.9036,4.9164,4.9288,4.9168,4.9078,4.9078,4.8068,4.7519,4.8098,4.7668,4.7268,4.7209,4.667,4.5493,4.3479,4.2531,4.1254,3.9302,3.9164,3.8496,3.6969,3.6884,3.6963,3.7186,3.7699,3.8289,3.887,3.9479,3.9828,3.9886,4.0208,4.0159,3.6052,3.6786,3.7786,3.8649,4.0701,4.3134,4.5503,4.7236,4.9026,5.1385,5.3333,5.5244,5.7293,5.8075,5.89,6.0278,6.0671,6.0787,6.0787,6.1019,6.1048,6.0671,6.0961,6.1193,6.1193,6.1193,6.1193,6.1193,6.1193,6.1193,6.1193,6.1193,6.1193,6.1193,6.0555,6.0206,6.0206,5.9945,5.9771,5.9684,6.0438,6.0264,5.9306,5.9364,5.8726,5.7448,5.6432,5.5474,5.4561,5.3807,5.2978,5.212,5.1468,5.1017,5.0506,4.8914,4.8321,4.8234,4.7608,4.7375,4.7317,4.6917,4.6789,4.6859,4.7132,4.7219,4.7317,4.7677,4.7805,4.7735,4.7433,4.759,4.7869,4.8086,4.8173,4.8494,4.948,4.9596,4.9632,5.0128,5.0023,4.9942,5.0331,4.9786,4.9546,5.0272,4.9295,4.8558,4.8858,4.8308,4.7728,4.7339,4.6689,4.5792,4.4576,4.3868,4.283,4.1254,4.1164,4.0537,3.9208,3.9169,3.9082,3.8937,3.9189,3.945,3.9712,3.9973,4.0292,4.068,4.0928,4.1182,3.7453,3.8751,4.0278,4.1122,4.4218,4.7313,4.8181,5.0755,5.3363,5.4824,5.6727,5.8581,6.0177,6.0467,6.0816,6.1919,6.1716,6.1454,6.1454,6.1309,6.0874,6.0061,6.0206,6.0467,6.0642,6.099,6.1193,6.1193,6.1193,6.1193,6.1193,6.1193,6.1193,6.1193,6.0729,6.0467,6.0467,6.0467,6.0351,6.009,6.1193,6.1048,5.9829,5.9713,5.9074,5.7971,5.7042,5.6273,5.5606,5.4677,5.3849,5.3049,5.2385,5.1759,5.1087,4.9918,4.9267,4.8902,4.8246,4.8055,4.7968,4.7468,4.7311,4.7352,4.7538,4.7596,4.7712,4.82,4.8473,4.8502,4.8142,4.8364,4.8761,4.9039,4.9016,4.9263,5.0532,5.0513,5.044,5.1092,5.0817,5.0637,5.1128,5.0421,5.0133,5.1068,5.0421,4.9744,4.9565,4.8828,4.8038,4.7358,4.6879,4.6311,4.5623,4.5144,4.4317,4.302,4.275,4.2206,4.1203,4.0967,4.0734,4.0449,4.0478,4.0526,4.0641,4.071,4.0963,4.1468,4.1721,4.2086,3.8015,3.9351,4.1317,4.3625,4.6764,5.01,5.3158,5.5557,5.7667,5.9582,6.0061,6.0322,6.1048,6.1164,6.1367,6.2006,6.2064,6.2064,6.2064,6.1571,6.0729,5.948,5.8784,5.8639,5.9306,6.0467,6.1193,6.1193,6.1193,6.1193,6.1193,6.1193,6.1193,6.1193,6.1164,6.1164,6.1164,6.1164,6.1454,6.2006,6.2703,6.2399,6.1077,5.9219,5.7971,5.7332,5.7303,5.6926,5.6361,5.6332,5.5577,5.4387,5.3691,5.3065,5.2452,5.1775,5.0743,4.9565,4.8902,4.8658,4.8658,4.8658,4.8629,4.8745,4.942,4.9606,4.9606,4.9635,5.01,5.032,4.9018,4.9769,5.0605,4.9396,4.9923,5.0739,5.0781,5.0999,5.1176,5.1176,5.1176,5.1187,5.1206,5.1187,5.1158,5.1176,5.1187,5.0907,5.0267,4.9075,4.8038,4.7358,4.7268,4.6999,4.633,4.6241,4.5672,4.4337,4.3638,4.2922,4.2079,4.1436,4.1183,4.1349,4.1378,4.1579,4.2044,4.2231,4.2323,4.2373,4.278,4.2971,4.0044,4.2578,4.5436,4.8235,5.1186,5.4004,5.635,5.8088,5.9422,6.0061,5.9161,5.861,5.9742,5.9219,5.8958,6.0061,6.0961,6.1483,6.1483,6.1338,6.0729,5.9451,5.9858,5.9974,5.9364,5.9845,6.0486,6.115,6.1582,6.1613,6.1223,6.1597,6.1702,6.1464,6.1687,6.1687,6.1449,6.1687,6.1775,6.177,6.2004,6.212,6.2062,6.0368,5.9219,5.861,5.8174,5.739,5.6361,5.5925,5.5258,5.4445,5.3778,5.3123,5.2568,5.2352,5.1701,5.0946,5.0689,5.0726,5.0828,5.0415,5.042,5.0595,5.083,5.0889,5.0977,5.1388,5.1358,5.1124,5.0671,5.0937,5.1241,5.0968,5.1521,5.2178,5.2359,5.2097,5.1846,5.1846,5.1487,5.1206,5.1206,5.1206,5.1206,5.1206,5.1206,5.0966,5.0297,4.983,4.9153,4.8098,4.7978,4.7698,4.7029,4.6969,4.657,4.5672,4.5433,4.4921,4.4051,4.3793,4.366,4.3578,4.3578,4.3665,4.3816,4.3459,4.349,4.3931,4.3739,4.3901,4.287,4.5973,4.9202,5.2056,5.4626,5.6883,5.8581,5.98,6.0438,5.9974,5.8493,5.7419,5.7826,5.6665,5.6113,5.7652,5.8406,5.9219,6.0351,6.0322,5.9945,5.9364,5.98,5.9945,5.9364,5.9524,6.0165,6.1272,6.1821,6.1924,6.1523,6.1895,6.1939,6.1628,6.1924,6.1924,6.1613,6.1924,6.2042,6.1964,6.1701,6.1641,6.1697,6.044,5.9539,5.89,5.8232,5.7608,5.7042,5.6485,5.574,5.4912,5.4531,5.3898,5.3189,5.2982,5.2723,5.2338,5.18,5.1778,5.1942,5.1545,5.1584,5.1822,5.1822,5.1822,5.1911,5.2294,5.2294,5.2117,5.1881,5.2073,5.2302,5.217,5.2547,5.2979,5.315,5.2857,5.2498,5.2247,5.1846,5.1487,5.1247,5.1206,5.1206,5.1206,5.1206,5.0966,5.0297,5.0207,4.971,4.8427,4.8308,4.8038,4.7369,4.7309,4.7119,4.6689,4.642,4.6068,4.5483,4.5215,4.5002,4.4811,4.4811,4.4769,4.4695,4.4336,4.4408,4.4811,4.4576,4.4709,4.6395,4.9441,5.2501,5.4967,5.7013,5.8726,5.9916,6.0642,6.0671,5.9364,5.7942,5.6549,5.5287,5.3688,5.3136,5.501,5.5026,5.5881,5.903,5.8914,5.8755,5.9394,0.0,0.0,0.0,5.9742,6.0428,6.1599,6.1998,6.216,6.2101,6.2175,6.2042,6.1673,6.1969,6.1983,6.1658,6.1954,6.2277,6.261,6.1965,6.1173,6.0294,5.9684,5.903,5.8319,5.7695,5.7753,5.8217,5.7917,5.7004,5.5866,5.5906,5.5288,5.4298,5.3795,5.3726,5.3717,5.2264,5.1903,5.213,5.2143,5.2314,5.2538,5.2538,5.2538,5.2538,5.2538,5.301,5.3352,5.2656,5.3168,5.3711,5.3045,5.3093,5.3306,5.3306,5.3288,5.3067,5.2426,5.2247,5.2007,5.1367,5.1206,5.1206,5.1206,5.1206,5.0966,5.0327,5.0267,4.977,4.8547,4.8368,4.8068,4.7429,4.7328,4.7309,4.7309,4.6689,4.636,4.636,4.5753,4.53,4.5132,4.5121,4.5016,4.4845,4.4997,4.5091,4.5132,4.5271,4.5364,5.0436,5.3413,5.6244,5.787,5.9016,5.98,6.0119,5.9597,5.8552,5.6781,5.3865,5.1385,5.0544,5.1195,5.2326,5.3749,5.6665,5.9437,6.1449,6.1611,6.1582,6.1757,0.0,6.1918,6.1085,6.2202,6.3015,6.3076,6.3165,6.2898,6.2145,6.3001,6.3148,6.2366,6.2658,6.2672,6.2336,6.2439,6.266,6.2969,6.2542,6.2086,6.1601,6.1189,6.0282,5.906,5.9087,5.8504,5.7549,5.7452,5.7065,5.6523,5.6297,5.5725,5.5044,5.49,5.4577,5.4129,5.3741,5.3666,5.3768,5.4002,5.4255,5.4482,5.4482,5.4482,5.4482,5.4482,5.4601,5.4601,5.3903,5.4281,5.4672,5.399,5.4261,5.4683,5.4683,5.4294,5.3892,5.37,5.2875,5.2157,5.1977,5.1517,5.1206,5.1206,5.1206,5.1146,5.0966,5.0936,5.0637,4.98,4.9325,4.8768,4.8098,4.7578,4.7309,4.7309,4.7149,4.7059,4.7059,4.6879,4.6768,4.6715,4.6715,4.6693,4.6639,4.6205,4.6226,4.6715,4.6249,4.6311,5.363,5.6374,5.8755,5.951,6.0177,6.0264,5.8842,5.7971,5.6593,5.3545,5.073,4.8595,4.7625,4.8583,5.0005,5.1585,5.5028,5.8401,6.0999,6.1599,6.2067,0.0,6.3355,0.0,6.2564,6.3453,6.4081,6.404,6.4145,6.3832,6.2986,6.3607,6.3561,6.2644,6.2934,6.3007,6.2818,6.2818,6.2847,6.2876,6.2687,6.2291,6.1674,6.1351,6.0662,5.9698,5.939,5.8835,5.8104,5.7973,5.7642,5.7168,5.6987,5.6588,5.6061,5.5841,5.5385,5.4957,5.5265,5.5164,5.4894,5.4811,5.4994,5.5251,5.5551,5.5641,5.57,5.597,5.603,5.594,5.5568,5.5551,5.5611,5.5508,5.5329,5.5281,5.5581,5.5089,5.4551,5.4269,5.3354,5.2558,5.2247,5.1887,5.1546,5.1236,5.1206,5.1206,5.1206,5.1206,5.0936,5.0267,4.9643,4.9048,4.8368,4.7698,4.7309,4.7309,4.7309,4.7309,4.7309,4.7309,4.7309,4.7309,4.7309,4.7309,4.7309,4.6909,4.6939,4.7309,4.6909,4.6939,5.6506,5.8639,6.0351,6.0438,6.07,6.0119,5.697,5.5939,5.4429,5.0092,4.8101,4.6806,4.5616,4.6197,4.7556,4.9667,5.251,5.5838,5.9855,6.0882,6.1938,6.3888,6.4035,6.3961,6.3961,6.4325,6.4645,6.4888,6.5233,6.5039,6.4186,6.4126,6.3665,6.2703,6.2949,6.3108,6.3108,6.3108,6.2949,6.2673,6.2673,6.223,6.1392,6.1087,6.0734,6.0302,5.9457,5.9119,5.9182,5.8981,5.8467,5.7832,5.787,5.7613,5.7191,5.6703,5.6249,5.5983,5.6561,5.637,5.5805,5.527,5.5258,5.5551,5.6149,5.6312,5.6432,5.6958,5.7094,5.7094,5.7094,5.6718,5.6462,5.6987,5.6269,5.5611,5.6179,5.5803,5.5119,5.4461,5.3773,5.3156,5.2576,5.2306,5.2007,5.1427,5.1265,5.1206,5.1206,5.1206,5.0966,5.0387,4.9793,4.9187,4.8596,4.7938,4.7578,4.7578,4.7578,4.7519,4.7429,4.7519,4.7489,4.7309,4.7399,4.7399,4.7309,4.7309,4.7309,4.7309,4.7309,4.7309,5.9829,6.07,6.1135,6.1644,6.07,5.8929,5.6186,5.3572,0.0,4.7271,4.5093,4.3612,4.2876,4.5149,4.8126,5.1198,5.4466,5.8297,6.3091,6.3862,6.4647,6.6603,6.6321,6.5979,6.5979,6.6561,6.6821,6.6608,6.7133,6.67,6.4904,6.4829,6.4276,6.3051,6.3064,6.3108,6.3108,6.3108,6.3064,6.3021,6.3021,6.2788,6.2349,6.2291,6.1819,6.1024,6.1079,6.037,5.9238,5.9691,5.9343,5.8556,5.8757,5.8477,5.7935,5.7812,5.7381,5.6879,5.6999,5.6969,5.6849,5.673,5.6726,5.6795,5.6898,5.6958,5.6958,5.7077,5.7094,5.7094,5.7094,5.7017,5.6958,5.7077,5.6915,5.6795,5.6928,5.6449,5.5833,5.5162,5.4491,5.3982,5.388,5.2935,5.2157,5.2025,5.1546,5.1206,5.1206,5.1206,5.1158,5.1026,5.0428,5.0009,4.989,4.9325,4.8947,4.8947,4.8947,4.8708,4.8158,4.8648,4.8427,4.7328,4.7848,4.7848,4.7309,4.7309,4.7309,4.7309,4.7309,4.7309,6.1338,6.1658,6.1745,6.2035,6.0438,5.7768,5.3849,0.0,0.0,4.4193,4.2654,4.2044,4.2092,4.4512,4.7124,4.9042,5.2356,5.6375,6.1166,6.2512,6.4159,6.7145,6.7502,6.7547,6.7547,6.7986,6.8069,6.7553,6.8151,6.7777,6.6116,6.5039,6.4216,6.3602,6.3273,6.3108,6.3108,6.3108,6.3108,6.3108,6.3108,6.3021,6.2862,6.2687,6.2273,6.1677,6.1619,6.1054,6.0161,6.0126,5.9838,5.94,5.9194,5.8906,5.8637,5.8637,5.8188,5.7679,5.8022,5.7902,5.7693,5.8022,5.7663,5.7154,5.75,5.762,5.7679,5.8052,5.8141,5.8141,5.8141,5.7872,5.7709,5.8052,5.7603,5.7017,5.6688,5.6119,5.5581,5.5251,5.494,5.461,5.4269,5.3671,5.3114,5.2767,5.2157,5.1726,5.1726,5.1427,5.1206,5.1206,5.0596,5.0207,5.0207,4.9643,4.9288,4.9288,4.9288,4.9168,4.8828,4.9138,4.9007,4.8338,4.8308,4.8308,4.8338,4.7978,4.7818,4.7829,4.8188,4.8158,6.2166,6.2209,6.2122,6.2283,5.9974,5.649,5.1917,4.8955,4.6051,4.2121,4.1192,4.1308,4.1976,4.3888,4.5694,4.673,4.9815,5.3723,5.852,6.0776,6.3327,6.7135,6.8193,6.8669,6.8804,6.8921,6.8824,6.8466,6.8764,6.8405,6.7074,6.5233,6.4156,6.4006,6.3422,6.3108,6.3108,6.3108,6.3108,6.3108,6.3108,6.3108,6.3093,6.2833,6.2579,6.2301,6.2028,6.1595,6.106,6.0699,6.028,5.9861,5.9458,5.9308,5.9308,5.9308,5.9056,5.8803,5.9355,5.9085,5.8607,5.9129,5.8501,5.7633,5.8158,5.8294,5.8427,5.8936,5.9099,5.9099,5.9099,5.8697,5.8457,5.8966,5.8291,5.7287,5.6402,5.5803,5.5341,5.5042,5.497,5.485,5.4491,5.4299,5.4012,5.3486,5.2857,5.2396,5.2396,5.1947,5.1636,5.1636,5.0907,5.0357,5.0207,5.0032,4.9786,4.9505,4.9756,4.9786,4.9516,4.9636,4.9576,4.9318,4.8906,4.8906,4.9288,4.8768,4.8528,4.8528,4.9048,4.9018,6.2819,6.2558,6.2254,6.2863,5.9306,5.4938,5.2152,0.0,4.457,4.244,4.1512,4.1308,4.1976,4.293,4.4443,4.6848,4.9374,5.2854,5.8108,6.1204,6.4187,6.7552,6.8553,6.9196,6.981,6.9347,6.9213,6.9768,6.9319,6.8405,6.7074,6.5667,6.462,6.4006,6.3422,6.3108,6.3108,6.3108,6.3108,6.3108,6.3108,6.3108,6.3108,6.3064,6.3049,6.3003,6.2989,6.2257,6.115,6.1702,6.0835,5.9249,5.9787,6.001,6.001,6.001,6.0356,6.0821,6.088,6.0475,5.9921,5.998,5.9518,5.8919,5.9009,5.8996,5.9026,5.9085,5.9099,5.9099,5.9099,5.9069,5.9026,5.9099,5.9009,5.8411,5.6581,5.6162,5.5743,5.4521,5.4299,5.4461,5.4999,5.461,5.4179,5.4119,5.3545,5.3097,5.3097,5.3037,5.3019,5.3019,5.1876,5.0877,5.0267,5.1277,5.1409,5.0177,5.1247,5.1409,5.0177,5.0697,5.0481,4.9318,4.9781,4.9781,4.9288,4.9228,4.9198,4.9198,4.9258,4.9258,6.2616,6.3167,6.321,6.3109,5.8958,5.4184,5.1643,0.0,4.3322,4.1802,4.1279,4.1308,4.1976,4.2378,4.3125,4.4698,4.5861,4.8315,5.3325,5.6174,5.9711,6.4979,6.6894,6.8525,7.035,7.029,7.0111,7.0007,6.9379,6.8585,6.7643,6.5936,6.4874,6.462,6.3632,6.3108,6.3108,6.3108,6.3108,6.3108,6.3108,6.3108,6.3108,6.3108,6.3108,6.3108,6.3108,6.2794,6.2285,6.2151,6.1642,6.0894,6.0745,6.0715,6.0715,6.0715,6.0864,6.109,6.109,6.0655,6.01,6.01,5.9638,5.9189,5.9578,5.9711,5.9711,5.9711,5.9711,5.9608,5.9189,5.9099,5.9099,5.9099,5.8786,5.8278,5.75,5.6406,5.5431,5.4922,5.4491,5.4269,5.4551,5.47,5.479,5.479,5.4221,5.3665,5.3246,5.3198,5.3037,5.2648,5.2486,5.2306,5.2037,5.2498,5.2396,5.1457,5.2276,5.2187,5.0877,5.1457,5.1367,5.0451,5.0278,5.0278,5.0451,5.0032,4.9841,4.9841,5.0272,5.0242,6.16,6.2832,6.3384,6.3167,5.861,5.3646,5.1452,4.698,4.2944,4.1667,4.1395,4.1541,4.2005,4.2092,4.2299,4.2923,4.3721,4.5814,5.0188,5.2932,5.6645,6.245,6.4575,6.664,6.9482,7.044,7.056,6.9752,6.9273,6.8704,6.8047,6.6281,6.5203,6.5024,6.3947,6.3273,6.3108,6.3108,6.3108,6.3108,6.3108,6.3108,6.3108,6.3108,6.3108,6.3108,6.3108,6.2988,6.2794,6.2525,6.2151,6.1792,6.1479,6.1389,6.1389,6.1389,6.1509,6.1702,6.1702,6.1253,6.0699,6.0699,6.0086,5.9548,6.0429,6.04,6.01,6.01,5.9951,5.9711,5.9219,5.9099,5.9099,5.9099,5.8726,5.8278,5.7889,5.6585,5.5431,5.5251,5.482,5.4551,5.476,5.5329,5.576,5.576,5.5359,5.482,5.4186,5.4097,5.3917,5.3426,5.3635,5.3545,5.2947,5.3276,5.3126,5.2247,5.2827,5.2767,5.1828,5.1846,5.1798,5.1487,5.0847,5.0727,5.1206,5.0727,5.0506,5.0506,5.0966,5.0936,5.9684,6.1135,6.2283,6.295,5.8261,5.3168,5.1891,4.7666,4.3641,4.2353,4.2092,4.2092,4.2092,4.2092,4.2092,4.2102,4.4126,4.6834,5.0141,5.3258,5.6675,6.0641,6.1732,6.3438,6.67,6.9363,7.038,6.9123,6.9004,6.8704,6.8047,6.6729,6.5697,6.5024,6.4351,6.3707,6.3108,6.3108,6.3108,6.3108,6.3108,6.3108,6.3108,6.3108,6.3108,6.3108,6.3108,6.2734,6.2151,6.2824,6.2301,6.118,6.1822,6.2091,6.2091,6.2091,6.2525,6.3078,6.3078,6.2644,6.2061,6.2061,6.1178,6.034,6.1672,6.1148,6.01,6.01,5.9608,5.9129,5.9099,5.9099,5.9099,5.9099,5.9085,5.874,5.7406,5.6628,5.5983,5.5341,5.5179,5.5401,5.6072,5.6688,5.7077,5.7077,5.7064,5.6838,5.6252,5.6162,5.6162,5.6162,5.5581,5.4371,5.2366,5.3443,5.3611,5.2276,5.2827,5.3198,5.3169,5.1905,5.1517,5.2187,5.1517,5.1176,5.1206,5.1176,5.1176,5.1176,5.1206,5.1206,5.4356,5.5953,5.6752,5.6098,5.273,4.9378,4.8513,4.5419,4.2586,4.2179,4.2092,4.2092,4.2092,4.2092,4.2725,4.4603,4.5709,4.7192,4.9696,5.3409,5.7017,6.007,6.4964,6.8525,6.9572,7.041,7.056,6.9738,6.9678,6.9379,6.872,6.7852,6.6849,6.5727,6.4605,6.3917,6.3722,6.3303,6.3108,6.3108,6.3108,6.3108,6.3108,6.3108,6.3108,6.3108,6.3108,6.2988,6.2794,6.3003,6.2854,6.2495,6.2704,6.2794,6.2794,6.2794,6.2928,6.3108,6.3108,6.2674,6.2091,6.2091,6.1208,6.025,6.1164,6.112,6.0761,6.0761,6.0296,5.9681,5.9219,5.9099,5.9099,5.9099,5.9099,5.8979,5.856,5.7603,5.6748,5.6526,5.6179,5.5953,5.6162,5.6688,5.7094,5.7094,5.7094,5.6898,5.6282,5.6551,5.6658,5.6252,5.6389,5.606,5.5012,5.4892,5.4521,5.3611,5.4192,5.4144,5.3228,5.2797,5.2456,5.2187,5.1546,5.1206,5.1206,5.1666,5.1876,5.1876,5.1427,5.1457,5.0104,5.2252,5.3284,5.273,5.0187,4.7619,4.6946,4.4549,4.2353,4.216,4.2092,4.2092,4.2092,4.2092,4.2667,4.4377,4.5258,4.6613,4.9226,5.2891,5.6764,6.0745,6.6159,6.9622,6.9782,7.0679,7.0919,7.0067,7.0007,6.9588,6.866,6.8227,6.7493,6.64,6.5084,6.4276,6.4006,6.3393,6.3108,6.3108,6.3108,6.3108,6.3108,6.3108,6.3108,6.3108,6.3108,6.3108,0.0,6.3108,6.3108,6.3108,6.3108,6.3108,6.3108,6.3108,6.3108,6.3108,6.3108,6.2824,6.2495,6.2495,6.1746,6.0878,6.106,6.091,6.0775,6.103,6.0446,5.9621,5.9219,5.9099,5.9099,5.9099,5.9099,5.9099,5.9099,5.8261,5.7483,5.7483,5.7184,5.6928,5.6928,5.7423,5.7842,5.7842,5.7842,5.7633,5.7017,5.7244,5.7334,5.6958,5.7047,5.7034,5.6928,5.609,5.5281,5.461,5.473,5.4551,5.3964,5.3456,5.3007,5.2588,5.2157,5.1828,5.1576,5.2247,5.2588,5.2558,5.2157,5.2187,0.0,4.9441,5.105,5.1639,4.9519,4.7184,4.6598,4.4607,0.0,4.2219,4.2092,4.2121,4.216,4.2121,4.2179,4.2382,4.359,4.565,4.8875,5.2233,5.661,6.2646,6.5947,6.782,6.8031,7.0396,7.1384,7.0157,6.9977,6.9409,6.8227,6.8017,6.7643,6.7014,6.5697,6.471,6.4066,6.3422,6.3108,6.3108,6.3108,6.3108,6.3108,6.3108,6.3108,6.3108,6.3108,6.3108,6.3108,6.3108,6.3108,6.3108,6.3108,6.3108,6.3108,6.3108,6.3108,6.3108,6.3108,6.3108,6.3063,6.2988,6.2555,6.1912,6.1299,6.0685,6.028,6.0864,6.0133,5.9159,5.9129,5.9099,5.9099,5.9099,5.9099,5.9099,5.9099,5.8607,5.8175,5.8175,5.8175,5.8158,5.8115,5.8667,5.9085,5.9039,5.9056,5.8876,5.8234,5.8175,5.8175,5.8175,5.762,5.7483,5.8055,5.6987,5.5983,5.5311,5.47,5.461,5.5192,5.3964,5.3288,5.3288,5.3216,5.2917,5.2336,5.2917,5.3216,5.3288,5.3216,5.3228,4.1066,0.0,4.424,4.3903,4.3235,4.276,0.0,0.0,0.0,0.0,0.0,4.2237,4.2702,4.2411,4.2905,4.5292,4.6155,4.7465,5.0191,5.5926,6.1405,6.5577,6.8911,7.03,6.8914,7.0666,7.1547,7.0739,6.9782,6.9319,6.9528,6.8062,6.7164,6.7014,6.5697,6.4904,6.477,6.3662,6.3108,6.3108,6.3108,6.3108,6.3108,6.3108,6.3108,6.3108,6.3108,6.3108,6.3108,6.3108,6.3108,6.3108,6.3108,6.3108,6.3108,6.3108,6.3108,6.3108,6.3108,6.3108,6.2928,6.1912,6.1449,6.1299,6.115,6.1,6.0805,6.0459,6.01,5.9741,5.9249,5.9099,5.9099,5.9099,5.9099,5.9099,5.9099,5.8979,5.8846,5.8846,5.8846,5.8697,5.8175,5.8667,5.8949,5.8427,5.8756,5.9039,5.8876,5.8846,5.8846,5.8846,5.8726,5.8501,5.8115,5.7363,5.6628,5.6013,5.5833,5.5581,5.5222,5.4401,5.3952,5.3952,5.3456,5.3366,5.373,5.3366,5.3456,5.3952,5.3456,5.3486,3.8667,4.0147,4.1541,4.1192,4.1105,4.1279,4.1957,0.0,0.0,0.0,0.0,4.2208,4.2538,4.2567,4.3079,4.4781,4.6142,4.8641,5.3291,5.761,6.2335,6.7715,6.9773,7.077,7.0783,7.1727,7.1846,7.056,7.0111,6.9632,6.9109,6.8331,6.7643,6.7014,6.5996,6.5159,6.456,6.3572,6.3108,6.3108,6.2949,6.2949,6.3093,6.2949,6.2862,6.2876,6.3036,6.3021,6.2876,6.3036,6.3108,6.3108,6.3108,6.3108,6.3108,6.3108,6.3108,6.3108,6.3108,6.3108,6.2928,6.1882,6.1539,6.1479,6.118,6.088,6.0625,6.0565,6.0116,5.9548,5.9189,5.9099,5.9189,5.9488,5.9548,5.9548,5.9548,5.9548,5.9548,5.9548,5.9308,5.9085,5.9039,5.8816,5.8517,5.8145,5.8158,5.8171,5.8171,5.8457,5.8637,5.8637,5.8637,5.8637,5.8577,5.7663,5.6838,5.6222,5.6192,5.5893,5.5222,5.485,5.467,5.467,5.3982,5.3994,5.467,5.4294,5.4294,5.464,5.4294,5.4324,3.8164,3.977,4.1192,4.0989,4.1018,4.1279,4.1957,0.0,0.0,0.0,0.0,4.216,4.2353,4.2876,4.338,4.367,4.6116,5.0342,5.7177,5.9118,6.2322,6.9058,6.9913,7.0593,7.2292,7.2638,7.1996,7.0127,7.038,6.9842,6.8107,6.8451,6.8136,6.6894,6.6311,6.5413,6.4156,6.3542,6.3169,6.3021,6.2731,6.2717,6.2949,6.2658,6.2527,6.2542,6.2833,6.2818,6.2615,6.2905,6.305,6.3108,6.3108,6.3108,6.3108,6.3108,6.3108,6.3108,6.3108,6.3108,6.2988,6.2315,6.2091,6.2002,6.1419,6.0775,6.0386,6.106,6.0296,5.9249,5.9249,5.9338,5.9548,6.013,6.025,6.025,6.025,6.025,6.025,6.025,5.9787,5.9548,6.001,5.9159,5.8354,5.8278,5.7769,5.7393,5.7393,5.7889,5.8308,5.8384,5.8294,5.8517,5.9189,5.8022,5.6987,5.6372,5.6252,5.5893,5.5222,5.5192,5.5192,5.5192,5.464,5.464,5.5192,5.5192,5.5192,5.5192,5.5192,5.5192,3.8725,4.0466,4.1657,4.0534,4.067,4.1279,4.1957,0.0,0.0,0.0,0.0,0.0,4.3525,4.4193,4.5151,4.6818,5.0598,5.521,6.0701,6.3473,6.602,6.8805,7.105,7.187,7.056,7.1414,7.1474,7.0097,6.9542,6.8914,6.8047,6.7553,6.6939,6.6191,6.6056,6.5637,6.4845,6.4186,6.3456,6.2673,6.2615,6.2483,6.2263,6.2204,6.2175,6.2175,6.2234,6.238,6.26,6.2658,6.2847,6.3108,6.3108,6.3108,6.3108,6.3108,6.3108,6.3108,6.3108,6.3108,6.2988,6.2315,6.2091,6.2061,6.1972,6.1493,6.109,6.1762,6.0984,5.9951,5.9951,6.0386,6.0821,6.091,6.094,6.094,6.094,6.094,6.094,6.094,6.0851,6.0655,6.019,5.9921,5.9608,5.9026,5.886,5.88,5.88,5.8876,5.9159,5.9727,5.9279,5.9219,5.9891,5.871,5.7649,5.7017,5.6492,5.5893,5.5222,5.5192,5.5192,5.5192,5.5102,5.5102,5.5192,5.5192,5.5192,5.5192,5.5192,5.5192,3.7912,3.9567,4.097,4.0699,4.1395,4.2121,4.2092,0.0,0.0,0.0,0.0,4.3525,4.4803,4.6069,4.8275,5.2294,5.4865,5.7941,6.2573,6.4156,6.5972,6.9166,7.059,7.1248,7.1055,7.1564,7.1384,7.0097,6.9708,6.9079,6.8047,6.7703,6.7224,6.655,6.655,6.5966,6.48,6.4487,6.3936,6.3149,6.2587,6.2248,6.2101,6.2101,6.1983,6.185,6.2204,6.2336,6.2336,6.2527,6.2804,6.3108,6.3108,6.3108,6.3108,6.3108,6.3108,6.3108,6.3108,6.3108,6.2988,6.2315,6.2345,6.2584,6.2211,6.1882,6.1702,6.2002,6.1403,6.0655,6.0655,6.0864,6.118,6.1553,6.1642,6.1642,6.1642,6.1642,6.1539,6.118,6.109,6.088,6.022,5.9801,5.9338,5.8667,5.8261,5.8022,5.8022,5.8338,5.8667,5.9009,5.8726,5.8816,5.9488,5.8321,5.7423,5.7124,5.6539,5.6222,5.6239,5.6239,5.6239,5.6239,5.591,5.5743,5.5743,5.5743,5.5743,5.5743,5.5743,5.5743,3.7467,3.9015,4.0408,4.0786,4.1725,0.0,0.0,0.0,0.0,0.0,0.0,4.5401,4.6388,4.8467,5.1746,5.6926,5.8721,6.0837,6.4667,6.524,6.6602,7.0244,7.0546,7.0815,7.1803,7.1773,7.1145,6.9858,6.9768,6.9169,6.7838,6.7778,6.7523,6.7014,6.6937,6.6217,6.4813,6.4589,6.4039,6.312,6.2352,6.1954,6.1895,6.1895,6.1761,6.1524,6.2042,6.2219,6.2131,6.2366,6.2731,6.3108,6.3108,6.3108,6.3108,6.3108,6.3108,6.3108,6.3108,6.3108,6.3018,6.2495,6.2674,6.3003,6.2495,6.2331,6.2331,6.2331,6.1972,6.1539,6.1359,6.1449,6.1672,6.2002,6.2091,6.2061,6.1912,6.1882,6.1702,6.121,6.109,6.094,6.0416,5.9787,5.9159,5.8637,5.7992,5.7573,5.7573,5.8008,5.8384,5.8547,5.8427,5.8487,5.8846,5.7932,5.7334,5.7334,5.6748,5.6611,5.7077,5.7094,5.7094,5.7094,5.6658,5.6402,5.6402,5.6402,5.6402,5.6402,5.6402,5.6402,3.857,4.0031,4.0873,4.0331,4.0699,0.0,4.5669,4.5547,0.0,4.86,0.0,4.8397,4.8484,5.1572,5.52,5.8595,6.1945,6.5152,6.813,6.9341,7.0604,7.2455,7.2146,7.1803,7.1893,7.1338,7.044,6.9183,6.9064,6.8495,6.7134,6.7074,6.7044,6.7014,6.6707,6.618,6.5422,6.4554,6.3337,6.1731,6.1658,6.1523,6.1268,6.1268,6.1253,6.1238,6.1283,6.1583,6.2101,6.2131,6.2512,6.3108,6.3108,6.3108,6.3108,6.3108,6.3108,6.3108,6.3108,6.3108,6.3108,6.3048,6.3063,6.3108,6.3048,6.3048,6.3048,6.3048,6.2988,6.2794,6.2181,6.2495,6.2794,6.2255,6.2091,6.1942,6.1299,6.118,6.115,6.112,6.109,6.109,6.103,6.0475,6.001,5.9951,5.9382,5.8949,5.8949,5.9009,5.9279,5.9891,5.9398,5.8786,5.8205,5.8085,5.8025,5.8025,5.7393,5.7034,5.7094,5.7094,5.7094,5.7094,5.7077,5.7047,5.7047,5.7047,5.7047,5.7047,5.7047,5.7047,3.7825,3.9538,4.1047,4.0786,4.1522,0.0,0.0,4.6185,4.7271,4.9296,5.0469,0.0,5.163,5.5171,5.8697,6.07,6.4554,6.7945,6.9886,7.1182,7.2027,7.2249,7.2072,7.1743,7.1308,7.0709,6.9961,6.9064,6.86,6.7972,6.7044,6.7014,6.6907,6.6707,6.6167,6.5387,6.4339,6.354,6.258,6.1344,6.1524,6.1449,6.1208,6.1374,6.1359,6.1208,6.1374,6.1717,6.2101,6.2101,6.2497,6.3108,6.3108,6.3108,6.3108,6.3108,6.3108,6.3108,6.3108,6.3108,6.3108,6.3108,6.3108,6.3108,6.3108,6.3108,6.3108,6.3108,6.2794,6.2525,6.2674,6.2614,6.2405,6.2151,6.1792,6.1419,6.115,6.109,6.097,6.0565,6.0791,6.0821,5.9983,5.9997,5.9951,5.9548,5.9249,5.9099,5.9099,5.9099,5.9189,5.9458,5.9249,5.9009,5.8726,5.8726,5.8726,5.8726,5.8098,5.7919,5.8321,5.8351,5.8351,5.8351,5.7919,5.7709,5.7709,5.7709,5.7709,5.7709,5.7709,5.7709,3.7293,3.8725,4.0244,4.0437,0.0,0.0,4.5946,4.7764,4.9698,5.221,5.3123,5.3746,5.4546,5.7376,6.0148,6.1832,6.5937,6.9372,7.0712,7.1698,7.2176,7.1923,7.1713,7.1338,7.0679,7.0247,6.9618,6.875,6.8241,6.7613,6.6729,6.667,6.6443,6.5927,6.5345,6.4478,6.3311,6.2706,6.203,6.1193,6.1389,6.1374,6.1208,6.1389,6.1374,6.1208,6.1389,6.1702,6.2101,6.2101,6.2497,6.3108,6.3108,6.3108,6.3108,6.3108,6.3108,6.3108,6.3108,6.3108,6.3108,6.3108,6.3108,6.3108,6.3108,6.3108,6.3048,6.2854,6.2614,6.2465,6.2734,6.2421,6.2061,6.1822,6.1613,6.1359,6.115,6.094,6.0715,6.0446,6.0625,6.0551,5.9833,6.0116,6.0266,5.9817,5.9548,5.9428,5.9428,5.9219,5.9099,5.9099,5.9099,5.9099,5.9099,5.9099,5.9099,5.9099,5.8667,5.8637,5.9069,5.9099,5.9099,5.9099,5.8637,5.8427,5.8427,5.8427,5.8427,5.8427,5.8427,5.8517,3.7293,3.7757,3.8367,3.9073,0.0,0.0,4.8851,5.0714,5.3081,5.8232,5.7245,5.5852,5.71,5.787,5.9176,6.1687,6.5935,6.9352,7.0712,7.0895,7.1158,7.1803,7.1308,7.0649,7.0067,6.9977,6.9439,6.8107,6.7987,6.7403,6.6056,6.5996,6.5561,6.4605,6.4273,6.3616,6.2593,6.2261,6.1774,6.1193,6.1193,6.1193,6.1193,6.1193,6.1193,6.1193,6.1193,6.1523,6.2101,6.2116,6.2497,6.3108,6.3108,6.3108,6.3108,6.3108,6.3108,6.3108,6.3108,6.3108,6.3108,6.3108,6.3108,6.3108,6.3108,6.3108,6.2944,6.2285,6.2584,6.2914,6.2255,6.2091,6.1942,6.1269,6.1613,6.1912,6.1239,6.0565,6.031,6.097,6.0565,6.034,6.1,6.109,6.109,6.109,6.0535,6.01,6.01,5.9518,5.9129,5.9129,5.9099,5.9099,5.9099,5.9099,5.9129,5.9129,5.9129,5.9129,5.9099,5.9099,5.9099,5.9129,5.9099,5.9099,5.9129,5.9129,5.9129,5.9129,5.9129,5.9458,3.7418,3.8077,3.9276,4.0844,0.0,0.0,0.0,5.2033,0.0,5.8871,5.9684,5.9451,5.9364,6.0474,6.1782,6.2959,6.5873,6.8583,7.0321,7.1149,7.1487,7.1218,7.0666,7.0187,7.0007,6.9155,6.8437,6.8047,6.7134,6.6309,6.5693,6.5246,6.4678,6.391,6.3347,6.2798,6.2245,6.1732,6.1367,6.1193,6.1193,6.1193,6.1193,6.1193,6.1193,6.1193,6.1193,6.1523,6.2145,6.2599,6.2934,6.3108,6.3108,6.3108,6.3108,6.3108,6.3108,6.3108,6.3108,6.3108,6.3108,6.3108,6.3108,6.3108,6.3108,6.3108,6.2944,6.2285,6.2255,6.2121,6.0998,6.1373,6.2061,6.1852,6.1613,6.1329,6.115,6.094,6.0851,6.106,6.094,6.0864,6.106,6.109,6.094,6.0475,6.0625,6.0805,6.0805,6.0206,5.9801,5.9801,5.9368,5.9099,5.9099,5.9518,5.9801,5.9801,6.0266,6.0073,5.9129,5.9099,5.9308,5.9787,5.9338,5.9338,5.9801,5.9801,5.9801,5.9801,6.0296,6.0611,3.7622,3.8405,3.9857,4.2538,4.5917,4.9664,5.3891,5.5837,5.784,6.1687,6.218,6.1809,6.1283,6.1605,6.2104,6.2624,6.4543,6.6754,6.8973,6.9626,7.0034,7.0511,7.0007,6.9498,6.9229,6.8466,6.7778,6.7254,6.646,6.5636,6.4783,6.4382,6.3771,6.2829,6.2403,6.2033,6.176,6.1367,6.1193,6.1193,6.1193,6.1193,6.1193,6.1193,6.1193,6.1208,6.1299,6.1642,6.2145,6.2687,6.2978,6.3108,6.3108,6.3108,6.3108,6.3108,6.3108,6.3063,6.2794,6.2884,6.3048,6.2794,6.2884,6.3108,6.3108,6.3108,6.2944,6.2285,6.2285,6.2255,6.1178,6.1687,6.2375,6.1822,6.1792,6.1882,6.1882,6.1702,6.1583,6.1852,6.1672,6.1569,6.1852,6.1882,6.1762,6.1357,6.1403,6.1389,6.112,6.0505,6.019,6.0475,5.9907,5.9488,5.9488,6.0116,6.0386,6.013,6.0745,6.0731,5.9937,5.9893,5.9967,6.01,5.9967,6.0086,6.0505,6.0505,6.0505,6.0505,6.091,6.1239,3.7941,3.8812,4.0321,4.4251,4.7823,5.183,5.739,6.0961,6.3603,6.537,6.4458,6.325,6.2939,6.187,6.1103,6.1313,6.2606,6.4447,6.6941,6.6976,6.7503,6.9461,6.9096,6.8487,6.8032,6.7898,6.7298,6.6056,6.5846,6.5128,6.3595,6.3461,6.2854,6.1583,6.1569,6.1464,6.1193,6.1193,6.1193,6.1193,6.1193,6.1193,6.1193,6.1193,6.1193,6.1208,6.1509,6.1821,6.2131,6.2498,6.2833,6.3108,6.3108,6.3108,6.3108,6.3108,6.3108,6.3003,6.2405,6.2555,6.2928,6.2375,6.2555,6.3003,6.3063,6.3063,6.2854,6.2181,6.2495,6.2824,6.2106,6.2495,6.2764,6.1479,6.2165,6.3108,6.3108,6.2614,6.2375,6.2974,6.2614,6.2361,6.2974,6.3108,6.3108,6.3108,6.2525,6.1912,6.1359,6.0685,6.0519,6.112,6.0595,6.019,6.019,6.0805,6.0924,6.031,6.0924,6.1239,6.118,6.112,6.0821,6.028,6.0821,6.112,6.118,6.118,6.118,6.118,6.1239,6.1613,3.8638,3.9828,4.186,4.6696,5.1817,5.6636,6.0409,6.2224,6.3341,6.4239,6.4877,6.5095,6.4392,6.3394,6.2524,6.1993,6.3134,6.4273,6.485,6.5783,6.6677,6.7409,6.6679,6.6611,6.7893,6.7044,6.6204,6.5663,6.4695,6.3758,6.2878,6.232,6.1789,6.1313,6.1298,6.1268,6.1193,6.1193,6.1193,6.1193,6.1193,6.1193,6.1193,6.1193,6.1193,6.1223,6.1761,6.2042,6.216,6.276,6.3036,6.3108,6.3108,6.3108,6.3108,6.3108,6.3108,6.3078,6.2914,6.2644,6.2375,6.2764,6.2614,6.2405,6.2944,6.2734,6.2195,6.1479,6.1792,6.2046,6.0848,6.1806,6.2884,6.2061,6.2525,6.3108,6.3108,6.2988,6.2928,6.3063,6.2974,6.2928,6.3078,6.3108,6.3108,6.3108,6.2525,6.2255,6.2614,6.2061,6.1746,6.1882,6.1283,6.088,6.088,6.1493,6.1822,6.1687,6.2315,6.2435,6.1912,6.1359,6.1269,6.1642,6.1299,6.1359,6.1882,6.1882,6.1882,6.1912,6.2435,6.2734,3.9509,4.1482,4.4443,5.0788,5.5358,5.8871,6.1135,6.2412,6.3283,6.3891,6.527,6.5807,6.3939,6.3166,6.2121,5.9986,6.0225,6.0909,6.1664,6.2615,6.3862,6.5504,6.551,6.5776,6.6707,6.6187,6.535,6.4424,6.3877,6.3179,6.217,6.1923,6.1642,6.1208,6.1193,6.1193,6.1193,6.1193,6.1193,6.1193,6.1193,6.1193,6.1193,6.1193,6.1193,6.1223,6.1672,6.1939,6.2131,6.2468,6.2731,6.2862,6.2862,6.2862,6.2862,6.2862,6.2963,6.2989,6.2174,6.1978,6.2061,6.1746,6.1642,6.1702,6.2032,6.1912,6.1613,6.1583,6.1613,6.1613,6.1537,6.1836,6.2225,6.2525,6.2854,6.3108,6.3108,6.3108,6.3108,6.3108,6.3108,6.3108,6.3108,6.3108,6.3108,6.3108,6.2794,6.2704,6.3048,6.2525,6.2211,6.2555,6.1972,6.1583,6.1583,6.2181,6.2435,6.2121,6.2734,6.2944,6.2584,6.2255,6.2061,6.2091,6.2061,6.2225,6.2584,6.2584,6.2584,6.2584,6.2944,6.3108,4.0118,4.3351,4.759,5.4633,5.7855,5.9626,6.0903,6.2093,6.2989,6.3276,6.4846,6.5355,6.2626,6.1955,6.0687,5.7155,5.6917,5.7441,5.8298,5.8995,6.0428,6.3029,6.377,6.4293,6.4831,6.4788,6.4256,6.3178,6.3254,6.2824,6.1672,6.185,6.1761,6.1208,6.1077,6.1077,6.1193,6.1077,6.1019,6.1019,6.0932,6.0874,6.0874,6.0874,6.0932,6.1034,6.1333,6.1645,6.1939,6.2057,6.2292,6.26,6.26,6.26,6.26,6.26,6.2804,6.287,6.1318,6.1284,6.1732,6.0639,6.0565,6.094,6.106,6.103,6.103,6.1583,6.1373,6.1224,6.2435,6.2002,6.1569,6.2794,6.3108,6.3108,6.3108,6.3108,6.3108,6.3108,6.3108,6.3108,6.3108,6.3108,6.3108,6.3108,6.3108,6.3108,6.3108,6.2614,6.2495,6.3048,6.2614,6.2271,6.2271,6.2764,6.2854,6.2301,6.2794,6.3108,6.3108,6.3108,6.2824,6.2271,6.2824,6.3108,6.3108,6.3108,6.3108,6.3108,6.3108,6.3108,3.9683,4.4977,5.0971,5.5329,5.7855,5.9626,6.0903,6.1745,6.1932,6.0841,6.2086,6.286,6.122,6.0225,5.8603,5.5418,5.6989,5.7903,5.5925,5.6806,5.7918,5.8624,5.852,5.9451,6.2195,6.1942,6.2027,6.3,6.2603,6.2116,6.1643,6.1643,6.1509,6.1208,6.0642,6.0613,6.1193,6.0613,6.0322,6.0322,5.98,5.9568,5.9568,5.9568,5.9829,6.0337,6.0691,6.1014,6.1364,6.188,6.2292,6.26,6.26,6.26,6.26,6.26,6.2804,6.293,6.1838,6.1344,6.121,6.103,6.0625,6.0326,6.091,6.0685,6.025,6.034,6.031,6.04,6.1164,6.1672,6.2151,6.2914,6.3108,6.3108,6.3108,6.3108,6.3108,6.3108,6.3108,6.3108,6.3108,6.3108,6.3108,6.3108,6.3108,6.3108,6.3108,6.3003,6.3003,6.3108,6.3003,6.2988,6.2988,6.3048,6.3063,6.2974,6.3048,6.3108,6.3108,6.3108,6.3063,6.2988,6.3048,6.3108,6.3108,6.3108,6.3108,6.3108,6.3108,6.3108,4.233,4.6471,5.0571,5.5641,5.7565,5.8335,5.8839,5.9489,5.958,5.8214,5.8472,5.8846,5.8552,5.8411,5.7377,5.4549,5.5158,5.5481,5.4064,5.509,5.6269,5.6936,5.7581,5.8816,6.0986,6.0947,6.1188,6.2172,6.216,6.1939,6.1628,6.1454,6.1145,6.0657,6.0032,5.9829,6.0119,5.9829,5.9684,5.9684,5.9422,5.9306,5.9306,5.89,5.9103,5.9698,6.002,6.0442,6.0925,6.1219,6.1601,6.2057,6.2057,6.2057,6.2057,6.2057,6.2366,6.2626,6.1239,6.0905,6.103,6.0655,5.9976,5.9476,6.0284,5.999,5.9446,5.9969,6.01,6.034,6.1403,6.1613,6.1792,6.2854,6.2794,6.2644,6.3003,6.3108,6.3108,6.3108,6.3108,6.3108,6.3108,6.3108,6.3108,6.3108,6.3108,6.3108,6.3108,6.3108,6.3108,6.3108,6.3108,6.3108,6.3108,6.3108,6.3108,6.3108,6.3108,6.3108,6.3108,6.3108,6.3108,6.3108,6.3108,6.3108,6.3108,6.3108,6.3108,6.3108,6.3108,6.3108,4.2985,4.5846,4.849,5.4277,5.6029,5.6508,5.7082,5.7518,5.7378,5.5952,5.5789,5.5875,5.5813,5.6375,5.6095,5.3857,5.3507,5.3339,5.2962,5.3674,5.4576,5.5416,5.676,5.8149,5.9546,5.97,6.0254,6.1628,6.1393,6.1291,6.1497,6.1057,6.0574,5.9989,5.9364,5.9132,5.9306,5.9132,5.9045,5.9045,5.8871,5.8784,5.8784,5.829,5.8319,5.8827,5.9174,5.9683,6.0238,6.0472,6.0779,6.1116,6.1291,6.1379,6.1379,6.1379,6.1836,6.2276,6.0847,6.0734,6.1141,6.0538,5.9728,5.9103,5.9868,5.9579,5.9103,5.9868,6.022,6.0625,6.1806,6.1732,6.1644,6.2709,6.2575,6.2394,6.2959,6.3108,6.3108,6.3108,6.3108,6.3108,6.3108,6.3108,6.3108,6.3108,6.3108,6.3108,6.3108,6.3108,6.3108,6.3108,6.3108,6.3108,6.3108,6.3108,6.3108,6.3108,6.3108,6.3108,6.3108,6.3108,6.3108,6.3108,6.3108,6.3108,6.3108,6.3108,6.3108,6.3108,6.3108,6.3108,3.8929,4.1729,4.5054,5.0157,5.2569,5.433,5.6736,5.6815,5.5984,5.4514,5.512,5.5336,5.3459,5.4006,5.4358,5.3155,5.2945,5.292,5.2895,5.2529,5.2471,5.3025,5.4335,5.5716,5.706,5.7205,5.8545,6.1821,6.0019,5.9508,6.1144,6.0294,5.9655,5.9379,5.8697,5.8668,5.9306,5.8668,5.8348,5.8348,5.771,5.739,5.739,5.7361,5.7361,5.7448,5.8101,5.8563,5.8966,5.9859,6.0063,5.9858,6.0501,6.0735,6.0735,6.0735,6.1322,6.2028,6.1291,6.1272,6.1528,6.1155,6.0415,5.9712,6.0018,5.9878,5.9712,6.0018,6.0565,6.121,6.1912,6.2061,6.214,6.2523,6.2599,6.2687,6.3036,6.3108,6.3108,6.3108,6.3108,6.3108,6.3108,6.3108,6.3108,6.3108,6.3108,6.3108,6.3108,6.3108,6.3108,6.3108,6.3108,6.3108,6.3108,6.3108,6.3108,6.3108,6.3108,6.3108,6.3108,6.3108,6.3108,6.3108,6.3108,6.3108,6.3108,6.3108,6.3108,6.3108,6.3108,6.3108,3.7918,3.9853,4.2215,4.665,4.8998,5.0531,5.1772,5.2372,5.2423,5.1424,5.1813,5.2148,5.1431,5.2511,5.3381,5.2962,5.2611,5.2511,5.2845,5.2737,5.2686,5.2887,5.4157,5.5177,5.5664,5.6181,5.7075,5.8523,5.8445,5.8552,5.8995,5.9246,5.9153,5.8682,5.8,5.7768,5.8,5.6984,5.6651,5.7071,5.639,5.6316,5.6709,5.6709,5.6926,5.7303,5.7565,5.797,5.8506,5.8827,5.9161,5.951,6.015,6.0136,5.9859,6.0238,6.0458,6.0471,5.9797,6.007,6.0723,6.077,5.9996,5.9303,6.0668,6.0115,5.9258,6.0163,6.0743,6.1236,6.1932,6.209,6.2128,6.2248,6.2454,6.2629,6.2746,6.2775,6.2847,6.3064,6.3108,6.3108,6.3108,6.3108,6.3108,6.3108,6.3108,6.3108,6.3108,6.3108,6.3108,6.3108,6.3108,6.3108,6.3108,6.3108,6.3108,6.3108,6.3108,6.3108,6.3108,6.3108,6.3108,6.3108,6.3108,6.3108,6.3108,6.3108,6.3108,6.3108,6.3108,6.3108,3.5985,3.7673,3.9867,4.401,4.5666,4.6772,4.8662,4.9001,4.903,4.9279,4.9766,5.0268,5.0645,5.1306,5.1983,5.2536,5.2176,5.195,5.231,5.236,5.2285,5.2067,5.3479,5.4435,5.4435,5.5001,5.5733,5.6537,5.6953,5.7319,5.7628,5.8333,5.8392,5.7695,5.7013,5.6665,5.6665,5.5809,5.5606,5.6055,5.5606,5.5751,5.639,5.639,5.6723,5.7303,5.7303,5.7565,5.7971,5.8203,5.8435,5.8726,5.9568,5.951,5.9045,5.9684,5.9874,5.9786,5.923,5.9753,6.0659,6.0517,5.9833,5.9271,6.0445,5.998,5.9241,6.0209,6.0919,6.154,6.1975,6.2025,6.1924,6.1924,6.2028,6.219,6.2395,6.2615,6.2833,6.3064,6.3108,6.3108,6.3108,6.3108,6.3108,6.3108,6.3108,6.3108,6.3108,6.3108,6.3108,6.3108,6.3108,6.3108,6.3108,6.3108,6.3108,6.3108,6.3108,6.305,6.2934,6.2934,6.2891,6.2789,6.2876,6.2934,6.2934,6.305,6.3108,6.3108,6.3108,6.3108,0.0,0.0,0.0,4.2047,4.2537,4.3193,4.7745,4.7041,4.6039,4.8225,4.9104,4.9816,5.0987,5.0309,5.0092,5.1749,5.1565,5.1239,5.1239,5.1239,5.1021,5.0452,5.2081,5.3249,5.3217,5.3554,5.4435,5.6059,5.5553,5.5763,5.712,5.7552,5.732,5.6403,5.5722,5.5374,5.5403,5.5345,5.5345,5.5374,5.5345,5.5693,5.6361,5.6361,5.668,5.7274,5.7274,5.7274,5.7332,5.7986,5.7884,5.7448,5.8755,5.8871,5.8377,5.9045,5.9684,6.0134,5.9801,6.0516,6.1424,6.0512,5.9985,5.9652,5.9349,5.9486,5.9798,6.0143,6.1129,6.2087,6.2087,6.1836,6.1613,6.1598,6.1404,6.1388,6.1969,6.2614,6.3093,6.3108,6.3108,6.3108,6.3108,6.3108,6.3108,6.3108,6.3108,6.3108,6.3108,6.3108,6.3108,6.3108,6.3108,6.3108,6.3108,6.3108,6.3093,6.3093,6.3093,6.2934,6.26,6.2585,6.2439,6.2116,6.2439,6.26,6.26,6.2934,6.3108,6.3108,6.3108,6.3108,3.231,0.0,0.0,0.0,0.0,0.0,4.1433,4.2433,4.3617,4.5397,4.6225,4.7094,4.856,4.8586,4.8661,4.9581,4.9581,4.9631,5.0033,5.0083,5.0008,4.9841,5.1537,5.2166,5.0754,5.1976,5.2475,5.156,5.3202,5.4349,5.4541,5.598,5.6457,5.5707,5.5055,5.4967,5.5403,5.4474,5.4271,5.4735,5.4271,5.4619,5.5664,5.5229,5.5606,5.6665,5.6665,5.6665,5.6694,5.7332,5.7477,5.739,5.8232,5.8464,5.8377,5.9045,5.9422,5.9553,5.9437,5.9932,6.0587,6.056,6.0326,6.0165,6.0779,6.0531,6.0238,6.1014,6.1349,6.1463,6.1463,6.1538,6.1554,6.1359,6.1404,6.1598,6.2013,6.2424,6.2804,6.305,6.3108,6.3108,6.3108,6.3108,6.3108,6.3108,6.3108,6.3108,6.3108,6.3108,6.3108,6.3108,6.3108,6.3108,6.3108,6.3108,6.3007,6.2746,6.2746,6.26,6.2248,6.2234,6.219,6.2101,6.2439,6.26,6.26,6.2934,6.3108,6.3108,6.3108,6.3108,0.0,0.0,0.0,3.5618,0.0,0.0,3.8969,3.9874,4.1054,4.3176,4.4055,4.4884,4.6261,4.6512,4.6728,4.732,4.7421,4.7773,4.8761,4.9129,4.9088,4.8595,4.9757,5.0151,4.8991,5.0068,5.0355,4.9239,5.1276,5.2711,5.3003,5.4177,5.4688,5.4273,5.4146,5.4242,5.459,5.3865,5.3452,5.3314,5.2942,5.3014,5.3512,5.3159,5.3527,5.4488,5.4488,5.4488,5.4573,5.5708,5.662,5.7305,5.7441,5.7845,5.8248,5.7786,5.8124,5.8682,5.7845,5.8145,5.8904,5.9174,5.9293,5.9508,6.0382,6.0441,6.0309,6.0864,6.111,6.1193,6.1193,6.1328,6.1389,6.1238,6.1314,6.1538,6.1821,6.216,6.2542,6.3007,6.3108,6.3108,6.3108,6.3108,6.3108,6.3108,6.3108,6.3108,6.3108,6.3108,6.3108,6.3108,6.3108,6.3108,6.3108,6.3108,6.2963,6.2615,6.26,6.238,6.1895,6.188,6.185,6.1717,6.2028,6.2307,6.26,6.2934,6.3108,6.3108,6.3108,6.3108,0.0,0.0,0.0,0.0,3.6346,0.0,3.8642,3.8492,3.8642,4.1219,4.216,4.29,4.4012,4.4303,4.4478,4.4945,4.5236,4.5924,4.7506,4.8174,4.8149,4.7124,4.749,4.7792,4.7716,4.8137,4.8414,4.8363,4.9823,5.1125,5.2091,5.2364,5.2463,5.2393,5.2976,5.325,5.3118,5.3237,5.2675,5.1497,5.1497,5.1308,5.0897,5.0801,5.1115,5.17,5.17,5.17,5.1842,5.3561,5.5253,5.6765,5.6413,5.6987,5.7756,5.5964,5.6447,5.7719,5.5928,5.6063,5.7035,5.7154,5.7645,5.8333,5.9051,5.9769,6.0322,6.0322,6.0729,6.1193,6.1193,6.1193,6.1193,6.1193,6.1193,6.1283,6.1539,6.1821,6.2234,6.2876,6.305,6.3093,6.305,6.3079,6.3108,6.3108,6.3108,6.3108,6.3108,6.3108,6.3108,6.3108,6.3108,6.3108,6.3108,6.3064,6.2905,6.2571,6.2512,6.2204,6.1583,6.1554,6.1434,6.1193,6.1508,6.1983,6.2658,6.2963,6.3108,6.3108,6.3108,6.3108,0.0,0.0,0.0,0.0,3.6371,0.0,3.5969,3.6558,3.7625,3.863,3.9283,4.0162,4.1679,4.2333,4.2548,4.2181,4.3611,4.5206,4.6436,4.6728,4.6702,4.6486,4.6923,4.7089,4.6637,4.7467,4.785,4.7407,4.904,5.0401,5.1131,5.1209,5.0992,5.0471,5.1499,5.1593,5.0629,5.158,5.1457,5.0238,5.0238,5.0482,5.087,5.0351,5.046,5.106,5.106,5.106,5.1143,5.2003,5.2809,5.3663,5.505,5.5695,5.5838,5.5438,5.6126,5.7168,5.6787,5.68,5.7011,5.7022,5.789,5.8927,5.909,6.0016,6.099,6.099,6.1106,6.1193,6.1193,6.1193,6.1193,6.1193,6.1193,6.1283,6.1539,6.1658,6.1821,6.2219,6.2716,6.3021,6.2746,6.292,6.3108,6.3108,6.3108,6.3108,6.3108,6.3108,6.3108,6.3108,6.3108,6.3108,6.3108,6.2847,6.2556,6.2219,6.1924,6.1628,6.1269,6.1298,6.1253,6.1193,6.1732,6.2336,6.3007,6.3064,6.3108,6.3108,6.3108,6.3108,0.0,0.0,0.0,3.6006,3.6346,0.0,0.0,3.5956,3.6358,3.7713,3.7576,3.7701,3.9345,3.9898,4.0288,4.08,4.2308,4.3804,4.4895,4.5759,4.6286,4.6286,4.6537,4.6612,4.6311,4.6788,4.6988,4.6737,4.7576,4.8253,4.8594,4.9169,4.9355,4.9019,5.0168,5.0504,4.9901,5.049,5.0196,4.8992,4.8992,4.8849,4.8597,4.8265,4.8291,4.8611,4.8611,4.8611,4.8708,5.0227,5.0623,5.0457,5.2326,5.3785,5.4704,5.3366,5.3841,5.5065,5.4393,5.4164,5.4279,5.4952,5.6063,5.7387,5.8404,5.9878,6.1193,6.1193,6.1193,6.1193,6.1193,6.1193,6.1193,6.1193,6.1193,6.1238,6.1374,6.1509,6.1613,6.1642,6.2307,6.2804,6.2629,6.2876,6.3108,6.3108,6.2963,6.2905,6.3079,6.2949,6.292,6.3079,6.2949,6.2847,6.2847,6.2556,6.2204,6.1865,6.1702,6.1464,6.1208,6.1193,6.1268,6.1404,6.1865,6.2336,6.2847,6.3021,6.3108,6.3108,6.3108,6.3243,3.593,3.6508,3.7046,3.7034,3.6672,3.6384,0.0,0.0,0.0,3.7199,3.6535,3.6083,3.7437,3.7688,3.809,3.9333,4.069,4.1858,4.2735,4.4278,4.5457,4.5784,4.5853,4.5919,4.5974,4.5884,4.5939,4.62,4.6065,4.601,4.615,4.7055,4.755,4.7432,4.8707,4.9287,4.9046,4.9381,4.8961,4.7754,4.7754,4.725,4.6286,4.6286,4.6286,4.6286,4.6286,4.6286,4.6451,4.8416,4.8692,4.8082,5.0069,5.1993,5.3377,5.1198,5.1483,5.2751,5.1679,5.1289,5.1489,5.2565,5.3884,5.5471,5.7641,5.9469,6.0848,6.1118,6.1193,6.1193,6.1193,6.1193,6.1193,6.1193,6.1193,6.1193,6.1193,6.1374,6.1449,6.1238,6.1865,6.2439,6.2498,6.2789,6.3036,6.3093,6.276,6.2629,6.2963,6.2717,6.2615,6.2891,6.2673,6.2512,6.2512,6.2204,6.191,6.1717,6.1583,6.1464,6.1269,6.1223,6.1314,6.1598,6.1924,6.2248,6.26,6.2876,6.3036,6.3108,6.3108,6.3363,3.7454,3.8492,3.8856,3.6971,3.7864,3.8492,3.5631,0.0,3.6684,3.5946,0.0,3.6368,3.6544,0.0,0.0,3.6121,3.7864,3.9321,3.9446,4.0839,4.2431,4.3915,4.4291,4.4536,4.4769,4.4353,4.4594,4.584,4.5227,4.5031,4.5562,4.572,4.5542,4.5023,4.6688,4.7089,4.6005,4.7539,4.771,4.6511,4.6511,4.6436,4.6286,4.6286,4.6286,4.6286,4.6286,4.6286,4.6326,4.6617,4.7191,4.8133,5.0483,5.1185,5.0818,5.0517,5.0869,5.1522,5.1339,5.1289,5.1322,5.1489,5.2752,5.4733,5.7459,5.8797,5.9614,6.0848,6.1193,6.1193,6.1193,6.1193,6.1193,6.1193,6.1193,6.1193,6.1193,6.1223,6.1238,6.1208,6.1479,6.1806,6.2116,6.241,6.276,6.3064,6.2556,6.2278,6.2615,6.2351,6.2175,6.2219,6.2175,6.216,6.216,6.185,6.1776,6.2042,6.1538,6.1329,6.1554,6.1314,6.1314,6.1598,6.1924,6.2248,6.26,6.2644,6.2804,6.3108,6.3108,6.3138,3.7606,3.8504,3.8931,3.765,3.8015,3.8191,3.6143,3.5956,3.6195,3.6056,0.0,0.0,0.0,0.0,0.0,0.0,3.7538,3.8504,3.8843,3.9747,4.1115,4.3101,4.2844,4.2776,4.3386,4.3526,4.3796,4.4404,4.4402,4.4537,4.497,4.5296,4.5522,4.5583,4.6317,4.6474,4.5974,4.6688,4.68,4.6286,4.6286,4.6286,4.6286,4.6286,4.6286,4.6286,4.6286,4.6286,4.6336,4.6963,4.749,4.8055,4.9748,5.0205,4.9941,4.9941,5.0092,5.0309,5.0309,5.0309,5.049,5.1567,5.2929,5.4481,5.6411,5.801,5.9229,5.9814,6.059,6.1193,6.1193,6.1193,6.1193,6.1193,6.1193,6.1193,6.1193,6.1193,6.1193,6.1193,6.1419,6.1717,6.2057,6.2366,6.2585,6.2526,6.2278,6.216,6.2278,6.2028,6.188,6.2087,6.1924,6.1806,6.1806,6.1553,6.1493,6.1791,6.1554,6.1464,6.1613,6.1479,6.1479,6.1613,6.1924,6.2248,6.26,6.241,6.257,6.3093,6.2905,6.3323,3.7816,3.8591,3.9057,3.7851,3.7789,3.7588,3.6055,3.5855,3.6008,3.6118,3.5981,0.0,0.0,0.0,3.6195,3.6872,0.0,3.7713,3.814,3.8542,3.9559,4.1632,4.1416,4.14,4.2193,4.2478,4.2764,4.3137,4.318,4.347,4.4141,4.4583,4.4985,4.5372,4.5849,4.5984,4.5834,4.6135,4.6286,4.6286,4.6286,4.6286,4.6286,4.6286,4.6286,4.6286,4.6286,4.6286,4.6361,4.729,4.7767,4.8008,4.8987,4.9464,4.959,4.959,4.959,4.9615,4.9766,4.9916,5.0296,5.1656,5.2754,5.3803,5.5162,5.6688,5.8135,5.8902,5.983,6.0712,6.1103,6.1193,6.1193,6.1193,6.1193,6.1193,6.1193,6.1193,6.1193,6.1193,6.1359,6.1583,6.1821,6.2116,6.2307,6.2248,6.2013,6.188,6.1939,6.1673,6.1569,6.1821,6.1642,6.1479,6.1479,6.1374,6.1434,6.1717,6.1658,6.1613,6.1613,6.1524,6.1479,6.1479,6.1791,6.2087,6.2322,6.2087,6.2263,6.2833,6.2851,6.3549,3.86,3.9428,3.9823,3.711,3.7223,3.73,3.46,3.5604,3.6847,3.5745,3.7249,3.8441,3.7374,3.7148,3.6984,0.0,0.0,0.0,0.0,3.6494,3.7122,3.8818,3.9923,4.0774,4.1375,4.0918,4.1173,4.2517,4.1389,4.1329,4.295,4.3065,4.309,4.3115,4.4683,4.5246,4.4665,4.5759,4.6286,4.6286,4.6286,4.6286,4.6286,4.6286,4.6286,4.6286,4.6286,4.6286,4.6336,4.6898,4.744,4.7958,4.8576,4.9129,4.959,4.959,4.959,4.9665,5.0176,5.077,5.1255,5.1314,5.1708,5.2397,5.3753,5.4606,5.569,5.834,5.9136,5.9462,6.0833,6.1193,6.1193,6.1193,6.1193,6.1193,6.1193,6.1193,6.1193,6.1193,6.1208,6.1208,6.1223,6.1464,6.185,6.2498,6.182,6.1314,6.1583,6.1374,6.1208,6.1223,6.1223,6.1208,6.1208,6.1449,6.1732,6.2072,6.1776,6.1613,6.1613,6.1344,6.1208,6.1208,6.1464,6.1628,6.1643,6.1628,6.1791,6.2145,6.3135,6.3742,4.0002,4.1102,4.1594,3.9183,3.8856,3.8391,3.5606,3.612,3.6885,3.5745,3.73,3.8542,3.7399,3.75,0.0,0.0,0.0,0.0,0.0,3.5794,3.6296,3.7625,3.9069,3.9814,3.946,3.9601,3.9905,4.0387,3.9968,4.0331,4.1793,4.2598,4.3327,4.4027,4.501,4.5573,4.5733,4.611,4.6286,4.6286,4.6286,4.6286,4.6286,4.6286,4.6286,4.6286,4.6286,4.6286,4.6361,4.7265,4.7741,4.8008,4.8978,4.9455,4.959,4.959,4.959,4.9665,5.0201,5.0795,5.1364,5.1699,5.195,5.2261,5.3064,5.4095,5.5177,5.6123,5.7706,5.9214,5.9691,6.0485,6.1193,6.1193,6.1193,6.1193,6.1193,6.1193,6.1193,6.1193,6.1193,6.1268,6.1449,6.1389,6.1404,6.1642,6.1553,6.1449,6.1344,6.1268,6.1193,6.1193,6.1193,6.1283,6.1464,6.1747,6.1969,6.2101,6.1791,6.1613,6.1613,6.1509,6.1374,6.1193,6.1916,6.2242,6.2242,6.2468,6.2855,6.3354,6.394,6.415,4.0487,4.1502,4.1957,4.0149,3.9848,3.9232,3.6446,3.6985,3.7713,3.6396,3.7588,3.8793,3.8454,3.8165,0.0,0.0,0.0,0.0,0.0,3.5819,3.6145,3.7098,3.8153,3.8667,3.8287,3.8615,3.883,3.883,3.883,3.9297,4.04,4.1681,4.2811,4.3714,4.4884,4.5688,4.6024,4.6185,4.6286,4.6286,4.6125,4.6125,4.6286,4.61,4.6125,4.6286,4.6286,4.6286,4.6386,4.7456,4.7908,4.7992,4.8937,4.933,4.933,4.9531,4.9857,5.0268,5.082,5.1381,5.1925,5.226,5.2385,5.246,5.2812,5.3538,5.4402,5.5105,5.6431,5.792,5.9076,5.9923,6.059,6.1088,6.1193,6.1193,6.1193,6.1193,6.1193,6.1193,6.1193,6.1253,6.1434,6.1299,6.1238,6.1314,6.1419,6.1404,6.1223,6.1193,6.1193,6.1193,6.1193,6.1328,6.1583,6.1806,6.1954,6.2101,6.1717,6.1611,6.1949,6.183,6.2015,6.2544,6.2699,6.301,6.3447,6.3217,6.3296,6.3696,6.4248,6.4336]}]]